<?xml version="1.0" encoding="UTF-8" standalone="no" ?>
<gpx xmlns="http://www.topografix.com/GPX/1/1" xmlns:xsi="http://www.w3.org/2001/XMLSchema-instance" xsi:schemaLocation="http://www.topografix.com/GPX/1/1 http://www.topografix.com/GPX/1/1/gpx.xsd" version="1.1" creator="VisuGPX - https://www.visugpx.com">
  <metadata>
    <name>Mirebel,Bonnefontaine</name>
  </metadata>
  <trk>
    <name><![CDATA[Mirebel,Bonnefontaine_1]]></name>
    <trkseg>
      <trkpt lat="46.69629" lon="5.72719">
        <ele>567.5</ele>
        <time>2021-03-04T12:27:26Z</time>
      </trkpt>
      <trkpt lat="46.69636" lon="5.7272">
        <ele>578.6</ele>
        <time>2021-03-04T12:28:00Z</time>
      </trkpt>
      <trkpt lat="46.69639" lon="5.72715">
        <ele>578.3</ele>
        <time>2021-03-04T12:28:28Z</time>
      </trkpt>
      <trkpt lat="46.69643" lon="5.7271">
        <ele>577.4</ele>
        <time>2021-03-04T12:28:35Z</time>
      </trkpt>
      <trkpt lat="46.69643" lon="5.72703">
        <ele>576.7</ele>
        <time>2021-03-04T12:28:43Z</time>
      </trkpt>
      <trkpt lat="46.69642" lon="5.72696">
        <ele>576.8</ele>
        <time>2021-03-04T12:28:48Z</time>
      </trkpt>
      <trkpt lat="46.69639" lon="5.7269">
        <ele>577.3</ele>
        <time>2021-03-04T12:28:53Z</time>
      </trkpt>
      <trkpt lat="46.69635" lon="5.72685">
        <ele>577.7</ele>
        <time>2021-03-04T12:28:57Z</time>
      </trkpt>
      <trkpt lat="46.69633" lon="5.72678">
        <ele>577.8</ele>
        <time>2021-03-04T12:29:01Z</time>
      </trkpt>
      <trkpt lat="46.6963" lon="5.72673">
        <ele>578.4</ele>
        <time>2021-03-04T12:29:05Z</time>
      </trkpt>
      <trkpt lat="46.69627" lon="5.72667">
        <ele>579.6</ele>
        <time>2021-03-04T12:29:10Z</time>
      </trkpt>
      <trkpt lat="46.69624" lon="5.72662">
        <ele>580.5</ele>
        <time>2021-03-04T12:29:14Z</time>
      </trkpt>
      <trkpt lat="46.69622" lon="5.72656">
        <ele>581.6</ele>
        <time>2021-03-04T12:29:19Z</time>
      </trkpt>
      <trkpt lat="46.69619" lon="5.7265">
        <ele>582.2</ele>
        <time>2021-03-04T12:29:24Z</time>
      </trkpt>
      <trkpt lat="46.69616" lon="5.72643">
        <ele>582.5</ele>
        <time>2021-03-04T12:29:29Z</time>
      </trkpt>
      <trkpt lat="46.69614" lon="5.72637">
        <ele>582.9</ele>
        <time>2021-03-04T12:29:33Z</time>
      </trkpt>
      <trkpt lat="46.69611" lon="5.7263">
        <ele>583.3</ele>
        <time>2021-03-04T12:29:38Z</time>
      </trkpt>
      <trkpt lat="46.69608" lon="5.72624">
        <ele>583.9</ele>
        <time>2021-03-04T12:29:43Z</time>
      </trkpt>
      <trkpt lat="46.69608" lon="5.72617">
        <ele>584.9</ele>
        <time>2021-03-04T12:29:48Z</time>
      </trkpt>
      <trkpt lat="46.69607" lon="5.7261">
        <ele>585.6</ele>
        <time>2021-03-04T12:29:53Z</time>
      </trkpt>
      <trkpt lat="46.69606" lon="5.72603">
        <ele>586.3</ele>
        <time>2021-03-04T12:29:59Z</time>
      </trkpt>
      <trkpt lat="46.69605" lon="5.72595">
        <ele>587.2</ele>
        <time>2021-03-04T12:30:05Z</time>
      </trkpt>
      <trkpt lat="46.69605" lon="5.72587">
        <ele>587.2</ele>
        <time>2021-03-04T12:30:10Z</time>
      </trkpt>
      <trkpt lat="46.69601" lon="5.72584">
        <ele>585.6</ele>
        <time>2021-03-04T12:30:26Z</time>
      </trkpt>
      <trkpt lat="46.69601" lon="5.72577">
        <ele>584.3</ele>
        <time>2021-03-04T12:30:45Z</time>
      </trkpt>
      <trkpt lat="46.69602" lon="5.72569">
        <ele>584.1</ele>
        <time>2021-03-04T12:30:50Z</time>
      </trkpt>
      <trkpt lat="46.69603" lon="5.72559">
        <ele>583.8</ele>
        <time>2021-03-04T12:30:54Z</time>
      </trkpt>
      <trkpt lat="46.69603" lon="5.72552">
        <ele>583.7</ele>
        <time>2021-03-04T12:30:58Z</time>
      </trkpt>
      <trkpt lat="46.69603" lon="5.72544">
        <ele>583.9</ele>
        <time>2021-03-04T12:31:03Z</time>
      </trkpt>
      <trkpt lat="46.69602" lon="5.72536">
        <ele>584.1</ele>
        <time>2021-03-04T12:31:08Z</time>
      </trkpt>
      <trkpt lat="46.69601" lon="5.72529">
        <ele>584.4</ele>
        <time>2021-03-04T12:31:12Z</time>
      </trkpt>
      <trkpt lat="46.69601" lon="5.72522">
        <ele>584.6</ele>
        <time>2021-03-04T12:31:17Z</time>
      </trkpt>
      <trkpt lat="46.69601" lon="5.72515">
        <ele>584.8</ele>
        <time>2021-03-04T12:31:22Z</time>
      </trkpt>
      <trkpt lat="46.696" lon="5.72508">
        <ele>584.6</ele>
        <time>2021-03-04T12:31:26Z</time>
      </trkpt>
      <trkpt lat="46.696" lon="5.72501">
        <ele>584.4</ele>
        <time>2021-03-04T12:31:31Z</time>
      </trkpt>
      <trkpt lat="46.69601" lon="5.72493">
        <ele>584.1</ele>
        <time>2021-03-04T12:31:36Z</time>
      </trkpt>
      <trkpt lat="46.69601" lon="5.72486">
        <ele>584.2</ele>
        <time>2021-03-04T12:31:40Z</time>
      </trkpt>
      <trkpt lat="46.69601" lon="5.72479">
        <ele>584.1</ele>
        <time>2021-03-04T12:31:45Z</time>
      </trkpt>
      <trkpt lat="46.69599" lon="5.72473">
        <ele>583.1</ele>
        <time>2021-03-04T12:31:49Z</time>
      </trkpt>
      <trkpt lat="46.69598" lon="5.72465">
        <ele>582.2</ele>
        <time>2021-03-04T12:31:53Z</time>
      </trkpt>
      <trkpt lat="46.69599" lon="5.72459">
        <ele>581</ele>
        <time>2021-03-04T12:31:59Z</time>
      </trkpt>
      <trkpt lat="46.69596" lon="5.72451">
        <ele>582</ele>
        <time>2021-03-04T12:32:03Z</time>
      </trkpt>
      <trkpt lat="46.69593" lon="5.72443">
        <ele>583.9</ele>
        <time>2021-03-04T12:32:07Z</time>
      </trkpt>
      <trkpt lat="46.69591" lon="5.72434">
        <ele>586.2</ele>
        <time>2021-03-04T12:32:11Z</time>
      </trkpt>
      <trkpt lat="46.69591" lon="5.72425">
        <ele>588.2</ele>
        <time>2021-03-04T12:32:15Z</time>
      </trkpt>
      <trkpt lat="46.69591" lon="5.72418">
        <ele>589.8</ele>
        <time>2021-03-04T12:32:19Z</time>
      </trkpt>
      <trkpt lat="46.6959" lon="5.72411">
        <ele>591.4</ele>
        <time>2021-03-04T12:32:23Z</time>
      </trkpt>
      <trkpt lat="46.69589" lon="5.72404">
        <ele>593.1</ele>
        <time>2021-03-04T12:32:28Z</time>
      </trkpt>
      <trkpt lat="46.69586" lon="5.72397">
        <ele>594.1</ele>
        <time>2021-03-04T12:32:33Z</time>
      </trkpt>
      <trkpt lat="46.69582" lon="5.72391">
        <ele>594.7</ele>
        <time>2021-03-04T12:32:38Z</time>
      </trkpt>
      <trkpt lat="46.69578" lon="5.72386">
        <ele>594.9</ele>
        <time>2021-03-04T12:32:43Z</time>
      </trkpt>
      <trkpt lat="46.69575" lon="5.72381">
        <ele>595</ele>
        <time>2021-03-04T12:32:48Z</time>
      </trkpt>
      <trkpt lat="46.6957" lon="5.72379">
        <ele>594.7</ele>
        <time>2021-03-04T12:32:53Z</time>
      </trkpt>
      <trkpt lat="46.69565" lon="5.72379">
        <ele>594.4</ele>
        <time>2021-03-04T12:32:59Z</time>
      </trkpt>
      <trkpt lat="46.69561" lon="5.72377">
        <ele>593.5</ele>
        <time>2021-03-04T12:33:03Z</time>
      </trkpt>
      <trkpt lat="46.69555" lon="5.72376">
        <ele>592.3</ele>
        <time>2021-03-04T12:33:09Z</time>
      </trkpt>
      <trkpt lat="46.69551" lon="5.72376">
        <ele>591.2</ele>
        <time>2021-03-04T12:33:15Z</time>
      </trkpt>
      <trkpt lat="46.69546" lon="5.72375">
        <ele>590.3</ele>
        <time>2021-03-04T12:33:20Z</time>
      </trkpt>
      <trkpt lat="46.69542" lon="5.72373">
        <ele>589.9</ele>
        <time>2021-03-04T12:33:24Z</time>
      </trkpt>
      <trkpt lat="46.69537" lon="5.72372">
        <ele>589.5</ele>
        <time>2021-03-04T12:33:28Z</time>
      </trkpt>
      <trkpt lat="46.69532" lon="5.72371">
        <ele>589.1</ele>
        <time>2021-03-04T12:33:32Z</time>
      </trkpt>
      <trkpt lat="46.69527" lon="5.72369">
        <ele>588.7</ele>
        <time>2021-03-04T12:33:37Z</time>
      </trkpt>
      <trkpt lat="46.69532" lon="5.72371">
        <ele>587.9</ele>
        <time>2021-03-04T12:34:08Z</time>
      </trkpt>
      <trkpt lat="46.69537" lon="5.72371">
        <ele>587.8</ele>
        <time>2021-03-04T12:34:12Z</time>
      </trkpt>
      <trkpt lat="46.69542" lon="5.72371">
        <ele>587.6</ele>
        <time>2021-03-04T12:34:17Z</time>
      </trkpt>
      <trkpt lat="46.69547" lon="5.72372">
        <ele>587.7</ele>
        <time>2021-03-04T12:34:21Z</time>
      </trkpt>
      <trkpt lat="46.69552" lon="5.72373">
        <ele>588.4</ele>
        <time>2021-03-04T12:34:25Z</time>
      </trkpt>
      <trkpt lat="46.69557" lon="5.72371">
        <ele>589.4</ele>
        <time>2021-03-04T12:34:31Z</time>
      </trkpt>
      <trkpt lat="46.6956" lon="5.72365">
        <ele>590.1</ele>
        <time>2021-03-04T12:34:37Z</time>
      </trkpt>
      <trkpt lat="46.69561" lon="5.72358">
        <ele>589.5</ele>
        <time>2021-03-04T12:34:42Z</time>
      </trkpt>
      <trkpt lat="46.69562" lon="5.72351">
        <ele>588.2</ele>
        <time>2021-03-04T12:34:46Z</time>
      </trkpt>
      <trkpt lat="46.69561" lon="5.72343">
        <ele>587.4</ele>
        <time>2021-03-04T12:34:50Z</time>
      </trkpt>
      <trkpt lat="46.69559" lon="5.72335">
        <ele>587.3</ele>
        <time>2021-03-04T12:34:54Z</time>
      </trkpt>
      <trkpt lat="46.69559" lon="5.72329">
        <ele>587.5</ele>
        <time>2021-03-04T12:34:59Z</time>
      </trkpt>
      <trkpt lat="46.6956" lon="5.72322">
        <ele>588.1</ele>
        <time>2021-03-04T12:35:05Z</time>
      </trkpt>
      <trkpt lat="46.69559" lon="5.72314">
        <ele>588.1</ele>
        <time>2021-03-04T12:35:10Z</time>
      </trkpt>
      <trkpt lat="46.69558" lon="5.72307">
        <ele>587.9</ele>
        <time>2021-03-04T12:35:14Z</time>
      </trkpt>
      <trkpt lat="46.69557" lon="5.72301">
        <ele>586.9</ele>
        <time>2021-03-04T12:35:18Z</time>
      </trkpt>
      <trkpt lat="46.69556" lon="5.72294">
        <ele>586</ele>
        <time>2021-03-04T12:35:22Z</time>
      </trkpt>
      <trkpt lat="46.69554" lon="5.72287">
        <ele>585</ele>
        <time>2021-03-04T12:35:27Z</time>
      </trkpt>
      <trkpt lat="46.69556" lon="5.72281">
        <ele>584.3</ele>
        <time>2021-03-04T12:35:32Z</time>
      </trkpt>
      <trkpt lat="46.69554" lon="5.72273">
        <ele>583.4</ele>
        <time>2021-03-04T12:35:37Z</time>
      </trkpt>
      <trkpt lat="46.69554" lon="5.72266">
        <ele>582.6</ele>
        <time>2021-03-04T12:35:41Z</time>
      </trkpt>
      <trkpt lat="46.69555" lon="5.72259">
        <ele>582.6</ele>
        <time>2021-03-04T12:35:46Z</time>
      </trkpt>
      <trkpt lat="46.69555" lon="5.72252">
        <ele>582.7</ele>
        <time>2021-03-04T12:35:51Z</time>
      </trkpt>
      <trkpt lat="46.69554" lon="5.72244">
        <ele>582.8</ele>
        <time>2021-03-04T12:35:56Z</time>
      </trkpt>
      <trkpt lat="46.69553" lon="5.72236">
        <ele>582.7</ele>
        <time>2021-03-04T12:36:01Z</time>
      </trkpt>
      <trkpt lat="46.69553" lon="5.72229">
        <ele>582.2</ele>
        <time>2021-03-04T12:36:05Z</time>
      </trkpt>
      <trkpt lat="46.69553" lon="5.72222">
        <ele>581.8</ele>
        <time>2021-03-04T12:36:10Z</time>
      </trkpt>
      <trkpt lat="46.69552" lon="5.72216">
        <ele>580</ele>
        <time>2021-03-04T12:36:14Z</time>
      </trkpt>
      <trkpt lat="46.69551" lon="5.72209">
        <ele>578.5</ele>
        <time>2021-03-04T12:36:18Z</time>
      </trkpt>
      <trkpt lat="46.69552" lon="5.72202">
        <ele>577.8</ele>
        <time>2021-03-04T12:36:24Z</time>
      </trkpt>
      <trkpt lat="46.69552" lon="5.72194">
        <ele>578.1</ele>
        <time>2021-03-04T12:36:30Z</time>
      </trkpt>
      <trkpt lat="46.69549" lon="5.72185">
        <ele>577.9</ele>
        <time>2021-03-04T12:36:34Z</time>
      </trkpt>
      <trkpt lat="46.69549" lon="5.72176">
        <ele>577.2</ele>
        <time>2021-03-04T12:36:39Z</time>
      </trkpt>
      <trkpt lat="46.69549" lon="5.72168">
        <ele>575.4</ele>
        <time>2021-03-04T12:36:43Z</time>
      </trkpt>
      <trkpt lat="46.69549" lon="5.72161">
        <ele>573.6</ele>
        <time>2021-03-04T12:36:47Z</time>
      </trkpt>
      <trkpt lat="46.6955" lon="5.72154">
        <ele>572.1</ele>
        <time>2021-03-04T12:36:52Z</time>
      </trkpt>
      <trkpt lat="46.69549" lon="5.72144">
        <ele>570.4</ele>
        <time>2021-03-04T12:36:56Z</time>
      </trkpt>
      <trkpt lat="46.69549" lon="5.72138">
        <ele>569.4</ele>
        <time>2021-03-04T12:37:00Z</time>
      </trkpt>
      <trkpt lat="46.69548" lon="5.7213">
        <ele>568.7</ele>
        <time>2021-03-04T12:37:05Z</time>
      </trkpt>
      <trkpt lat="46.69547" lon="5.72124">
        <ele>568.3</ele>
        <time>2021-03-04T12:37:10Z</time>
      </trkpt>
      <trkpt lat="46.69546" lon="5.72117">
        <ele>567.8</ele>
        <time>2021-03-04T12:37:15Z</time>
      </trkpt>
      <trkpt lat="46.69545" lon="5.7211">
        <ele>567.3</ele>
        <time>2021-03-04T12:37:19Z</time>
      </trkpt>
      <trkpt lat="46.69543" lon="5.72102">
        <ele>566.5</ele>
        <time>2021-03-04T12:37:24Z</time>
      </trkpt>
      <trkpt lat="46.69543" lon="5.72095">
        <ele>565.5</ele>
        <time>2021-03-04T12:37:30Z</time>
      </trkpt>
      <trkpt lat="46.69544" lon="5.72086">
        <ele>564.8</ele>
        <time>2021-03-04T12:37:34Z</time>
      </trkpt>
      <trkpt lat="46.69545" lon="5.72077">
        <ele>565.2</ele>
        <time>2021-03-04T12:37:38Z</time>
      </trkpt>
      <trkpt lat="46.69547" lon="5.72071">
        <ele>566.1</ele>
        <time>2021-03-04T12:37:43Z</time>
      </trkpt>
      <trkpt lat="46.69552" lon="5.72066">
        <ele>566</ele>
        <time>2021-03-04T12:37:48Z</time>
      </trkpt>
      <trkpt lat="46.69557" lon="5.72063">
        <ele>565.5</ele>
        <time>2021-03-04T12:37:53Z</time>
      </trkpt>
      <trkpt lat="46.69562" lon="5.72062">
        <ele>567.2</ele>
        <time>2021-03-04T12:37:58Z</time>
      </trkpt>
      <trkpt lat="46.69567" lon="5.72059">
        <ele>568.4</ele>
        <time>2021-03-04T12:38:02Z</time>
      </trkpt>
      <trkpt lat="46.69571" lon="5.72056">
        <ele>569.6</ele>
        <time>2021-03-04T12:38:06Z</time>
      </trkpt>
      <trkpt lat="46.69575" lon="5.72053">
        <ele>570.1</ele>
        <time>2021-03-04T12:38:10Z</time>
      </trkpt>
      <trkpt lat="46.6958" lon="5.72051">
        <ele>570.7</ele>
        <time>2021-03-04T12:38:15Z</time>
      </trkpt>
      <trkpt lat="46.69585" lon="5.72051">
        <ele>571</ele>
        <time>2021-03-04T12:38:19Z</time>
      </trkpt>
      <trkpt lat="46.6959" lon="5.72051">
        <ele>571.3</ele>
        <time>2021-03-04T12:38:24Z</time>
      </trkpt>
      <trkpt lat="46.69596" lon="5.72051">
        <ele>571.1</ele>
        <time>2021-03-04T12:38:29Z</time>
      </trkpt>
      <trkpt lat="46.696" lon="5.7205">
        <ele>570.5</ele>
        <time>2021-03-04T12:38:33Z</time>
      </trkpt>
      <trkpt lat="46.69606" lon="5.72049">
        <ele>569.7</ele>
        <time>2021-03-04T12:38:38Z</time>
      </trkpt>
      <trkpt lat="46.69611" lon="5.72047">
        <ele>569.1</ele>
        <time>2021-03-04T12:38:42Z</time>
      </trkpt>
      <trkpt lat="46.69615" lon="5.72045">
        <ele>568.6</ele>
        <time>2021-03-04T12:38:47Z</time>
      </trkpt>
      <trkpt lat="46.6962" lon="5.72043">
        <ele>568</ele>
        <time>2021-03-04T12:38:51Z</time>
      </trkpt>
      <trkpt lat="46.69625" lon="5.72042">
        <ele>567.2</ele>
        <time>2021-03-04T12:38:55Z</time>
      </trkpt>
      <trkpt lat="46.69629" lon="5.7204">
        <ele>566.4</ele>
        <time>2021-03-04T12:38:59Z</time>
      </trkpt>
      <trkpt lat="46.69634" lon="5.72038">
        <ele>565.6</ele>
        <time>2021-03-04T12:39:03Z</time>
      </trkpt>
      <trkpt lat="46.69638" lon="5.72036">
        <ele>564.8</ele>
        <time>2021-03-04T12:39:07Z</time>
      </trkpt>
      <trkpt lat="46.69641" lon="5.7203">
        <ele>563.7</ele>
        <time>2021-03-04T12:39:16Z</time>
      </trkpt>
      <trkpt lat="46.69645" lon="5.72026">
        <ele>562.7</ele>
        <time>2021-03-04T12:39:22Z</time>
      </trkpt>
      <trkpt lat="46.6965" lon="5.72025">
        <ele>562.2</ele>
        <time>2021-03-04T12:39:27Z</time>
      </trkpt>
      <trkpt lat="46.69655" lon="5.72022">
        <ele>562.2</ele>
        <time>2021-03-04T12:39:32Z</time>
      </trkpt>
      <trkpt lat="46.69659" lon="5.72018">
        <ele>562</ele>
        <time>2021-03-04T12:39:37Z</time>
      </trkpt>
      <trkpt lat="46.69664" lon="5.72015">
        <ele>562</ele>
        <time>2021-03-04T12:39:41Z</time>
      </trkpt>
      <trkpt lat="46.69668" lon="5.72011">
        <ele>562.3</ele>
        <time>2021-03-04T12:39:46Z</time>
      </trkpt>
      <trkpt lat="46.69673" lon="5.72008">
        <ele>563</ele>
        <time>2021-03-04T12:39:51Z</time>
      </trkpt>
      <trkpt lat="46.69677" lon="5.72004">
        <ele>563.2</ele>
        <time>2021-03-04T12:39:55Z</time>
      </trkpt>
      <trkpt lat="46.69681" lon="5.72001">
        <ele>563.4</ele>
        <time>2021-03-04T12:40:00Z</time>
      </trkpt>
      <trkpt lat="46.69686" lon="5.71998">
        <ele>563.1</ele>
        <time>2021-03-04T12:40:05Z</time>
      </trkpt>
      <trkpt lat="46.69691" lon="5.71996">
        <ele>561.7</ele>
        <time>2021-03-04T12:40:10Z</time>
      </trkpt>
      <trkpt lat="46.69696" lon="5.71997">
        <ele>560.5</ele>
        <time>2021-03-04T12:40:14Z</time>
      </trkpt>
      <trkpt lat="46.69701" lon="5.71998">
        <ele>559.8</ele>
        <time>2021-03-04T12:40:18Z</time>
      </trkpt>
      <trkpt lat="46.69705" lon="5.71999">
        <ele>559.3</ele>
        <time>2021-03-04T12:40:22Z</time>
      </trkpt>
      <trkpt lat="46.6971" lon="5.72001">
        <ele>559.3</ele>
        <time>2021-03-04T12:40:27Z</time>
      </trkpt>
      <trkpt lat="46.69715" lon="5.72003">
        <ele>559.4</ele>
        <time>2021-03-04T12:40:31Z</time>
      </trkpt>
      <trkpt lat="46.6972" lon="5.72005">
        <ele>559.4</ele>
        <time>2021-03-04T12:40:36Z</time>
      </trkpt>
      <trkpt lat="46.69725" lon="5.72007">
        <ele>559.6</ele>
        <time>2021-03-04T12:40:41Z</time>
      </trkpt>
      <trkpt lat="46.6973" lon="5.72008">
        <ele>559.9</ele>
        <time>2021-03-04T12:40:45Z</time>
      </trkpt>
      <trkpt lat="46.69735" lon="5.72009">
        <ele>560.3</ele>
        <time>2021-03-04T12:40:49Z</time>
      </trkpt>
      <trkpt lat="46.6974" lon="5.72009">
        <ele>561.1</ele>
        <time>2021-03-04T12:40:53Z</time>
      </trkpt>
      <trkpt lat="46.69745" lon="5.72008">
        <ele>562</ele>
        <time>2021-03-04T12:40:58Z</time>
      </trkpt>
      <trkpt lat="46.6975" lon="5.72006">
        <ele>562.4</ele>
        <time>2021-03-04T12:41:03Z</time>
      </trkpt>
      <trkpt lat="46.69755" lon="5.72005">
        <ele>562.8</ele>
        <time>2021-03-04T12:41:09Z</time>
      </trkpt>
      <trkpt lat="46.69759" lon="5.72003">
        <ele>563.1</ele>
        <time>2021-03-04T12:41:14Z</time>
      </trkpt>
      <trkpt lat="46.69764" lon="5.72003">
        <ele>563.9</ele>
        <time>2021-03-04T12:41:20Z</time>
      </trkpt>
      <trkpt lat="46.69769" lon="5.72007">
        <ele>565.1</ele>
        <time>2021-03-04T12:41:26Z</time>
      </trkpt>
      <trkpt lat="46.69773" lon="5.72009">
        <ele>565.7</ele>
        <time>2021-03-04T12:41:30Z</time>
      </trkpt>
      <trkpt lat="46.69778" lon="5.72012">
        <ele>566.6</ele>
        <time>2021-03-04T12:41:34Z</time>
      </trkpt>
      <trkpt lat="46.69782" lon="5.72017">
        <ele>567.5</ele>
        <time>2021-03-04T12:41:39Z</time>
      </trkpt>
      <trkpt lat="46.69786" lon="5.72021">
        <ele>567.8</ele>
        <time>2021-03-04T12:41:44Z</time>
      </trkpt>
      <trkpt lat="46.69789" lon="5.72026">
        <ele>568.4</ele>
        <time>2021-03-04T12:41:52Z</time>
      </trkpt>
      <trkpt lat="46.69791" lon="5.72032">
        <ele>569</ele>
        <time>2021-03-04T12:41:58Z</time>
      </trkpt>
      <trkpt lat="46.69794" lon="5.72039">
        <ele>569.2</ele>
        <time>2021-03-04T12:42:03Z</time>
      </trkpt>
      <trkpt lat="46.69795" lon="5.72047">
        <ele>569.2</ele>
        <time>2021-03-04T12:42:08Z</time>
      </trkpt>
      <trkpt lat="46.69796" lon="5.72053">
        <ele>568.6</ele>
        <time>2021-03-04T12:42:12Z</time>
      </trkpt>
      <trkpt lat="46.69796" lon="5.7206">
        <ele>568</ele>
        <time>2021-03-04T12:42:17Z</time>
      </trkpt>
      <trkpt lat="46.69795" lon="5.72067">
        <ele>567.6</ele>
        <time>2021-03-04T12:42:21Z</time>
      </trkpt>
      <trkpt lat="46.69795" lon="5.72074">
        <ele>567.2</ele>
        <time>2021-03-04T12:42:25Z</time>
      </trkpt>
      <trkpt lat="46.69795" lon="5.72081">
        <ele>567</ele>
        <time>2021-03-04T12:42:30Z</time>
      </trkpt>
      <trkpt lat="46.69798" lon="5.72088">
        <ele>567.2</ele>
        <time>2021-03-04T12:42:36Z</time>
      </trkpt>
      <trkpt lat="46.69799" lon="5.72096">
        <ele>567.5</ele>
        <time>2021-03-04T12:42:41Z</time>
      </trkpt>
      <trkpt lat="46.69801" lon="5.72102">
        <ele>567.5</ele>
        <time>2021-03-04T12:42:46Z</time>
      </trkpt>
      <trkpt lat="46.69803" lon="5.72108">
        <ele>567.4</ele>
        <time>2021-03-04T12:42:51Z</time>
      </trkpt>
      <trkpt lat="46.69806" lon="5.72114">
        <ele>567.2</ele>
        <time>2021-03-04T12:42:56Z</time>
      </trkpt>
      <trkpt lat="46.69808" lon="5.7212">
        <ele>567.2</ele>
        <time>2021-03-04T12:43:01Z</time>
      </trkpt>
      <trkpt lat="46.6981" lon="5.72127">
        <ele>567.5</ele>
        <time>2021-03-04T12:43:06Z</time>
      </trkpt>
      <trkpt lat="46.69814" lon="5.72133">
        <ele>567.9</ele>
        <time>2021-03-04T12:43:11Z</time>
      </trkpt>
      <trkpt lat="46.69816" lon="5.72139">
        <ele>568.5</ele>
        <time>2021-03-04T12:43:16Z</time>
      </trkpt>
      <trkpt lat="46.6982" lon="5.72144">
        <ele>569</ele>
        <time>2021-03-04T12:43:21Z</time>
      </trkpt>
      <trkpt lat="46.69823" lon="5.7215">
        <ele>569.5</ele>
        <time>2021-03-04T12:43:26Z</time>
      </trkpt>
      <trkpt lat="46.69827" lon="5.72155">
        <ele>569.9</ele>
        <time>2021-03-04T12:43:30Z</time>
      </trkpt>
      <trkpt lat="46.6983" lon="5.7216">
        <ele>570.5</ele>
        <time>2021-03-04T12:43:34Z</time>
      </trkpt>
      <trkpt lat="46.69833" lon="5.72165">
        <ele>571.1</ele>
        <time>2021-03-04T12:43:38Z</time>
      </trkpt>
      <trkpt lat="46.69837" lon="5.72171">
        <ele>571.7</ele>
        <time>2021-03-04T12:43:43Z</time>
      </trkpt>
      <trkpt lat="46.6984" lon="5.72177">
        <ele>571.9</ele>
        <time>2021-03-04T12:43:47Z</time>
      </trkpt>
      <trkpt lat="46.69844" lon="5.72181">
        <ele>572</ele>
        <time>2021-03-04T12:43:51Z</time>
      </trkpt>
      <trkpt lat="46.69847" lon="5.72186">
        <ele>571.8</ele>
        <time>2021-03-04T12:43:57Z</time>
      </trkpt>
      <trkpt lat="46.69844" lon="5.72191">
        <ele>572.1</ele>
        <time>2021-03-04T12:44:13Z</time>
      </trkpt>
      <trkpt lat="46.69848" lon="5.72193">
        <ele>571.9</ele>
        <time>2021-03-04T12:44:48Z</time>
      </trkpt>
      <trkpt lat="46.69853" lon="5.72196">
        <ele>571.6</ele>
        <time>2021-03-04T12:44:52Z</time>
      </trkpt>
      <trkpt lat="46.69858" lon="5.72199">
        <ele>571.2</ele>
        <time>2021-03-04T12:44:57Z</time>
      </trkpt>
      <trkpt lat="46.69863" lon="5.72203">
        <ele>570.8</ele>
        <time>2021-03-04T12:45:02Z</time>
      </trkpt>
      <trkpt lat="46.69868" lon="5.72206">
        <ele>570.6</ele>
        <time>2021-03-04T12:45:06Z</time>
      </trkpt>
      <trkpt lat="46.69872" lon="5.72208">
        <ele>570.4</ele>
        <time>2021-03-04T12:45:10Z</time>
      </trkpt>
      <trkpt lat="46.69878" lon="5.72208">
        <ele>570</ele>
        <time>2021-03-04T12:45:15Z</time>
      </trkpt>
      <trkpt lat="46.69883" lon="5.72209">
        <ele>570.2</ele>
        <time>2021-03-04T12:45:19Z</time>
      </trkpt>
      <trkpt lat="46.69888" lon="5.7221">
        <ele>569.7</ele>
        <time>2021-03-04T12:45:26Z</time>
      </trkpt>
      <trkpt lat="46.69892" lon="5.7221">
        <ele>569.1</ele>
        <time>2021-03-04T12:45:32Z</time>
      </trkpt>
      <trkpt lat="46.69897" lon="5.72212">
        <ele>568.3</ele>
        <time>2021-03-04T12:45:37Z</time>
      </trkpt>
      <trkpt lat="46.69902" lon="5.72211">
        <ele>567.9</ele>
        <time>2021-03-04T12:45:42Z</time>
      </trkpt>
      <trkpt lat="46.69908" lon="5.72211">
        <ele>568.9</ele>
        <time>2021-03-04T12:45:47Z</time>
      </trkpt>
      <trkpt lat="46.69913" lon="5.72212">
        <ele>569.4</ele>
        <time>2021-03-04T12:45:51Z</time>
      </trkpt>
      <trkpt lat="46.69918" lon="5.72214">
        <ele>569.6</ele>
        <time>2021-03-04T12:45:55Z</time>
      </trkpt>
      <trkpt lat="46.69923" lon="5.72218">
        <ele>570.3</ele>
        <time>2021-03-04T12:45:59Z</time>
      </trkpt>
      <trkpt lat="46.69925" lon="5.72224">
        <ele>571</ele>
        <time>2021-03-04T12:46:03Z</time>
      </trkpt>
      <trkpt lat="46.69927" lon="5.7223">
        <ele>571.7</ele>
        <time>2021-03-04T12:46:08Z</time>
      </trkpt>
      <trkpt lat="46.69929" lon="5.72237">
        <ele>572.3</ele>
        <time>2021-03-04T12:46:14Z</time>
      </trkpt>
      <trkpt lat="46.69931" lon="5.72244">
        <ele>573</ele>
        <time>2021-03-04T12:46:19Z</time>
      </trkpt>
      <trkpt lat="46.69934" lon="5.72251">
        <ele>573.1</ele>
        <time>2021-03-04T12:46:25Z</time>
      </trkpt>
      <trkpt lat="46.69937" lon="5.72258">
        <ele>572.2</ele>
        <time>2021-03-04T12:46:30Z</time>
      </trkpt>
      <trkpt lat="46.69938" lon="5.72265">
        <ele>571.4</ele>
        <time>2021-03-04T12:46:36Z</time>
      </trkpt>
      <trkpt lat="46.6994" lon="5.72272">
        <ele>571.9</ele>
        <time>2021-03-04T12:46:40Z</time>
      </trkpt>
      <trkpt lat="46.69941" lon="5.72278">
        <ele>572.6</ele>
        <time>2021-03-04T12:46:44Z</time>
      </trkpt>
      <trkpt lat="46.69942" lon="5.72286">
        <ele>573.1</ele>
        <time>2021-03-04T12:46:49Z</time>
      </trkpt>
      <trkpt lat="46.69942" lon="5.72293">
        <ele>573.5</ele>
        <time>2021-03-04T12:46:54Z</time>
      </trkpt>
      <trkpt lat="46.69943" lon="5.723">
        <ele>573.5</ele>
        <time>2021-03-04T12:46:59Z</time>
      </trkpt>
      <trkpt lat="46.69943" lon="5.72308">
        <ele>574.3</ele>
        <time>2021-03-04T12:47:04Z</time>
      </trkpt>
      <trkpt lat="46.69942" lon="5.72315">
        <ele>575.4</ele>
        <time>2021-03-04T12:47:09Z</time>
      </trkpt>
      <trkpt lat="46.69942" lon="5.72322">
        <ele>576.4</ele>
        <time>2021-03-04T12:47:14Z</time>
      </trkpt>
      <trkpt lat="46.69943" lon="5.7233">
        <ele>577.3</ele>
        <time>2021-03-04T12:47:19Z</time>
      </trkpt>
      <trkpt lat="46.69943" lon="5.72337">
        <ele>577.8</ele>
        <time>2021-03-04T12:47:24Z</time>
      </trkpt>
      <trkpt lat="46.69944" lon="5.72344">
        <ele>578.2</ele>
        <time>2021-03-04T12:47:29Z</time>
      </trkpt>
      <trkpt lat="46.69944" lon="5.72352">
        <ele>578.5</ele>
        <time>2021-03-04T12:47:34Z</time>
      </trkpt>
      <trkpt lat="46.69945" lon="5.72359">
        <ele>578.6</ele>
        <time>2021-03-04T12:47:38Z</time>
      </trkpt>
      <trkpt lat="46.69945" lon="5.72366">
        <ele>578.7</ele>
        <time>2021-03-04T12:47:42Z</time>
      </trkpt>
      <trkpt lat="46.69945" lon="5.72373">
        <ele>578.6</ele>
        <time>2021-03-04T12:47:47Z</time>
      </trkpt>
      <trkpt lat="46.69944" lon="5.72379">
        <ele>578.2</ele>
        <time>2021-03-04T12:47:51Z</time>
      </trkpt>
      <trkpt lat="46.69944" lon="5.72386">
        <ele>577.1</ele>
        <time>2021-03-04T12:47:55Z</time>
      </trkpt>
      <trkpt lat="46.69945" lon="5.72393">
        <ele>575.5</ele>
        <time>2021-03-04T12:48:00Z</time>
      </trkpt>
      <trkpt lat="46.69947" lon="5.72399">
        <ele>574.3</ele>
        <time>2021-03-04T12:48:04Z</time>
      </trkpt>
      <trkpt lat="46.69951" lon="5.72403">
        <ele>572.6</ele>
        <time>2021-03-04T12:48:17Z</time>
      </trkpt>
      <trkpt lat="46.69956" lon="5.724">
        <ele>572.7</ele>
        <time>2021-03-04T12:48:24Z</time>
      </trkpt>
      <trkpt lat="46.69959" lon="5.72396">
        <ele>571.9</ele>
        <time>2021-03-04T12:48:29Z</time>
      </trkpt>
      <trkpt lat="46.69963" lon="5.72392">
        <ele>570</ele>
        <time>2021-03-04T12:48:36Z</time>
      </trkpt>
      <trkpt lat="46.69967" lon="5.72389">
        <ele>568.6</ele>
        <time>2021-03-04T12:48:41Z</time>
      </trkpt>
      <trkpt lat="46.69973" lon="5.72386">
        <ele>567.5</ele>
        <time>2021-03-04T12:48:46Z</time>
      </trkpt>
      <trkpt lat="46.69976" lon="5.72383">
        <ele>566.6</ele>
        <time>2021-03-04T12:48:50Z</time>
      </trkpt>
      <trkpt lat="46.6998" lon="5.72377">
        <ele>565.4</ele>
        <time>2021-03-04T12:48:56Z</time>
      </trkpt>
      <trkpt lat="46.69984" lon="5.72374">
        <ele>564.3</ele>
        <time>2021-03-04T12:49:00Z</time>
      </trkpt>
      <trkpt lat="46.69989" lon="5.72371">
        <ele>563.6</ele>
        <time>2021-03-04T12:49:05Z</time>
      </trkpt>
      <trkpt lat="46.69995" lon="5.72367">
        <ele>563.5</ele>
        <time>2021-03-04T12:49:09Z</time>
      </trkpt>
      <trkpt lat="46.7" lon="5.72363">
        <ele>562.9</ele>
        <time>2021-03-04T12:49:13Z</time>
      </trkpt>
      <trkpt lat="46.70004" lon="5.72361">
        <ele>562.6</ele>
        <time>2021-03-04T12:49:17Z</time>
      </trkpt>
      <trkpt lat="46.7001" lon="5.72359">
        <ele>562.4</ele>
        <time>2021-03-04T12:49:22Z</time>
      </trkpt>
      <trkpt lat="46.70015" lon="5.72357">
        <ele>562.8</ele>
        <time>2021-03-04T12:49:27Z</time>
      </trkpt>
      <trkpt lat="46.7002" lon="5.72357">
        <ele>563.1</ele>
        <time>2021-03-04T12:49:31Z</time>
      </trkpt>
      <trkpt lat="46.70026" lon="5.72357">
        <ele>563.4</ele>
        <time>2021-03-04T12:49:36Z</time>
      </trkpt>
      <trkpt lat="46.7003" lon="5.72358">
        <ele>563.8</ele>
        <time>2021-03-04T12:49:40Z</time>
      </trkpt>
      <trkpt lat="46.70035" lon="5.72359">
        <ele>564.3</ele>
        <time>2021-03-04T12:49:44Z</time>
      </trkpt>
      <trkpt lat="46.7004" lon="5.72361">
        <ele>564.5</ele>
        <time>2021-03-04T12:49:49Z</time>
      </trkpt>
      <trkpt lat="46.70045" lon="5.72363">
        <ele>564.6</ele>
        <time>2021-03-04T12:49:53Z</time>
      </trkpt>
      <trkpt lat="46.70049" lon="5.72366">
        <ele>564.6</ele>
        <time>2021-03-04T12:49:57Z</time>
      </trkpt>
      <trkpt lat="46.70054" lon="5.72368">
        <ele>564.6</ele>
        <time>2021-03-04T12:50:02Z</time>
      </trkpt>
      <trkpt lat="46.70058" lon="5.72371">
        <ele>564.4</ele>
        <time>2021-03-04T12:50:07Z</time>
      </trkpt>
      <trkpt lat="46.70063" lon="5.72373">
        <ele>564.5</ele>
        <time>2021-03-04T12:50:12Z</time>
      </trkpt>
      <trkpt lat="46.70067" lon="5.72377">
        <ele>564.7</ele>
        <time>2021-03-04T12:50:17Z</time>
      </trkpt>
      <trkpt lat="46.70071" lon="5.72381">
        <ele>565</ele>
        <time>2021-03-04T12:50:22Z</time>
      </trkpt>
      <trkpt lat="46.70075" lon="5.72386">
        <ele>565</ele>
        <time>2021-03-04T12:50:26Z</time>
      </trkpt>
      <trkpt lat="46.70079" lon="5.7239">
        <ele>564.8</ele>
        <time>2021-03-04T12:50:30Z</time>
      </trkpt>
      <trkpt lat="46.70083" lon="5.72395">
        <ele>564.5</ele>
        <time>2021-03-04T12:50:35Z</time>
      </trkpt>
      <trkpt lat="46.70088" lon="5.724">
        <ele>564.1</ele>
        <time>2021-03-04T12:50:40Z</time>
      </trkpt>
      <trkpt lat="46.70091" lon="5.72405">
        <ele>563.9</ele>
        <time>2021-03-04T12:50:44Z</time>
      </trkpt>
      <trkpt lat="46.70095" lon="5.7241">
        <ele>563.8</ele>
        <time>2021-03-04T12:50:48Z</time>
      </trkpt>
      <trkpt lat="46.70098" lon="5.72416">
        <ele>562.8</ele>
        <time>2021-03-04T12:50:53Z</time>
      </trkpt>
      <trkpt lat="46.70101" lon="5.72422">
        <ele>559.9</ele>
        <time>2021-03-04T12:50:59Z</time>
      </trkpt>
      <trkpt lat="46.70105" lon="5.72427">
        <ele>557.2</ele>
        <time>2021-03-04T12:51:04Z</time>
      </trkpt>
      <trkpt lat="46.7011" lon="5.7243">
        <ele>556.7</ele>
        <time>2021-03-04T12:51:08Z</time>
      </trkpt>
      <trkpt lat="46.70114" lon="5.72434">
        <ele>556.3</ele>
        <time>2021-03-04T12:51:12Z</time>
      </trkpt>
      <trkpt lat="46.70119" lon="5.72436">
        <ele>556</ele>
        <time>2021-03-04T12:51:16Z</time>
      </trkpt>
      <trkpt lat="46.70123" lon="5.72438">
        <ele>555.7</ele>
        <time>2021-03-04T12:51:21Z</time>
      </trkpt>
      <trkpt lat="46.70128" lon="5.72439">
        <ele>555.9</ele>
        <time>2021-03-04T12:51:26Z</time>
      </trkpt>
      <trkpt lat="46.70134" lon="5.7244">
        <ele>556.1</ele>
        <time>2021-03-04T12:51:30Z</time>
      </trkpt>
      <trkpt lat="46.70139" lon="5.72442">
        <ele>557.2</ele>
        <time>2021-03-04T12:51:34Z</time>
      </trkpt>
      <trkpt lat="46.70144" lon="5.72444">
        <ele>558.6</ele>
        <time>2021-03-04T12:51:38Z</time>
      </trkpt>
      <trkpt lat="46.70148" lon="5.72447">
        <ele>559.9</ele>
        <time>2021-03-04T12:51:42Z</time>
      </trkpt>
      <trkpt lat="46.70153" lon="5.7245">
        <ele>561.7</ele>
        <time>2021-03-04T12:51:46Z</time>
      </trkpt>
      <trkpt lat="46.70157" lon="5.72453">
        <ele>563.4</ele>
        <time>2021-03-04T12:51:50Z</time>
      </trkpt>
      <trkpt lat="46.70162" lon="5.72456">
        <ele>564.8</ele>
        <time>2021-03-04T12:51:54Z</time>
      </trkpt>
      <trkpt lat="46.70165" lon="5.7246">
        <ele>565.6</ele>
        <time>2021-03-04T12:51:58Z</time>
      </trkpt>
      <trkpt lat="46.70169" lon="5.72466">
        <ele>565.8</ele>
        <time>2021-03-04T12:52:03Z</time>
      </trkpt>
      <trkpt lat="46.70172" lon="5.72471">
        <ele>565.8</ele>
        <time>2021-03-04T12:52:08Z</time>
      </trkpt>
      <trkpt lat="46.70176" lon="5.72477">
        <ele>565.4</ele>
        <time>2021-03-04T12:52:13Z</time>
      </trkpt>
      <trkpt lat="46.70179" lon="5.72483">
        <ele>564.9</ele>
        <time>2021-03-04T12:52:18Z</time>
      </trkpt>
      <trkpt lat="46.70182" lon="5.7249">
        <ele>564.2</ele>
        <time>2021-03-04T12:52:23Z</time>
      </trkpt>
      <trkpt lat="46.70184" lon="5.72497">
        <ele>563.5</ele>
        <time>2021-03-04T12:52:28Z</time>
      </trkpt>
      <trkpt lat="46.70186" lon="5.72504">
        <ele>563.3</ele>
        <time>2021-03-04T12:52:32Z</time>
      </trkpt>
      <trkpt lat="46.70187" lon="5.7251">
        <ele>563.3</ele>
        <time>2021-03-04T12:52:36Z</time>
      </trkpt>
      <trkpt lat="46.70188" lon="5.72516">
        <ele>563.6</ele>
        <time>2021-03-04T12:52:40Z</time>
      </trkpt>
      <trkpt lat="46.7019" lon="5.72523">
        <ele>563.9</ele>
        <time>2021-03-04T12:52:44Z</time>
      </trkpt>
      <trkpt lat="46.70192" lon="5.7253">
        <ele>564.2</ele>
        <time>2021-03-04T12:52:49Z</time>
      </trkpt>
      <trkpt lat="46.70194" lon="5.72537">
        <ele>564.3</ele>
        <time>2021-03-04T12:52:54Z</time>
      </trkpt>
      <trkpt lat="46.70197" lon="5.72543">
        <ele>564.5</ele>
        <time>2021-03-04T12:52:59Z</time>
      </trkpt>
      <trkpt lat="46.702" lon="5.7255">
        <ele>564.6</ele>
        <time>2021-03-04T12:53:04Z</time>
      </trkpt>
      <trkpt lat="46.70204" lon="5.72555">
        <ele>564.5</ele>
        <time>2021-03-04T12:53:09Z</time>
      </trkpt>
      <trkpt lat="46.70208" lon="5.7256">
        <ele>564.2</ele>
        <time>2021-03-04T12:53:14Z</time>
      </trkpt>
      <trkpt lat="46.70212" lon="5.72565">
        <ele>564</ele>
        <time>2021-03-04T12:53:19Z</time>
      </trkpt>
      <trkpt lat="46.70217" lon="5.72568">
        <ele>564.1</ele>
        <time>2021-03-04T12:53:24Z</time>
      </trkpt>
      <trkpt lat="46.70222" lon="5.72572">
        <ele>564.1</ele>
        <time>2021-03-04T12:53:29Z</time>
      </trkpt>
      <trkpt lat="46.70227" lon="5.72575">
        <ele>563.7</ele>
        <time>2021-03-04T12:53:34Z</time>
      </trkpt>
      <trkpt lat="46.70231" lon="5.72579">
        <ele>563.2</ele>
        <time>2021-03-04T12:53:39Z</time>
      </trkpt>
      <trkpt lat="46.70236" lon="5.72582">
        <ele>562.5</ele>
        <time>2021-03-04T12:53:44Z</time>
      </trkpt>
      <trkpt lat="46.70241" lon="5.72584">
        <ele>561.9</ele>
        <time>2021-03-04T12:53:48Z</time>
      </trkpt>
      <trkpt lat="46.70245" lon="5.72586">
        <ele>561.7</ele>
        <time>2021-03-04T12:53:52Z</time>
      </trkpt>
      <trkpt lat="46.7025" lon="5.72588">
        <ele>561.6</ele>
        <time>2021-03-04T12:53:57Z</time>
      </trkpt>
      <trkpt lat="46.70256" lon="5.7259">
        <ele>560.9</ele>
        <time>2021-03-04T12:54:02Z</time>
      </trkpt>
      <trkpt lat="46.70261" lon="5.72592">
        <ele>560</ele>
        <time>2021-03-04T12:54:07Z</time>
      </trkpt>
      <trkpt lat="46.70265" lon="5.72594">
        <ele>559.3</ele>
        <time>2021-03-04T12:54:11Z</time>
      </trkpt>
      <trkpt lat="46.7027" lon="5.72596">
        <ele>558.9</ele>
        <time>2021-03-04T12:54:15Z</time>
      </trkpt>
      <trkpt lat="46.70275" lon="5.72599">
        <ele>558.9</ele>
        <time>2021-03-04T12:54:20Z</time>
      </trkpt>
      <trkpt lat="46.7028" lon="5.72603">
        <ele>559.1</ele>
        <time>2021-03-04T12:54:25Z</time>
      </trkpt>
      <trkpt lat="46.70285" lon="5.72606">
        <ele>559.8</ele>
        <time>2021-03-04T12:54:30Z</time>
      </trkpt>
      <trkpt lat="46.70289" lon="5.72609">
        <ele>560.5</ele>
        <time>2021-03-04T12:54:34Z</time>
      </trkpt>
      <trkpt lat="46.70294" lon="5.72612">
        <ele>561.2</ele>
        <time>2021-03-04T12:54:39Z</time>
      </trkpt>
      <trkpt lat="46.70298" lon="5.72613">
        <ele>562</ele>
        <time>2021-03-04T12:54:44Z</time>
      </trkpt>
      <trkpt lat="46.70303" lon="5.72617">
        <ele>562.6</ele>
        <time>2021-03-04T12:54:50Z</time>
      </trkpt>
      <trkpt lat="46.70308" lon="5.72619">
        <ele>563.1</ele>
        <time>2021-03-04T12:54:56Z</time>
      </trkpt>
      <trkpt lat="46.70313" lon="5.7262">
        <ele>563.4</ele>
        <time>2021-03-04T12:55:01Z</time>
      </trkpt>
      <trkpt lat="46.70317" lon="5.72622">
        <ele>563.6</ele>
        <time>2021-03-04T12:55:06Z</time>
      </trkpt>
      <trkpt lat="46.70323" lon="5.72622">
        <ele>563.9</ele>
        <time>2021-03-04T12:55:11Z</time>
      </trkpt>
      <trkpt lat="46.70327" lon="5.72624">
        <ele>564.4</ele>
        <time>2021-03-04T12:55:19Z</time>
      </trkpt>
      <trkpt lat="46.70332" lon="5.72628">
        <ele>564.2</ele>
        <time>2021-03-04T12:55:25Z</time>
      </trkpt>
      <trkpt lat="46.70336" lon="5.72632">
        <ele>564</ele>
        <time>2021-03-04T12:55:29Z</time>
      </trkpt>
      <trkpt lat="46.70341" lon="5.72634">
        <ele>563.9</ele>
        <time>2021-03-04T12:55:33Z</time>
      </trkpt>
      <trkpt lat="46.70346" lon="5.72637">
        <ele>563.9</ele>
        <time>2021-03-04T12:55:38Z</time>
      </trkpt>
      <trkpt lat="46.70356" lon="5.72641">
        <ele>565.6</ele>
        <time>2021-03-04T12:55:42Z</time>
      </trkpt>
      <trkpt lat="46.70363" lon="5.72648">
        <ele>567.5</ele>
        <time>2021-03-04T12:55:46Z</time>
      </trkpt>
      <trkpt lat="46.70364" lon="5.72655">
        <ele>568.6</ele>
        <time>2021-03-04T12:55:50Z</time>
      </trkpt>
      <trkpt lat="46.70365" lon="5.72662">
        <ele>569.4</ele>
        <time>2021-03-04T12:55:54Z</time>
      </trkpt>
      <trkpt lat="46.70364" lon="5.72669">
        <ele>570.1</ele>
        <time>2021-03-04T12:56:00Z</time>
      </trkpt>
      <trkpt lat="46.70362" lon="5.72676">
        <ele>570</ele>
        <time>2021-03-04T12:56:07Z</time>
      </trkpt>
      <trkpt lat="46.7036" lon="5.72684">
        <ele>569.7</ele>
        <time>2021-03-04T12:56:12Z</time>
      </trkpt>
      <trkpt lat="46.70358" lon="5.72691">
        <ele>569.2</ele>
        <time>2021-03-04T12:56:17Z</time>
      </trkpt>
      <trkpt lat="46.70357" lon="5.72699">
        <ele>568.6</ele>
        <time>2021-03-04T12:56:22Z</time>
      </trkpt>
      <trkpt lat="46.70356" lon="5.72706">
        <ele>568.3</ele>
        <time>2021-03-04T12:56:27Z</time>
      </trkpt>
      <trkpt lat="46.70354" lon="5.72713">
        <ele>568.1</ele>
        <time>2021-03-04T12:56:32Z</time>
      </trkpt>
      <trkpt lat="46.70352" lon="5.72721">
        <ele>567.7</ele>
        <time>2021-03-04T12:56:37Z</time>
      </trkpt>
      <trkpt lat="46.70351" lon="5.72727">
        <ele>567.3</ele>
        <time>2021-03-04T12:56:41Z</time>
      </trkpt>
      <trkpt lat="46.7035" lon="5.72735">
        <ele>566.8</ele>
        <time>2021-03-04T12:56:46Z</time>
      </trkpt>
      <trkpt lat="46.7035" lon="5.72741">
        <ele>566.3</ele>
        <time>2021-03-04T12:56:51Z</time>
      </trkpt>
      <trkpt lat="46.7035" lon="5.72749">
        <ele>565.9</ele>
        <time>2021-03-04T12:56:56Z</time>
      </trkpt>
      <trkpt lat="46.70351" lon="5.72756">
        <ele>565.5</ele>
        <time>2021-03-04T12:57:01Z</time>
      </trkpt>
      <trkpt lat="46.70352" lon="5.72764">
        <ele>563.8</ele>
        <time>2021-03-04T12:57:08Z</time>
      </trkpt>
      <trkpt lat="46.70354" lon="5.7277">
        <ele>561.8</ele>
        <time>2021-03-04T12:57:14Z</time>
      </trkpt>
      <trkpt lat="46.70359" lon="5.72773">
        <ele>559.8</ele>
        <time>2021-03-04T12:57:19Z</time>
      </trkpt>
      <trkpt lat="46.70364" lon="5.72776">
        <ele>556.7</ele>
        <time>2021-03-04T12:57:26Z</time>
      </trkpt>
      <trkpt lat="46.70369" lon="5.7278">
        <ele>554.8</ele>
        <time>2021-03-04T12:57:32Z</time>
      </trkpt>
      <trkpt lat="46.70382" lon="5.72778">
        <ele>556.8</ele>
        <time>2021-03-04T12:57:36Z</time>
      </trkpt>
      <trkpt lat="46.70388" lon="5.7278">
        <ele>557.6</ele>
        <time>2021-03-04T12:57:40Z</time>
      </trkpt>
      <trkpt lat="46.70393" lon="5.72782">
        <ele>558.5</ele>
        <time>2021-03-04T12:57:44Z</time>
      </trkpt>
      <trkpt lat="46.70397" lon="5.72785">
        <ele>559.1</ele>
        <time>2021-03-04T12:57:50Z</time>
      </trkpt>
      <trkpt lat="46.70402" lon="5.72788">
        <ele>559.9</ele>
        <time>2021-03-04T12:57:55Z</time>
      </trkpt>
      <trkpt lat="46.70407" lon="5.72791">
        <ele>560.9</ele>
        <time>2021-03-04T12:58:00Z</time>
      </trkpt>
      <trkpt lat="46.70412" lon="5.72793">
        <ele>561.9</ele>
        <time>2021-03-04T12:58:06Z</time>
      </trkpt>
      <trkpt lat="46.70417" lon="5.72796">
        <ele>562.6</ele>
        <time>2021-03-04T12:58:11Z</time>
      </trkpt>
      <trkpt lat="46.70422" lon="5.72799">
        <ele>563.2</ele>
        <time>2021-03-04T12:58:16Z</time>
      </trkpt>
      <trkpt lat="46.70427" lon="5.72802">
        <ele>563.5</ele>
        <time>2021-03-04T12:58:21Z</time>
      </trkpt>
      <trkpt lat="46.70432" lon="5.72804">
        <ele>563.9</ele>
        <time>2021-03-04T12:58:25Z</time>
      </trkpt>
      <trkpt lat="46.70436" lon="5.72808">
        <ele>564.7</ele>
        <time>2021-03-04T12:58:31Z</time>
      </trkpt>
      <trkpt lat="46.70441" lon="5.7281">
        <ele>565.6</ele>
        <time>2021-03-04T12:58:37Z</time>
      </trkpt>
      <trkpt lat="46.70446" lon="5.72813">
        <ele>566.3</ele>
        <time>2021-03-04T12:58:41Z</time>
      </trkpt>
      <trkpt lat="46.70452" lon="5.72814">
        <ele>567.3</ele>
        <time>2021-03-04T12:58:45Z</time>
      </trkpt>
      <trkpt lat="46.70457" lon="5.72816">
        <ele>568.2</ele>
        <time>2021-03-04T12:58:49Z</time>
      </trkpt>
      <trkpt lat="46.70461" lon="5.72819">
        <ele>569.1</ele>
        <time>2021-03-04T12:58:53Z</time>
      </trkpt>
      <trkpt lat="46.70466" lon="5.72822">
        <ele>570.2</ele>
        <time>2021-03-04T12:58:58Z</time>
      </trkpt>
      <trkpt lat="46.7047" lon="5.72824">
        <ele>571.4</ele>
        <time>2021-03-04T12:59:03Z</time>
      </trkpt>
      <trkpt lat="46.70475" lon="5.72826">
        <ele>572.3</ele>
        <time>2021-03-04T12:59:08Z</time>
      </trkpt>
      <trkpt lat="46.70479" lon="5.72828">
        <ele>573.3</ele>
        <time>2021-03-04T12:59:13Z</time>
      </trkpt>
      <trkpt lat="46.70484" lon="5.72829">
        <ele>573.8</ele>
        <time>2021-03-04T12:59:18Z</time>
      </trkpt>
      <trkpt lat="46.70489" lon="5.72831">
        <ele>573.6</ele>
        <time>2021-03-04T12:59:22Z</time>
      </trkpt>
      <trkpt lat="46.70493" lon="5.72833">
        <ele>572.8</ele>
        <time>2021-03-04T12:59:26Z</time>
      </trkpt>
      <trkpt lat="46.70499" lon="5.72835">
        <ele>571.7</ele>
        <time>2021-03-04T12:59:31Z</time>
      </trkpt>
      <trkpt lat="46.70504" lon="5.72837">
        <ele>570.9</ele>
        <time>2021-03-04T12:59:35Z</time>
      </trkpt>
      <trkpt lat="46.70509" lon="5.72839">
        <ele>570.3</ele>
        <time>2021-03-04T12:59:39Z</time>
      </trkpt>
      <trkpt lat="46.70514" lon="5.72841">
        <ele>569.6</ele>
        <time>2021-03-04T12:59:43Z</time>
      </trkpt>
      <trkpt lat="46.70518" lon="5.72844">
        <ele>569</ele>
        <time>2021-03-04T12:59:47Z</time>
      </trkpt>
      <trkpt lat="46.70523" lon="5.72846">
        <ele>568.3</ele>
        <time>2021-03-04T12:59:51Z</time>
      </trkpt>
      <trkpt lat="46.70528" lon="5.72848">
        <ele>567.7</ele>
        <time>2021-03-04T12:59:55Z</time>
      </trkpt>
      <trkpt lat="46.70532" lon="5.72853">
        <ele>567.6</ele>
        <time>2021-03-04T13:00:00Z</time>
      </trkpt>
      <trkpt lat="46.70536" lon="5.72858">
        <ele>567.5</ele>
        <time>2021-03-04T13:00:05Z</time>
      </trkpt>
      <trkpt lat="46.70539" lon="5.72863">
        <ele>566.9</ele>
        <time>2021-03-04T13:00:10Z</time>
      </trkpt>
      <trkpt lat="46.70544" lon="5.72867">
        <ele>566.3</ele>
        <time>2021-03-04T13:00:14Z</time>
      </trkpt>
      <trkpt lat="46.70549" lon="5.72871">
        <ele>566</ele>
        <time>2021-03-04T13:00:18Z</time>
      </trkpt>
      <trkpt lat="46.70555" lon="5.72876">
        <ele>565.8</ele>
        <time>2021-03-04T13:00:22Z</time>
      </trkpt>
      <trkpt lat="46.7056" lon="5.7288">
        <ele>566</ele>
        <time>2021-03-04T13:00:26Z</time>
      </trkpt>
      <trkpt lat="46.70563" lon="5.72884">
        <ele>566</ele>
        <time>2021-03-04T13:00:30Z</time>
      </trkpt>
      <trkpt lat="46.70568" lon="5.72887">
        <ele>566.3</ele>
        <time>2021-03-04T13:00:34Z</time>
      </trkpt>
      <trkpt lat="46.70571" lon="5.72891">
        <ele>566.3</ele>
        <time>2021-03-04T13:00:39Z</time>
      </trkpt>
      <trkpt lat="46.70575" lon="5.72897">
        <ele>566.2</ele>
        <time>2021-03-04T13:00:44Z</time>
      </trkpt>
      <trkpt lat="46.70579" lon="5.72901">
        <ele>566.1</ele>
        <time>2021-03-04T13:00:49Z</time>
      </trkpt>
      <trkpt lat="46.70583" lon="5.72906">
        <ele>565.3</ele>
        <time>2021-03-04T13:00:55Z</time>
      </trkpt>
      <trkpt lat="46.70587" lon="5.7291">
        <ele>564.9</ele>
        <time>2021-03-04T13:01:00Z</time>
      </trkpt>
      <trkpt lat="46.70591" lon="5.72913">
        <ele>564.5</ele>
        <time>2021-03-04T13:01:05Z</time>
      </trkpt>
      <trkpt lat="46.70596" lon="5.72916">
        <ele>563.9</ele>
        <time>2021-03-04T13:01:10Z</time>
      </trkpt>
      <trkpt lat="46.70601" lon="5.7292">
        <ele>563.4</ele>
        <time>2021-03-04T13:01:15Z</time>
      </trkpt>
      <trkpt lat="46.70606" lon="5.72924">
        <ele>563.2</ele>
        <time>2021-03-04T13:01:20Z</time>
      </trkpt>
      <trkpt lat="46.70611" lon="5.72927">
        <ele>563.5</ele>
        <time>2021-03-04T13:01:25Z</time>
      </trkpt>
      <trkpt lat="46.70616" lon="5.7293">
        <ele>563.9</ele>
        <time>2021-03-04T13:01:30Z</time>
      </trkpt>
      <trkpt lat="46.7062" lon="5.72934">
        <ele>564.4</ele>
        <time>2021-03-04T13:01:35Z</time>
      </trkpt>
      <trkpt lat="46.70624" lon="5.72938">
        <ele>564.9</ele>
        <time>2021-03-04T13:01:40Z</time>
      </trkpt>
      <trkpt lat="46.70628" lon="5.72942">
        <ele>565.2</ele>
        <time>2021-03-04T13:01:44Z</time>
      </trkpt>
      <trkpt lat="46.70632" lon="5.72946">
        <ele>565.8</ele>
        <time>2021-03-04T13:01:48Z</time>
      </trkpt>
      <trkpt lat="46.70636" lon="5.72951">
        <ele>566.3</ele>
        <time>2021-03-04T13:01:52Z</time>
      </trkpt>
      <trkpt lat="46.70639" lon="5.72955">
        <ele>566.9</ele>
        <time>2021-03-04T13:01:56Z</time>
      </trkpt>
      <trkpt lat="46.70643" lon="5.72961">
        <ele>567.6</ele>
        <time>2021-03-04T13:02:01Z</time>
      </trkpt>
      <trkpt lat="46.70645" lon="5.72968">
        <ele>568</ele>
        <time>2021-03-04T13:02:06Z</time>
      </trkpt>
      <trkpt lat="46.70647" lon="5.72976">
        <ele>567.8</ele>
        <time>2021-03-04T13:02:11Z</time>
      </trkpt>
      <trkpt lat="46.70649" lon="5.72983">
        <ele>567.8</ele>
        <time>2021-03-04T13:02:16Z</time>
      </trkpt>
      <trkpt lat="46.70651" lon="5.7299">
        <ele>567.9</ele>
        <time>2021-03-04T13:02:20Z</time>
      </trkpt>
      <trkpt lat="46.70653" lon="5.72996">
        <ele>568.3</ele>
        <time>2021-03-04T13:02:24Z</time>
      </trkpt>
      <trkpt lat="46.70656" lon="5.73002">
        <ele>568.6</ele>
        <time>2021-03-04T13:02:28Z</time>
      </trkpt>
      <trkpt lat="46.70658" lon="5.73009">
        <ele>569.3</ele>
        <time>2021-03-04T13:02:33Z</time>
      </trkpt>
      <trkpt lat="46.7066" lon="5.73016">
        <ele>569.5</ele>
        <time>2021-03-04T13:02:38Z</time>
      </trkpt>
      <trkpt lat="46.7066" lon="5.73023">
        <ele>569.9</ele>
        <time>2021-03-04T13:02:43Z</time>
      </trkpt>
      <trkpt lat="46.70662" lon="5.7303">
        <ele>570</ele>
        <time>2021-03-04T13:02:47Z</time>
      </trkpt>
      <trkpt lat="46.70664" lon="5.73036">
        <ele>570.2</ele>
        <time>2021-03-04T13:02:52Z</time>
      </trkpt>
      <trkpt lat="46.70667" lon="5.73043">
        <ele>570.6</ele>
        <time>2021-03-04T13:02:58Z</time>
      </trkpt>
      <trkpt lat="46.70671" lon="5.73047">
        <ele>570.9</ele>
        <time>2021-03-04T13:03:03Z</time>
      </trkpt>
      <trkpt lat="46.70675" lon="5.73051">
        <ele>570.8</ele>
        <time>2021-03-04T13:03:09Z</time>
      </trkpt>
      <trkpt lat="46.70679" lon="5.73054">
        <ele>570.5</ele>
        <time>2021-03-04T13:03:15Z</time>
      </trkpt>
      <trkpt lat="46.70684" lon="5.73056">
        <ele>570.2</ele>
        <time>2021-03-04T13:03:20Z</time>
      </trkpt>
      <trkpt lat="46.70689" lon="5.73057">
        <ele>570</ele>
        <time>2021-03-04T13:03:25Z</time>
      </trkpt>
      <trkpt lat="46.70693" lon="5.7306">
        <ele>569.7</ele>
        <time>2021-03-04T13:03:30Z</time>
      </trkpt>
      <trkpt lat="46.70698" lon="5.73065">
        <ele>569.4</ele>
        <time>2021-03-04T13:03:35Z</time>
      </trkpt>
      <trkpt lat="46.70702" lon="5.73069">
        <ele>568.8</ele>
        <time>2021-03-04T13:03:40Z</time>
      </trkpt>
      <trkpt lat="46.70707" lon="5.73071">
        <ele>568.2</ele>
        <time>2021-03-04T13:03:45Z</time>
      </trkpt>
      <trkpt lat="46.70711" lon="5.73074">
        <ele>567.5</ele>
        <time>2021-03-04T13:03:50Z</time>
      </trkpt>
      <trkpt lat="46.70715" lon="5.73078">
        <ele>566.9</ele>
        <time>2021-03-04T13:03:54Z</time>
      </trkpt>
      <trkpt lat="46.7072" lon="5.73081">
        <ele>566</ele>
        <time>2021-03-04T13:03:59Z</time>
      </trkpt>
      <trkpt lat="46.70724" lon="5.73084">
        <ele>565.5</ele>
        <time>2021-03-04T13:04:03Z</time>
      </trkpt>
      <trkpt lat="46.70729" lon="5.73086">
        <ele>564.9</ele>
        <time>2021-03-04T13:04:08Z</time>
      </trkpt>
      <trkpt lat="46.70733" lon="5.73088">
        <ele>564.4</ele>
        <time>2021-03-04T13:04:12Z</time>
      </trkpt>
      <trkpt lat="46.70737" lon="5.7309">
        <ele>563.8</ele>
        <time>2021-03-04T13:04:16Z</time>
      </trkpt>
      <trkpt lat="46.70742" lon="5.73092">
        <ele>563.2</ele>
        <time>2021-03-04T13:04:21Z</time>
      </trkpt>
      <trkpt lat="46.70747" lon="5.73094">
        <ele>562.7</ele>
        <time>2021-03-04T13:04:26Z</time>
      </trkpt>
      <trkpt lat="46.70751" lon="5.73096">
        <ele>562.5</ele>
        <time>2021-03-04T13:04:30Z</time>
      </trkpt>
      <trkpt lat="46.70756" lon="5.73098">
        <ele>562.5</ele>
        <time>2021-03-04T13:04:35Z</time>
      </trkpt>
      <trkpt lat="46.70761" lon="5.73099">
        <ele>562.6</ele>
        <time>2021-03-04T13:04:40Z</time>
      </trkpt>
      <trkpt lat="46.70766" lon="5.73099">
        <ele>562.6</ele>
        <time>2021-03-04T13:04:45Z</time>
      </trkpt>
      <trkpt lat="46.70771" lon="5.731">
        <ele>562.3</ele>
        <time>2021-03-04T13:04:50Z</time>
      </trkpt>
      <trkpt lat="46.70776" lon="5.731">
        <ele>562</ele>
        <time>2021-03-04T13:04:54Z</time>
      </trkpt>
      <trkpt lat="46.70781" lon="5.73098">
        <ele>561.7</ele>
        <time>2021-03-04T13:04:58Z</time>
      </trkpt>
      <trkpt lat="46.70786" lon="5.73095">
        <ele>561.4</ele>
        <time>2021-03-04T13:05:02Z</time>
      </trkpt>
      <trkpt lat="46.70791" lon="5.73092">
        <ele>561.1</ele>
        <time>2021-03-04T13:05:06Z</time>
      </trkpt>
      <trkpt lat="46.70795" lon="5.73088">
        <ele>560.7</ele>
        <time>2021-03-04T13:05:10Z</time>
      </trkpt>
      <trkpt lat="46.708" lon="5.73085">
        <ele>560.1</ele>
        <time>2021-03-04T13:05:14Z</time>
      </trkpt>
      <trkpt lat="46.70805" lon="5.73081">
        <ele>559.8</ele>
        <time>2021-03-04T13:05:19Z</time>
      </trkpt>
      <trkpt lat="46.70809" lon="5.73077">
        <ele>559.6</ele>
        <time>2021-03-04T13:05:23Z</time>
      </trkpt>
      <trkpt lat="46.70814" lon="5.73074">
        <ele>559.6</ele>
        <time>2021-03-04T13:05:28Z</time>
      </trkpt>
      <trkpt lat="46.70819" lon="5.73071">
        <ele>559.6</ele>
        <time>2021-03-04T13:05:34Z</time>
      </trkpt>
      <trkpt lat="46.70824" lon="5.73069">
        <ele>559.2</ele>
        <time>2021-03-04T13:05:40Z</time>
      </trkpt>
      <trkpt lat="46.70828" lon="5.73065">
        <ele>559.2</ele>
        <time>2021-03-04T13:05:45Z</time>
      </trkpt>
      <trkpt lat="46.70833" lon="5.73061">
        <ele>559.3</ele>
        <time>2021-03-04T13:05:51Z</time>
      </trkpt>
      <trkpt lat="46.70838" lon="5.73058">
        <ele>559.4</ele>
        <time>2021-03-04T13:05:56Z</time>
      </trkpt>
      <trkpt lat="46.70843" lon="5.73056">
        <ele>559.7</ele>
        <time>2021-03-04T13:06:01Z</time>
      </trkpt>
      <trkpt lat="46.70848" lon="5.73055">
        <ele>560.2</ele>
        <time>2021-03-04T13:06:06Z</time>
      </trkpt>
      <trkpt lat="46.70853" lon="5.73057">
        <ele>560.7</ele>
        <time>2021-03-04T13:06:13Z</time>
      </trkpt>
      <trkpt lat="46.70858" lon="5.7306">
        <ele>561.2</ele>
        <time>2021-03-04T13:06:20Z</time>
      </trkpt>
      <trkpt lat="46.70863" lon="5.73062">
        <ele>561.4</ele>
        <time>2021-03-04T13:06:26Z</time>
      </trkpt>
      <trkpt lat="46.70867" lon="5.73064">
        <ele>561.7</ele>
        <time>2021-03-04T13:06:32Z</time>
      </trkpt>
      <trkpt lat="46.70872" lon="5.73066">
        <ele>562.1</ele>
        <time>2021-03-04T13:06:37Z</time>
      </trkpt>
      <trkpt lat="46.70876" lon="5.73068">
        <ele>562.3</ele>
        <time>2021-03-04T13:06:42Z</time>
      </trkpt>
      <trkpt lat="46.70881" lon="5.73069">
        <ele>562.5</ele>
        <time>2021-03-04T13:06:49Z</time>
      </trkpt>
      <trkpt lat="46.70886" lon="5.73071">
        <ele>563.2</ele>
        <time>2021-03-04T13:06:56Z</time>
      </trkpt>
      <trkpt lat="46.70891" lon="5.73071">
        <ele>563.9</ele>
        <time>2021-03-04T13:07:01Z</time>
      </trkpt>
      <trkpt lat="46.70896" lon="5.73071">
        <ele>564.7</ele>
        <time>2021-03-04T13:07:08Z</time>
      </trkpt>
      <trkpt lat="46.70902" lon="5.73071">
        <ele>565.7</ele>
        <time>2021-03-04T13:07:13Z</time>
      </trkpt>
      <trkpt lat="46.70908" lon="5.73074">
        <ele>567.5</ele>
        <time>2021-03-04T13:07:30Z</time>
      </trkpt>
      <trkpt lat="46.70912" lon="5.73079">
        <ele>568.1</ele>
        <time>2021-03-04T13:07:34Z</time>
      </trkpt>
      <trkpt lat="46.70917" lon="5.73081">
        <ele>569.6</ele>
        <time>2021-03-04T13:07:53Z</time>
      </trkpt>
      <trkpt lat="46.70922" lon="5.73083">
        <ele>569.7</ele>
        <time>2021-03-04T13:07:59Z</time>
      </trkpt>
      <trkpt lat="46.70926" lon="5.73086">
        <ele>569.8</ele>
        <time>2021-03-04T13:08:04Z</time>
      </trkpt>
      <trkpt lat="46.7093" lon="5.73089">
        <ele>570</ele>
        <time>2021-03-04T13:08:10Z</time>
      </trkpt>
      <trkpt lat="46.70939" lon="5.73089">
        <ele>570.1</ele>
        <time>2021-03-04T13:08:35Z</time>
      </trkpt>
      <trkpt lat="46.70943" lon="5.73089">
        <ele>570</ele>
        <time>2021-03-04T13:08:39Z</time>
      </trkpt>
      <trkpt lat="46.70947" lon="5.73092">
        <ele>569.9</ele>
        <time>2021-03-04T13:08:46Z</time>
      </trkpt>
      <trkpt lat="46.70951" lon="5.73097">
        <ele>569.7</ele>
        <time>2021-03-04T13:08:55Z</time>
      </trkpt>
      <trkpt lat="46.70956" lon="5.73098">
        <ele>569.5</ele>
        <time>2021-03-04T13:09:03Z</time>
      </trkpt>
      <trkpt lat="46.70961" lon="5.73101">
        <ele>569.4</ele>
        <time>2021-03-04T13:09:09Z</time>
      </trkpt>
      <trkpt lat="46.70966" lon="5.73103">
        <ele>569.5</ele>
        <time>2021-03-04T13:09:14Z</time>
      </trkpt>
      <trkpt lat="46.70971" lon="5.73107">
        <ele>569.5</ele>
        <time>2021-03-04T13:09:19Z</time>
      </trkpt>
      <trkpt lat="46.70976" lon="5.73111">
        <ele>569.5</ele>
        <time>2021-03-04T13:09:24Z</time>
      </trkpt>
      <trkpt lat="46.70982" lon="5.73113">
        <ele>569.7</ele>
        <time>2021-03-04T13:09:29Z</time>
      </trkpt>
      <trkpt lat="46.70987" lon="5.73114">
        <ele>569.7</ele>
        <time>2021-03-04T13:09:34Z</time>
      </trkpt>
      <trkpt lat="46.70991" lon="5.73117">
        <ele>569.5</ele>
        <time>2021-03-04T13:09:39Z</time>
      </trkpt>
      <trkpt lat="46.70995" lon="5.73119">
        <ele>569.4</ele>
        <time>2021-03-04T13:09:44Z</time>
      </trkpt>
      <trkpt lat="46.70999" lon="5.73122">
        <ele>569.4</ele>
        <time>2021-03-04T13:09:49Z</time>
      </trkpt>
      <trkpt lat="46.71004" lon="5.73126">
        <ele>569.5</ele>
        <time>2021-03-04T13:09:55Z</time>
      </trkpt>
      <trkpt lat="46.71008" lon="5.73129">
        <ele>569.9</ele>
        <time>2021-03-04T13:10:01Z</time>
      </trkpt>
      <trkpt lat="46.71012" lon="5.7313">
        <ele>570.3</ele>
        <time>2021-03-04T13:10:06Z</time>
      </trkpt>
      <trkpt lat="46.71017" lon="5.73132">
        <ele>570.5</ele>
        <time>2021-03-04T13:10:16Z</time>
      </trkpt>
      <trkpt lat="46.71022" lon="5.73133">
        <ele>569.1</ele>
        <time>2021-03-04T13:10:35Z</time>
      </trkpt>
      <trkpt lat="46.71025" lon="5.73138">
        <ele>568.2</ele>
        <time>2021-03-04T13:11:53Z</time>
      </trkpt>
      <trkpt lat="46.7103" lon="5.73139">
        <ele>568</ele>
        <time>2021-03-04T13:11:59Z</time>
      </trkpt>
      <trkpt lat="46.71034" lon="5.73142">
        <ele>567.9</ele>
        <time>2021-03-04T13:12:03Z</time>
      </trkpt>
      <trkpt lat="46.71038" lon="5.73145">
        <ele>568.1</ele>
        <time>2021-03-04T13:12:07Z</time>
      </trkpt>
      <trkpt lat="46.71042" lon="5.73149">
        <ele>568.8</ele>
        <time>2021-03-04T13:12:12Z</time>
      </trkpt>
      <trkpt lat="46.71045" lon="5.73155">
        <ele>569.3</ele>
        <time>2021-03-04T13:12:18Z</time>
      </trkpt>
      <trkpt lat="46.71048" lon="5.73161">
        <ele>569.6</ele>
        <time>2021-03-04T13:12:24Z</time>
      </trkpt>
      <trkpt lat="46.7105" lon="5.73168">
        <ele>570.1</ele>
        <time>2021-03-04T13:12:31Z</time>
      </trkpt>
      <trkpt lat="46.71053" lon="5.73174">
        <ele>570.4</ele>
        <time>2021-03-04T13:12:37Z</time>
      </trkpt>
      <trkpt lat="46.71057" lon="5.73178">
        <ele>570.4</ele>
        <time>2021-03-04T13:12:42Z</time>
      </trkpt>
      <trkpt lat="46.71062" lon="5.73181">
        <ele>570</ele>
        <time>2021-03-04T13:12:48Z</time>
      </trkpt>
      <trkpt lat="46.71065" lon="5.73186">
        <ele>569.9</ele>
        <time>2021-03-04T13:12:54Z</time>
      </trkpt>
      <trkpt lat="46.71069" lon="5.73193">
        <ele>570.1</ele>
        <time>2021-03-04T13:12:59Z</time>
      </trkpt>
      <trkpt lat="46.71072" lon="5.73202">
        <ele>570.6</ele>
        <time>2021-03-04T13:13:03Z</time>
      </trkpt>
      <trkpt lat="46.71076" lon="5.73207">
        <ele>571.6</ele>
        <time>2021-03-04T13:13:07Z</time>
      </trkpt>
      <trkpt lat="46.71079" lon="5.73212">
        <ele>573.3</ele>
        <time>2021-03-04T13:13:13Z</time>
      </trkpt>
      <trkpt lat="46.71083" lon="5.73217">
        <ele>574.8</ele>
        <time>2021-03-04T13:13:19Z</time>
      </trkpt>
      <trkpt lat="46.71087" lon="5.73221">
        <ele>575.8</ele>
        <time>2021-03-04T13:13:24Z</time>
      </trkpt>
      <trkpt lat="46.7109" lon="5.73226">
        <ele>576.4</ele>
        <time>2021-03-04T13:13:29Z</time>
      </trkpt>
      <trkpt lat="46.71093" lon="5.73231">
        <ele>577.1</ele>
        <time>2021-03-04T13:13:35Z</time>
      </trkpt>
      <trkpt lat="46.71097" lon="5.73235">
        <ele>577.5</ele>
        <time>2021-03-04T13:13:42Z</time>
      </trkpt>
      <trkpt lat="46.711" lon="5.7324">
        <ele>577.7</ele>
        <time>2021-03-04T13:13:49Z</time>
      </trkpt>
      <trkpt lat="46.71105" lon="5.73243">
        <ele>577.8</ele>
        <time>2021-03-04T13:13:54Z</time>
      </trkpt>
      <trkpt lat="46.71109" lon="5.73246">
        <ele>578</ele>
        <time>2021-03-04T13:13:59Z</time>
      </trkpt>
      <trkpt lat="46.71114" lon="5.73249">
        <ele>578.2</ele>
        <time>2021-03-04T13:14:03Z</time>
      </trkpt>
      <trkpt lat="46.71119" lon="5.7325">
        <ele>578.3</ele>
        <time>2021-03-04T13:14:07Z</time>
      </trkpt>
      <trkpt lat="46.71124" lon="5.73251">
        <ele>578.4</ele>
        <time>2021-03-04T13:14:12Z</time>
      </trkpt>
      <trkpt lat="46.71128" lon="5.73252">
        <ele>578.6</ele>
        <time>2021-03-04T13:14:16Z</time>
      </trkpt>
      <trkpt lat="46.71134" lon="5.73252">
        <ele>578.5</ele>
        <time>2021-03-04T13:14:21Z</time>
      </trkpt>
      <trkpt lat="46.71139" lon="5.73253">
        <ele>577.7</ele>
        <time>2021-03-04T13:14:27Z</time>
      </trkpt>
      <trkpt lat="46.71143" lon="5.73254">
        <ele>577.1</ele>
        <time>2021-03-04T13:14:34Z</time>
      </trkpt>
      <trkpt lat="46.71148" lon="5.73256">
        <ele>576.7</ele>
        <time>2021-03-04T13:14:40Z</time>
      </trkpt>
      <trkpt lat="46.71152" lon="5.73258">
        <ele>576.4</ele>
        <time>2021-03-04T13:14:45Z</time>
      </trkpt>
      <trkpt lat="46.71156" lon="5.73262">
        <ele>576.1</ele>
        <time>2021-03-04T13:14:50Z</time>
      </trkpt>
      <trkpt lat="46.71161" lon="5.73267">
        <ele>576.2</ele>
        <time>2021-03-04T13:14:55Z</time>
      </trkpt>
      <trkpt lat="46.71165" lon="5.73273">
        <ele>576.2</ele>
        <time>2021-03-04T13:15:00Z</time>
      </trkpt>
      <trkpt lat="46.71169" lon="5.73277">
        <ele>575.7</ele>
        <time>2021-03-04T13:15:06Z</time>
      </trkpt>
      <trkpt lat="46.71173" lon="5.73281">
        <ele>575.1</ele>
        <time>2021-03-04T13:15:11Z</time>
      </trkpt>
      <trkpt lat="46.71176" lon="5.73287">
        <ele>574</ele>
        <time>2021-03-04T13:15:18Z</time>
      </trkpt>
      <trkpt lat="46.71178" lon="5.73294">
        <ele>573.1</ele>
        <time>2021-03-04T13:15:25Z</time>
      </trkpt>
      <trkpt lat="46.71181" lon="5.73299">
        <ele>572.5</ele>
        <time>2021-03-04T13:15:30Z</time>
      </trkpt>
      <trkpt lat="46.71184" lon="5.73304">
        <ele>572</ele>
        <time>2021-03-04T13:15:35Z</time>
      </trkpt>
      <trkpt lat="46.71188" lon="5.73308">
        <ele>571.8</ele>
        <time>2021-03-04T13:15:40Z</time>
      </trkpt>
      <trkpt lat="46.71192" lon="5.73311">
        <ele>571.8</ele>
        <time>2021-03-04T13:15:44Z</time>
      </trkpt>
      <trkpt lat="46.71198" lon="5.73316">
        <ele>571.9</ele>
        <time>2021-03-04T13:15:48Z</time>
      </trkpt>
      <trkpt lat="46.71202" lon="5.73321">
        <ele>572.1</ele>
        <time>2021-03-04T13:15:52Z</time>
      </trkpt>
      <trkpt lat="46.71206" lon="5.73326">
        <ele>572.2</ele>
        <time>2021-03-04T13:15:56Z</time>
      </trkpt>
      <trkpt lat="46.71209" lon="5.73331">
        <ele>572.1</ele>
        <time>2021-03-04T13:16:00Z</time>
      </trkpt>
      <trkpt lat="46.71213" lon="5.73335">
        <ele>571.9</ele>
        <time>2021-03-04T13:16:04Z</time>
      </trkpt>
      <trkpt lat="46.71217" lon="5.73339">
        <ele>572.1</ele>
        <time>2021-03-04T13:16:09Z</time>
      </trkpt>
      <trkpt lat="46.71222" lon="5.73343">
        <ele>572.6</ele>
        <time>2021-03-04T13:16:14Z</time>
      </trkpt>
      <trkpt lat="46.71226" lon="5.73346">
        <ele>573</ele>
        <time>2021-03-04T13:16:19Z</time>
      </trkpt>
      <trkpt lat="46.71229" lon="5.7335">
        <ele>573.2</ele>
        <time>2021-03-04T13:16:26Z</time>
      </trkpt>
      <trkpt lat="46.71234" lon="5.73352">
        <ele>573</ele>
        <time>2021-03-04T13:16:33Z</time>
      </trkpt>
      <trkpt lat="46.71239" lon="5.73354">
        <ele>572.9</ele>
        <time>2021-03-04T13:16:39Z</time>
      </trkpt>
      <trkpt lat="46.71244" lon="5.73358">
        <ele>573</ele>
        <time>2021-03-04T13:16:45Z</time>
      </trkpt>
      <trkpt lat="46.71249" lon="5.7336">
        <ele>573.1</ele>
        <time>2021-03-04T13:16:49Z</time>
      </trkpt>
      <trkpt lat="46.71256" lon="5.73361">
        <ele>573.2</ele>
        <time>2021-03-04T13:16:53Z</time>
      </trkpt>
      <trkpt lat="46.71262" lon="5.73359">
        <ele>573.4</ele>
        <time>2021-03-04T13:16:57Z</time>
      </trkpt>
      <trkpt lat="46.71267" lon="5.73358">
        <ele>573.5</ele>
        <time>2021-03-04T13:17:01Z</time>
      </trkpt>
      <trkpt lat="46.71272" lon="5.73357">
        <ele>573.6</ele>
        <time>2021-03-04T13:17:06Z</time>
      </trkpt>
      <trkpt lat="46.71277" lon="5.73358">
        <ele>573.6</ele>
        <time>2021-03-04T13:17:12Z</time>
      </trkpt>
      <trkpt lat="46.71282" lon="5.73359">
        <ele>573.7</ele>
        <time>2021-03-04T13:17:18Z</time>
      </trkpt>
      <trkpt lat="46.71287" lon="5.73359">
        <ele>573.7</ele>
        <time>2021-03-04T13:17:23Z</time>
      </trkpt>
      <trkpt lat="46.71291" lon="5.7336">
        <ele>573.6</ele>
        <time>2021-03-04T13:17:27Z</time>
      </trkpt>
      <trkpt lat="46.71296" lon="5.7336">
        <ele>573.5</ele>
        <time>2021-03-04T13:17:32Z</time>
      </trkpt>
      <trkpt lat="46.71301" lon="5.73362">
        <ele>573.3</ele>
        <time>2021-03-04T13:17:38Z</time>
      </trkpt>
      <trkpt lat="46.71306" lon="5.73363">
        <ele>573.1</ele>
        <time>2021-03-04T13:17:44Z</time>
      </trkpt>
      <trkpt lat="46.7131" lon="5.73366">
        <ele>573.1</ele>
        <time>2021-03-04T13:17:49Z</time>
      </trkpt>
      <trkpt lat="46.71315" lon="5.7337">
        <ele>572.9</ele>
        <time>2021-03-04T13:17:54Z</time>
      </trkpt>
      <trkpt lat="46.7132" lon="5.73374">
        <ele>572.6</ele>
        <time>2021-03-04T13:17:58Z</time>
      </trkpt>
      <trkpt lat="46.71324" lon="5.73378">
        <ele>572.1</ele>
        <time>2021-03-04T13:18:03Z</time>
      </trkpt>
      <trkpt lat="46.71329" lon="5.73382">
        <ele>571.4</ele>
        <time>2021-03-04T13:18:09Z</time>
      </trkpt>
      <trkpt lat="46.71333" lon="5.73385">
        <ele>571</ele>
        <time>2021-03-04T13:18:14Z</time>
      </trkpt>
      <trkpt lat="46.71338" lon="5.73387">
        <ele>570.6</ele>
        <time>2021-03-04T13:18:19Z</time>
      </trkpt>
      <trkpt lat="46.71342" lon="5.73391">
        <ele>570.6</ele>
        <time>2021-03-04T13:18:24Z</time>
      </trkpt>
      <trkpt lat="46.71347" lon="5.7339">
        <ele>571.4</ele>
        <time>2021-03-04T13:19:07Z</time>
      </trkpt>
      <trkpt lat="46.71351" lon="5.73387">
        <ele>572.2</ele>
        <time>2021-03-04T13:19:12Z</time>
      </trkpt>
      <trkpt lat="46.71356" lon="5.73389">
        <ele>574</ele>
        <time>2021-03-04T13:19:45Z</time>
      </trkpt>
      <trkpt lat="46.7136" lon="5.73392">
        <ele>573</ele>
        <time>2021-03-04T13:20:03Z</time>
      </trkpt>
      <trkpt lat="46.71365" lon="5.73392">
        <ele>572.2</ele>
        <time>2021-03-04T13:20:33Z</time>
      </trkpt>
      <trkpt lat="46.7137" lon="5.73397">
        <ele>571.6</ele>
        <time>2021-03-04T13:20:42Z</time>
      </trkpt>
      <trkpt lat="46.71373" lon="5.73402">
        <ele>571.1</ele>
        <time>2021-03-04T13:20:48Z</time>
      </trkpt>
      <trkpt lat="46.71378" lon="5.73403">
        <ele>570.5</ele>
        <time>2021-03-04T13:20:57Z</time>
      </trkpt>
      <trkpt lat="46.71383" lon="5.734">
        <ele>570.6</ele>
        <time>2021-03-04T13:21:01Z</time>
      </trkpt>
      <trkpt lat="46.71388" lon="5.73398">
        <ele>570.8</ele>
        <time>2021-03-04T13:21:06Z</time>
      </trkpt>
      <trkpt lat="46.71393" lon="5.73401">
        <ele>571.1</ele>
        <time>2021-03-04T13:21:11Z</time>
      </trkpt>
      <trkpt lat="46.71397" lon="5.73404">
        <ele>571.3</ele>
        <time>2021-03-04T13:21:16Z</time>
      </trkpt>
      <trkpt lat="46.71402" lon="5.73407">
        <ele>571.7</ele>
        <time>2021-03-04T13:21:22Z</time>
      </trkpt>
      <trkpt lat="46.71407" lon="5.7341">
        <ele>571.9</ele>
        <time>2021-03-04T13:21:26Z</time>
      </trkpt>
      <trkpt lat="46.71411" lon="5.73412">
        <ele>572</ele>
        <time>2021-03-04T13:21:30Z</time>
      </trkpt>
      <trkpt lat="46.71416" lon="5.73414">
        <ele>571.5</ele>
        <time>2021-03-04T13:21:34Z</time>
      </trkpt>
      <trkpt lat="46.7142" lon="5.73417">
        <ele>571.1</ele>
        <time>2021-03-04T13:21:38Z</time>
      </trkpt>
      <trkpt lat="46.71425" lon="5.73421">
        <ele>570.5</ele>
        <time>2021-03-04T13:21:43Z</time>
      </trkpt>
      <trkpt lat="46.71429" lon="5.7342">
        <ele>570.5</ele>
        <time>2021-03-04T13:21:49Z</time>
      </trkpt>
      <trkpt lat="46.71434" lon="5.73421">
        <ele>570.9</ele>
        <time>2021-03-04T13:21:54Z</time>
      </trkpt>
      <trkpt lat="46.71438" lon="5.73424">
        <ele>571.8</ele>
        <time>2021-03-04T13:22:04Z</time>
      </trkpt>
      <trkpt lat="46.71437" lon="5.73431">
        <ele>572.9</ele>
        <time>2021-03-04T13:22:18Z</time>
      </trkpt>
      <trkpt lat="46.71436" lon="5.73437">
        <ele>573.6</ele>
        <time>2021-03-04T13:22:29Z</time>
      </trkpt>
      <trkpt lat="46.71439" lon="5.73441">
        <ele>573.4</ele>
        <time>2021-03-04T13:22:37Z</time>
      </trkpt>
      <trkpt lat="46.71445" lon="5.73444">
        <ele>573.2</ele>
        <time>2021-03-04T13:22:43Z</time>
      </trkpt>
      <trkpt lat="46.7145" lon="5.73446">
        <ele>573.2</ele>
        <time>2021-03-04T13:22:48Z</time>
      </trkpt>
      <trkpt lat="46.71455" lon="5.73449">
        <ele>573.6</ele>
        <time>2021-03-04T13:22:52Z</time>
      </trkpt>
      <trkpt lat="46.7146" lon="5.73452">
        <ele>574.1</ele>
        <time>2021-03-04T13:22:57Z</time>
      </trkpt>
      <trkpt lat="46.71464" lon="5.73457">
        <ele>574.4</ele>
        <time>2021-03-04T13:23:01Z</time>
      </trkpt>
      <trkpt lat="46.71468" lon="5.7346">
        <ele>574.6</ele>
        <time>2021-03-04T13:23:05Z</time>
      </trkpt>
      <trkpt lat="46.71473" lon="5.73462">
        <ele>574.9</ele>
        <time>2021-03-04T13:23:10Z</time>
      </trkpt>
      <trkpt lat="46.71477" lon="5.73464">
        <ele>575</ele>
        <time>2021-03-04T13:23:14Z</time>
      </trkpt>
      <trkpt lat="46.71483" lon="5.73467">
        <ele>575.2</ele>
        <time>2021-03-04T13:23:18Z</time>
      </trkpt>
      <trkpt lat="46.71488" lon="5.7347">
        <ele>575.4</ele>
        <time>2021-03-04T13:23:22Z</time>
      </trkpt>
      <trkpt lat="46.71493" lon="5.73472">
        <ele>575.5</ele>
        <time>2021-03-04T13:23:26Z</time>
      </trkpt>
      <trkpt lat="46.71498" lon="5.73475">
        <ele>575.8</ele>
        <time>2021-03-04T13:23:31Z</time>
      </trkpt>
      <trkpt lat="46.71502" lon="5.73478">
        <ele>575.9</ele>
        <time>2021-03-04T13:23:35Z</time>
      </trkpt>
      <trkpt lat="46.71507" lon="5.73482">
        <ele>575.9</ele>
        <time>2021-03-04T13:23:40Z</time>
      </trkpt>
      <trkpt lat="46.7151" lon="5.73487">
        <ele>576.1</ele>
        <time>2021-03-04T13:23:48Z</time>
      </trkpt>
      <trkpt lat="46.71507" lon="5.73493">
        <ele>575.7</ele>
        <time>2021-03-04T13:24:02Z</time>
      </trkpt>
      <trkpt lat="46.71503" lon="5.73498">
        <ele>575.6</ele>
        <time>2021-03-04T13:24:10Z</time>
      </trkpt>
      <trkpt lat="46.71499" lon="5.73504">
        <ele>575.7</ele>
        <time>2021-03-04T13:24:15Z</time>
      </trkpt>
      <trkpt lat="46.71497" lon="5.73509">
        <ele>575.6</ele>
        <time>2021-03-04T13:24:19Z</time>
      </trkpt>
      <trkpt lat="46.71492" lon="5.73511">
        <ele>574.4</ele>
        <time>2021-03-04T13:24:40Z</time>
      </trkpt>
      <trkpt lat="46.71497" lon="5.73508">
        <ele>573.8</ele>
        <time>2021-03-04T13:24:59Z</time>
      </trkpt>
      <trkpt lat="46.71503" lon="5.73504">
        <ele>573.9</ele>
        <time>2021-03-04T13:25:03Z</time>
      </trkpt>
      <trkpt lat="46.71508" lon="5.73499">
        <ele>573.6</ele>
        <time>2021-03-04T13:25:07Z</time>
      </trkpt>
      <trkpt lat="46.71512" lon="5.73497">
        <ele>573.6</ele>
        <time>2021-03-04T13:25:11Z</time>
      </trkpt>
      <trkpt lat="46.71518" lon="5.73497">
        <ele>573.8</ele>
        <time>2021-03-04T13:25:16Z</time>
      </trkpt>
      <trkpt lat="46.71522" lon="5.73498">
        <ele>574.4</ele>
        <time>2021-03-04T13:25:22Z</time>
      </trkpt>
      <trkpt lat="46.71528" lon="5.73498">
        <ele>575.9</ele>
        <time>2021-03-04T13:25:44Z</time>
      </trkpt>
      <trkpt lat="46.71533" lon="5.73498">
        <ele>575.5</ele>
        <time>2021-03-04T13:25:51Z</time>
      </trkpt>
      <trkpt lat="46.71537" lon="5.735">
        <ele>574.9</ele>
        <time>2021-03-04T13:26:00Z</time>
      </trkpt>
      <trkpt lat="46.71542" lon="5.73499">
        <ele>574.4</ele>
        <time>2021-03-04T13:26:06Z</time>
      </trkpt>
      <trkpt lat="46.71547" lon="5.73498">
        <ele>573.5</ele>
        <time>2021-03-04T13:26:12Z</time>
      </trkpt>
      <trkpt lat="46.71552" lon="5.73496">
        <ele>572.6</ele>
        <time>2021-03-04T13:26:18Z</time>
      </trkpt>
      <trkpt lat="46.71557" lon="5.73495">
        <ele>571.7</ele>
        <time>2021-03-04T13:26:23Z</time>
      </trkpt>
      <trkpt lat="46.71561" lon="5.73494">
        <ele>570.9</ele>
        <time>2021-03-04T13:26:27Z</time>
      </trkpt>
      <trkpt lat="46.71566" lon="5.73493">
        <ele>570</ele>
        <time>2021-03-04T13:26:31Z</time>
      </trkpt>
      <trkpt lat="46.71571" lon="5.73493">
        <ele>569.1</ele>
        <time>2021-03-04T13:26:35Z</time>
      </trkpt>
      <trkpt lat="46.71576" lon="5.73493">
        <ele>568.1</ele>
        <time>2021-03-04T13:26:40Z</time>
      </trkpt>
      <trkpt lat="46.71581" lon="5.73494">
        <ele>567.4</ele>
        <time>2021-03-04T13:26:45Z</time>
      </trkpt>
      <trkpt lat="46.71586" lon="5.73495">
        <ele>566.6</ele>
        <time>2021-03-04T13:26:50Z</time>
      </trkpt>
      <trkpt lat="46.7159" lon="5.73495">
        <ele>566.3</ele>
        <time>2021-03-04T13:26:56Z</time>
      </trkpt>
      <trkpt lat="46.71595" lon="5.73497">
        <ele>566</ele>
        <time>2021-03-04T13:27:01Z</time>
      </trkpt>
      <trkpt lat="46.716" lon="5.73499">
        <ele>565.2</ele>
        <time>2021-03-04T13:27:07Z</time>
      </trkpt>
      <trkpt lat="46.71605" lon="5.73503">
        <ele>563.9</ele>
        <time>2021-03-04T13:27:14Z</time>
      </trkpt>
      <trkpt lat="46.71609" lon="5.73509">
        <ele>563.1</ele>
        <time>2021-03-04T13:27:19Z</time>
      </trkpt>
      <trkpt lat="46.71613" lon="5.73513">
        <ele>562.5</ele>
        <time>2021-03-04T13:27:24Z</time>
      </trkpt>
      <trkpt lat="46.71617" lon="5.73518">
        <ele>562.2</ele>
        <time>2021-03-04T13:27:29Z</time>
      </trkpt>
      <trkpt lat="46.71621" lon="5.73523">
        <ele>561.9</ele>
        <time>2021-03-04T13:27:34Z</time>
      </trkpt>
      <trkpt lat="46.71626" lon="5.73528">
        <ele>561.6</ele>
        <time>2021-03-04T13:27:40Z</time>
      </trkpt>
      <trkpt lat="46.7163" lon="5.7353">
        <ele>561.1</ele>
        <time>2021-03-04T13:27:48Z</time>
      </trkpt>
      <trkpt lat="46.71634" lon="5.73534">
        <ele>561.5</ele>
        <time>2021-03-04T13:27:54Z</time>
      </trkpt>
      <trkpt lat="46.71637" lon="5.73539">
        <ele>562.2</ele>
        <time>2021-03-04T13:28:00Z</time>
      </trkpt>
      <trkpt lat="46.71641" lon="5.73543">
        <ele>562.3</ele>
        <time>2021-03-04T13:28:06Z</time>
      </trkpt>
      <trkpt lat="46.71646" lon="5.73546">
        <ele>562.1</ele>
        <time>2021-03-04T13:28:10Z</time>
      </trkpt>
      <trkpt lat="46.71649" lon="5.73549">
        <ele>561.7</ele>
        <time>2021-03-04T13:28:15Z</time>
      </trkpt>
      <trkpt lat="46.71653" lon="5.73553">
        <ele>561.7</ele>
        <time>2021-03-04T13:28:20Z</time>
      </trkpt>
      <trkpt lat="46.71658" lon="5.73556">
        <ele>561.8</ele>
        <time>2021-03-04T13:28:28Z</time>
      </trkpt>
      <trkpt lat="46.71661" lon="5.73561">
        <ele>563.7</ele>
        <time>2021-03-04T13:29:38Z</time>
      </trkpt>
      <trkpt lat="46.71664" lon="5.73567">
        <ele>564.6</ele>
        <time>2021-03-04T13:29:50Z</time>
      </trkpt>
      <trkpt lat="46.71668" lon="5.73572">
        <ele>564.8</ele>
        <time>2021-03-04T13:29:54Z</time>
      </trkpt>
      <trkpt lat="46.71673" lon="5.73575">
        <ele>565.1</ele>
        <time>2021-03-04T13:29:58Z</time>
      </trkpt>
      <trkpt lat="46.71678" lon="5.73578">
        <ele>565.7</ele>
        <time>2021-03-04T13:30:02Z</time>
      </trkpt>
      <trkpt lat="46.71682" lon="5.73581">
        <ele>566.3</ele>
        <time>2021-03-04T13:30:06Z</time>
      </trkpt>
      <trkpt lat="46.71687" lon="5.73585">
        <ele>567</ele>
        <time>2021-03-04T13:30:12Z</time>
      </trkpt>
      <trkpt lat="46.71691" lon="5.73587">
        <ele>567.4</ele>
        <time>2021-03-04T13:30:17Z</time>
      </trkpt>
      <trkpt lat="46.71696" lon="5.7359">
        <ele>567.5</ele>
        <time>2021-03-04T13:30:22Z</time>
      </trkpt>
      <trkpt lat="46.71701" lon="5.73593">
        <ele>567.7</ele>
        <time>2021-03-04T13:30:26Z</time>
      </trkpt>
      <trkpt lat="46.71705" lon="5.73596">
        <ele>568.2</ele>
        <time>2021-03-04T13:30:30Z</time>
      </trkpt>
      <trkpt lat="46.71709" lon="5.73598">
        <ele>568.8</ele>
        <time>2021-03-04T13:30:34Z</time>
      </trkpt>
      <trkpt lat="46.71714" lon="5.736">
        <ele>569.4</ele>
        <time>2021-03-04T13:30:39Z</time>
      </trkpt>
      <trkpt lat="46.71719" lon="5.73602">
        <ele>570</ele>
        <time>2021-03-04T13:30:45Z</time>
      </trkpt>
      <trkpt lat="46.71724" lon="5.73603">
        <ele>570.4</ele>
        <time>2021-03-04T13:30:50Z</time>
      </trkpt>
      <trkpt lat="46.71729" lon="5.73605">
        <ele>571.2</ele>
        <time>2021-03-04T13:30:56Z</time>
      </trkpt>
      <trkpt lat="46.71733" lon="5.73609">
        <ele>572</ele>
        <time>2021-03-04T13:31:03Z</time>
      </trkpt>
      <trkpt lat="46.71738" lon="5.73614">
        <ele>572.3</ele>
        <time>2021-03-04T13:31:08Z</time>
      </trkpt>
      <trkpt lat="46.71741" lon="5.73619">
        <ele>572.9</ele>
        <time>2021-03-04T13:31:13Z</time>
      </trkpt>
      <trkpt lat="46.71743" lon="5.73625">
        <ele>573.5</ele>
        <time>2021-03-04T13:31:17Z</time>
      </trkpt>
      <trkpt lat="46.71746" lon="5.73631">
        <ele>574.1</ele>
        <time>2021-03-04T13:31:21Z</time>
      </trkpt>
      <trkpt lat="46.71749" lon="5.73637">
        <ele>574.7</ele>
        <time>2021-03-04T13:31:26Z</time>
      </trkpt>
      <trkpt lat="46.71752" lon="5.73645">
        <ele>575</ele>
        <time>2021-03-04T13:31:31Z</time>
      </trkpt>
      <trkpt lat="46.71754" lon="5.73652">
        <ele>575</ele>
        <time>2021-03-04T13:31:36Z</time>
      </trkpt>
      <trkpt lat="46.71757" lon="5.73657">
        <ele>574.8</ele>
        <time>2021-03-04T13:31:41Z</time>
      </trkpt>
      <trkpt lat="46.71761" lon="5.7366">
        <ele>574.2</ele>
        <time>2021-03-04T13:31:46Z</time>
      </trkpt>
      <trkpt lat="46.71765" lon="5.73664">
        <ele>573.7</ele>
        <time>2021-03-04T13:31:50Z</time>
      </trkpt>
      <trkpt lat="46.71769" lon="5.73668">
        <ele>573.1</ele>
        <time>2021-03-04T13:31:55Z</time>
      </trkpt>
      <trkpt lat="46.71773" lon="5.73672">
        <ele>572.7</ele>
        <time>2021-03-04T13:31:59Z</time>
      </trkpt>
      <trkpt lat="46.71777" lon="5.73675">
        <ele>572.3</ele>
        <time>2021-03-04T13:32:04Z</time>
      </trkpt>
      <trkpt lat="46.71782" lon="5.73677">
        <ele>572.4</ele>
        <time>2021-03-04T13:32:10Z</time>
      </trkpt>
      <trkpt lat="46.71786" lon="5.73679">
        <ele>572.4</ele>
        <time>2021-03-04T13:32:15Z</time>
      </trkpt>
      <trkpt lat="46.71791" lon="5.73681">
        <ele>572.5</ele>
        <time>2021-03-04T13:32:20Z</time>
      </trkpt>
      <trkpt lat="46.71796" lon="5.73683">
        <ele>572.5</ele>
        <time>2021-03-04T13:32:25Z</time>
      </trkpt>
      <trkpt lat="46.71801" lon="5.73686">
        <ele>572.6</ele>
        <time>2021-03-04T13:32:30Z</time>
      </trkpt>
      <trkpt lat="46.71806" lon="5.73688">
        <ele>572.9</ele>
        <time>2021-03-04T13:32:35Z</time>
      </trkpt>
      <trkpt lat="46.71811" lon="5.73691">
        <ele>573.1</ele>
        <time>2021-03-04T13:32:39Z</time>
      </trkpt>
      <trkpt lat="46.71816" lon="5.73693">
        <ele>573.2</ele>
        <time>2021-03-04T13:32:43Z</time>
      </trkpt>
      <trkpt lat="46.71821" lon="5.73695">
        <ele>573.4</ele>
        <time>2021-03-04T13:32:48Z</time>
      </trkpt>
      <trkpt lat="46.71826" lon="5.73698">
        <ele>573.6</ele>
        <time>2021-03-04T13:32:53Z</time>
      </trkpt>
      <trkpt lat="46.71831" lon="5.737">
        <ele>573.4</ele>
        <time>2021-03-04T13:32:57Z</time>
      </trkpt>
      <trkpt lat="46.71836" lon="5.73703">
        <ele>573.3</ele>
        <time>2021-03-04T13:33:01Z</time>
      </trkpt>
      <trkpt lat="46.7184" lon="5.73705">
        <ele>573.2</ele>
        <time>2021-03-04T13:33:05Z</time>
      </trkpt>
      <trkpt lat="46.71844" lon="5.73709">
        <ele>573.3</ele>
        <time>2021-03-04T13:33:10Z</time>
      </trkpt>
      <trkpt lat="46.71848" lon="5.73714">
        <ele>573.5</ele>
        <time>2021-03-04T13:33:16Z</time>
      </trkpt>
      <trkpt lat="46.71852" lon="5.73718">
        <ele>573.8</ele>
        <time>2021-03-04T13:33:21Z</time>
      </trkpt>
      <trkpt lat="46.71856" lon="5.73721">
        <ele>574.3</ele>
        <time>2021-03-04T13:33:26Z</time>
      </trkpt>
      <trkpt lat="46.71861" lon="5.73724">
        <ele>574.7</ele>
        <time>2021-03-04T13:33:32Z</time>
      </trkpt>
      <trkpt lat="46.71865" lon="5.73729">
        <ele>574.8</ele>
        <time>2021-03-04T13:33:38Z</time>
      </trkpt>
      <trkpt lat="46.7187" lon="5.73733">
        <ele>574.9</ele>
        <time>2021-03-04T13:33:43Z</time>
      </trkpt>
      <trkpt lat="46.71874" lon="5.73737">
        <ele>575</ele>
        <time>2021-03-04T13:33:49Z</time>
      </trkpt>
      <trkpt lat="46.71879" lon="5.7374">
        <ele>575.1</ele>
        <time>2021-03-04T13:33:54Z</time>
      </trkpt>
      <trkpt lat="46.71883" lon="5.73743">
        <ele>575.1</ele>
        <time>2021-03-04T13:33:58Z</time>
      </trkpt>
      <trkpt lat="46.71888" lon="5.73745">
        <ele>575.2</ele>
        <time>2021-03-04T13:34:02Z</time>
      </trkpt>
      <trkpt lat="46.71892" lon="5.73747">
        <ele>575.3</ele>
        <time>2021-03-04T13:34:06Z</time>
      </trkpt>
      <trkpt lat="46.71897" lon="5.73752">
        <ele>575.2</ele>
        <time>2021-03-04T13:34:11Z</time>
      </trkpt>
      <trkpt lat="46.71902" lon="5.73755">
        <ele>575.2</ele>
        <time>2021-03-04T13:34:15Z</time>
      </trkpt>
      <trkpt lat="46.71907" lon="5.73758">
        <ele>575.2</ele>
        <time>2021-03-04T13:34:20Z</time>
      </trkpt>
      <trkpt lat="46.71911" lon="5.73762">
        <ele>575.3</ele>
        <time>2021-03-04T13:34:25Z</time>
      </trkpt>
      <trkpt lat="46.71915" lon="5.73767">
        <ele>575.4</ele>
        <time>2021-03-04T13:34:30Z</time>
      </trkpt>
      <trkpt lat="46.71919" lon="5.7377">
        <ele>575.5</ele>
        <time>2021-03-04T13:34:34Z</time>
      </trkpt>
      <trkpt lat="46.71923" lon="5.73774">
        <ele>575.4</ele>
        <time>2021-03-04T13:34:40Z</time>
      </trkpt>
      <trkpt lat="46.71926" lon="5.7378">
        <ele>575</ele>
        <time>2021-03-04T13:34:46Z</time>
      </trkpt>
      <trkpt lat="46.7193" lon="5.73785">
        <ele>574.6</ele>
        <time>2021-03-04T13:34:50Z</time>
      </trkpt>
      <trkpt lat="46.71933" lon="5.7379">
        <ele>574.3</ele>
        <time>2021-03-04T13:34:54Z</time>
      </trkpt>
      <trkpt lat="46.71937" lon="5.73795">
        <ele>574.1</ele>
        <time>2021-03-04T13:34:58Z</time>
      </trkpt>
      <trkpt lat="46.71941" lon="5.738">
        <ele>573.8</ele>
        <time>2021-03-04T13:35:02Z</time>
      </trkpt>
      <trkpt lat="46.71945" lon="5.73805">
        <ele>573.3</ele>
        <time>2021-03-04T13:35:07Z</time>
      </trkpt>
      <trkpt lat="46.71948" lon="5.73812">
        <ele>572.7</ele>
        <time>2021-03-04T13:35:13Z</time>
      </trkpt>
      <trkpt lat="46.71951" lon="5.73818">
        <ele>572</ele>
        <time>2021-03-04T13:35:19Z</time>
      </trkpt>
      <trkpt lat="46.71955" lon="5.73823">
        <ele>571.6</ele>
        <time>2021-03-04T13:35:25Z</time>
      </trkpt>
      <trkpt lat="46.71957" lon="5.73829">
        <ele>571.4</ele>
        <time>2021-03-04T13:35:30Z</time>
      </trkpt>
      <trkpt lat="46.7196" lon="5.73835">
        <ele>571.2</ele>
        <time>2021-03-04T13:35:35Z</time>
      </trkpt>
      <trkpt lat="46.71964" lon="5.7384">
        <ele>570.8</ele>
        <time>2021-03-04T13:35:41Z</time>
      </trkpt>
      <trkpt lat="46.71968" lon="5.73846">
        <ele>570.4</ele>
        <time>2021-03-04T13:35:46Z</time>
      </trkpt>
      <trkpt lat="46.7197" lon="5.73851">
        <ele>570</ele>
        <time>2021-03-04T13:35:52Z</time>
      </trkpt>
      <trkpt lat="46.71975" lon="5.73856">
        <ele>569.3</ele>
        <time>2021-03-04T13:35:57Z</time>
      </trkpt>
      <trkpt lat="46.71979" lon="5.73861">
        <ele>568.5</ele>
        <time>2021-03-04T13:36:01Z</time>
      </trkpt>
      <trkpt lat="46.71982" lon="5.73866">
        <ele>567.5</ele>
        <time>2021-03-04T13:36:06Z</time>
      </trkpt>
      <trkpt lat="46.71986" lon="5.73871">
        <ele>566.8</ele>
        <time>2021-03-04T13:36:11Z</time>
      </trkpt>
      <trkpt lat="46.7199" lon="5.73876">
        <ele>566.2</ele>
        <time>2021-03-04T13:36:16Z</time>
      </trkpt>
      <trkpt lat="46.71994" lon="5.73881">
        <ele>565.4</ele>
        <time>2021-03-04T13:36:21Z</time>
      </trkpt>
      <trkpt lat="46.71998" lon="5.73886">
        <ele>564.7</ele>
        <time>2021-03-04T13:36:26Z</time>
      </trkpt>
      <trkpt lat="46.72001" lon="5.73891">
        <ele>564.1</ele>
        <time>2021-03-04T13:36:32Z</time>
      </trkpt>
      <trkpt lat="46.72004" lon="5.73897">
        <ele>563.5</ele>
        <time>2021-03-04T13:36:38Z</time>
      </trkpt>
      <trkpt lat="46.72009" lon="5.73901">
        <ele>562.8</ele>
        <time>2021-03-04T13:36:44Z</time>
      </trkpt>
      <trkpt lat="46.72013" lon="5.73905">
        <ele>562.3</ele>
        <time>2021-03-04T13:36:49Z</time>
      </trkpt>
      <trkpt lat="46.72017" lon="5.7391">
        <ele>561.6</ele>
        <time>2021-03-04T13:36:54Z</time>
      </trkpt>
      <trkpt lat="46.72021" lon="5.73915">
        <ele>560.9</ele>
        <time>2021-03-04T13:36:59Z</time>
      </trkpt>
      <trkpt lat="46.72023" lon="5.7392">
        <ele>560.3</ele>
        <time>2021-03-04T13:37:04Z</time>
      </trkpt>
      <trkpt lat="46.72027" lon="5.73926">
        <ele>559.8</ele>
        <time>2021-03-04T13:37:09Z</time>
      </trkpt>
      <trkpt lat="46.72031" lon="5.73931">
        <ele>559.5</ele>
        <time>2021-03-04T13:37:13Z</time>
      </trkpt>
      <trkpt lat="46.72037" lon="5.73937">
        <ele>561.6</ele>
        <time>2021-03-04T13:37:30Z</time>
      </trkpt>
      <trkpt lat="46.72041" lon="5.7394">
        <ele>564</ele>
        <time>2021-03-04T13:37:34Z</time>
      </trkpt>
      <trkpt lat="46.72047" lon="5.73943">
        <ele>568.4</ele>
        <time>2021-03-04T13:38:13Z</time>
      </trkpt>
      <trkpt lat="46.72052" lon="5.73945">
        <ele>569.8</ele>
        <time>2021-03-04T13:38:18Z</time>
      </trkpt>
      <trkpt lat="46.72057" lon="5.73946">
        <ele>570.9</ele>
        <time>2021-03-04T13:38:23Z</time>
      </trkpt>
      <trkpt lat="46.72062" lon="5.73945">
        <ele>571.5</ele>
        <time>2021-03-04T13:38:27Z</time>
      </trkpt>
      <trkpt lat="46.72067" lon="5.73944">
        <ele>571.6</ele>
        <time>2021-03-04T13:38:31Z</time>
      </trkpt>
      <trkpt lat="46.72072" lon="5.73944">
        <ele>572</ele>
        <time>2021-03-04T13:38:37Z</time>
      </trkpt>
      <trkpt lat="46.72077" lon="5.73943">
        <ele>571.6</ele>
        <time>2021-03-04T13:38:44Z</time>
      </trkpt>
      <trkpt lat="46.72081" lon="5.73941">
        <ele>571</ele>
        <time>2021-03-04T13:38:49Z</time>
      </trkpt>
      <trkpt lat="46.72086" lon="5.73941">
        <ele>570.5</ele>
        <time>2021-03-04T13:38:53Z</time>
      </trkpt>
      <trkpt lat="46.72091" lon="5.73941">
        <ele>569.9</ele>
        <time>2021-03-04T13:38:57Z</time>
      </trkpt>
      <trkpt lat="46.72095" lon="5.73941">
        <ele>569.4</ele>
        <time>2021-03-04T13:39:01Z</time>
      </trkpt>
      <trkpt lat="46.721" lon="5.7394">
        <ele>568.8</ele>
        <time>2021-03-04T13:39:06Z</time>
      </trkpt>
      <trkpt lat="46.72105" lon="5.73939">
        <ele>567.9</ele>
        <time>2021-03-04T13:39:12Z</time>
      </trkpt>
      <trkpt lat="46.72109" lon="5.73938">
        <ele>566.4</ele>
        <time>2021-03-04T13:39:20Z</time>
      </trkpt>
      <trkpt lat="46.72114" lon="5.73938">
        <ele>565</ele>
        <time>2021-03-04T13:39:29Z</time>
      </trkpt>
      <trkpt lat="46.72119" lon="5.73939">
        <ele>564.3</ele>
        <time>2021-03-04T13:39:34Z</time>
      </trkpt>
      <trkpt lat="46.72124" lon="5.7394">
        <ele>563.7</ele>
        <time>2021-03-04T13:39:38Z</time>
      </trkpt>
      <trkpt lat="46.72128" lon="5.7394">
        <ele>563</ele>
        <time>2021-03-04T13:39:44Z</time>
      </trkpt>
      <trkpt lat="46.72133" lon="5.73939">
        <ele>562.9</ele>
        <time>2021-03-04T13:39:53Z</time>
      </trkpt>
      <trkpt lat="46.72139" lon="5.73935">
        <ele>567.5</ele>
        <time>2021-03-04T13:44:49Z</time>
      </trkpt>
      <trkpt lat="46.72142" lon="5.73931">
        <ele>571.4</ele>
        <time>2021-03-04T13:44:54Z</time>
      </trkpt>
      <trkpt lat="46.72146" lon="5.73935">
        <ele>574.9</ele>
        <time>2021-03-04T13:45:22Z</time>
      </trkpt>
      <trkpt lat="46.7215" lon="5.73938">
        <ele>574.5</ele>
        <time>2021-03-04T13:45:28Z</time>
      </trkpt>
      <trkpt lat="46.72155" lon="5.73939">
        <ele>573.8</ele>
        <time>2021-03-04T13:45:34Z</time>
      </trkpt>
      <trkpt lat="46.7216" lon="5.73942">
        <ele>573.1</ele>
        <time>2021-03-04T13:45:39Z</time>
      </trkpt>
      <trkpt lat="46.72165" lon="5.73945">
        <ele>572.5</ele>
        <time>2021-03-04T13:45:44Z</time>
      </trkpt>
      <trkpt lat="46.72169" lon="5.73947">
        <ele>572.1</ele>
        <time>2021-03-04T13:45:48Z</time>
      </trkpt>
      <trkpt lat="46.72174" lon="5.73949">
        <ele>571.7</ele>
        <time>2021-03-04T13:45:52Z</time>
      </trkpt>
      <trkpt lat="46.72179" lon="5.7395">
        <ele>571.1</ele>
        <time>2021-03-04T13:45:57Z</time>
      </trkpt>
      <trkpt lat="46.72184" lon="5.73949">
        <ele>570.6</ele>
        <time>2021-03-04T13:46:01Z</time>
      </trkpt>
      <trkpt lat="46.72188" lon="5.73947">
        <ele>570.2</ele>
        <time>2021-03-04T13:46:05Z</time>
      </trkpt>
      <trkpt lat="46.72193" lon="5.73945">
        <ele>569.8</ele>
        <time>2021-03-04T13:46:09Z</time>
      </trkpt>
      <trkpt lat="46.72198" lon="5.73943">
        <ele>569.4</ele>
        <time>2021-03-04T13:46:13Z</time>
      </trkpt>
      <trkpt lat="46.72203" lon="5.73941">
        <ele>568.9</ele>
        <time>2021-03-04T13:46:18Z</time>
      </trkpt>
      <trkpt lat="46.72208" lon="5.73939">
        <ele>568.3</ele>
        <time>2021-03-04T13:46:23Z</time>
      </trkpt>
      <trkpt lat="46.72213" lon="5.73939">
        <ele>567.9</ele>
        <time>2021-03-04T13:46:28Z</time>
      </trkpt>
      <trkpt lat="46.72218" lon="5.7394">
        <ele>567.6</ele>
        <time>2021-03-04T13:46:32Z</time>
      </trkpt>
      <trkpt lat="46.72222" lon="5.73943">
        <ele>567.2</ele>
        <time>2021-03-04T13:46:37Z</time>
      </trkpt>
      <trkpt lat="46.72227" lon="5.73945">
        <ele>567</ele>
        <time>2021-03-04T13:46:42Z</time>
      </trkpt>
      <trkpt lat="46.72232" lon="5.73948">
        <ele>566.9</ele>
        <time>2021-03-04T13:46:46Z</time>
      </trkpt>
      <trkpt lat="46.72237" lon="5.7395">
        <ele>566.8</ele>
        <time>2021-03-04T13:46:50Z</time>
      </trkpt>
      <trkpt lat="46.72242" lon="5.73954">
        <ele>566.8</ele>
        <time>2021-03-04T13:46:54Z</time>
      </trkpt>
      <trkpt lat="46.72246" lon="5.73957">
        <ele>566.8</ele>
        <time>2021-03-04T13:46:58Z</time>
      </trkpt>
      <trkpt lat="46.72251" lon="5.73959">
        <ele>566.7</ele>
        <time>2021-03-04T13:47:03Z</time>
      </trkpt>
      <trkpt lat="46.72257" lon="5.73961">
        <ele>566.6</ele>
        <time>2021-03-04T13:47:08Z</time>
      </trkpt>
      <trkpt lat="46.72261" lon="5.73963">
        <ele>566.7</ele>
        <time>2021-03-04T13:47:12Z</time>
      </trkpt>
      <trkpt lat="46.72266" lon="5.73964">
        <ele>566.8</ele>
        <time>2021-03-04T13:47:17Z</time>
      </trkpt>
      <trkpt lat="46.72271" lon="5.73965">
        <ele>566.9</ele>
        <time>2021-03-04T13:47:23Z</time>
      </trkpt>
      <trkpt lat="46.72277" lon="5.73965">
        <ele>566.9</ele>
        <time>2021-03-04T13:47:28Z</time>
      </trkpt>
      <trkpt lat="46.72281" lon="5.73967">
        <ele>566.9</ele>
        <time>2021-03-04T13:47:32Z</time>
      </trkpt>
      <trkpt lat="46.72287" lon="5.73969">
        <ele>566.9</ele>
        <time>2021-03-04T13:47:36Z</time>
      </trkpt>
      <trkpt lat="46.72292" lon="5.73972">
        <ele>566.9</ele>
        <time>2021-03-04T13:47:40Z</time>
      </trkpt>
      <trkpt lat="46.72296" lon="5.73976">
        <ele>567.1</ele>
        <time>2021-03-04T13:47:44Z</time>
      </trkpt>
      <trkpt lat="46.72301" lon="5.7398">
        <ele>567.4</ele>
        <time>2021-03-04T13:47:48Z</time>
      </trkpt>
      <trkpt lat="46.72304" lon="5.73986">
        <ele>567.6</ele>
        <time>2021-03-04T13:47:53Z</time>
      </trkpt>
      <trkpt lat="46.72307" lon="5.73992">
        <ele>567.7</ele>
        <time>2021-03-04T13:47:57Z</time>
      </trkpt>
      <trkpt lat="46.7231" lon="5.73997">
        <ele>567.8</ele>
        <time>2021-03-04T13:48:01Z</time>
      </trkpt>
      <trkpt lat="46.72314" lon="5.74002">
        <ele>567.9</ele>
        <time>2021-03-04T13:48:05Z</time>
      </trkpt>
      <trkpt lat="46.72317" lon="5.74007">
        <ele>568.1</ele>
        <time>2021-03-04T13:48:09Z</time>
      </trkpt>
      <trkpt lat="46.7232" lon="5.74013">
        <ele>568.7</ele>
        <time>2021-03-04T13:48:14Z</time>
      </trkpt>
      <trkpt lat="46.72323" lon="5.74018">
        <ele>569</ele>
        <time>2021-03-04T13:48:18Z</time>
      </trkpt>
      <trkpt lat="46.72326" lon="5.74024">
        <ele>569.2</ele>
        <time>2021-03-04T13:48:23Z</time>
      </trkpt>
      <trkpt lat="46.72327" lon="5.7403">
        <ele>569.4</ele>
        <time>2021-03-04T13:48:28Z</time>
      </trkpt>
      <trkpt lat="46.7233" lon="5.74036">
        <ele>569.3</ele>
        <time>2021-03-04T13:48:34Z</time>
      </trkpt>
      <trkpt lat="46.72333" lon="5.74042">
        <ele>569.5</ele>
        <time>2021-03-04T13:48:40Z</time>
      </trkpt>
      <trkpt lat="46.72335" lon="5.74049">
        <ele>569.6</ele>
        <time>2021-03-04T13:48:46Z</time>
      </trkpt>
      <trkpt lat="46.72338" lon="5.74055">
        <ele>569.8</ele>
        <time>2021-03-04T13:48:52Z</time>
      </trkpt>
      <trkpt lat="46.72341" lon="5.74061">
        <ele>569.7</ele>
        <time>2021-03-04T13:48:59Z</time>
      </trkpt>
      <trkpt lat="46.72345" lon="5.74066">
        <ele>569.3</ele>
        <time>2021-03-04T13:49:04Z</time>
      </trkpt>
      <trkpt lat="46.72348" lon="5.74071">
        <ele>569</ele>
        <time>2021-03-04T13:49:09Z</time>
      </trkpt>
      <trkpt lat="46.72352" lon="5.74077">
        <ele>568.8</ele>
        <time>2021-03-04T13:49:14Z</time>
      </trkpt>
      <trkpt lat="46.72355" lon="5.74082">
        <ele>568.5</ele>
        <time>2021-03-04T13:49:19Z</time>
      </trkpt>
      <trkpt lat="46.72359" lon="5.74086">
        <ele>568.3</ele>
        <time>2021-03-04T13:49:24Z</time>
      </trkpt>
      <trkpt lat="46.72363" lon="5.7409">
        <ele>568.1</ele>
        <time>2021-03-04T13:49:28Z</time>
      </trkpt>
      <trkpt lat="46.72367" lon="5.74095">
        <ele>567.7</ele>
        <time>2021-03-04T13:49:33Z</time>
      </trkpt>
      <trkpt lat="46.72371" lon="5.74099">
        <ele>567.5</ele>
        <time>2021-03-04T13:49:37Z</time>
      </trkpt>
      <trkpt lat="46.72375" lon="5.74104">
        <ele>567</ele>
        <time>2021-03-04T13:49:42Z</time>
      </trkpt>
      <trkpt lat="46.72378" lon="5.7411">
        <ele>566.3</ele>
        <time>2021-03-04T13:49:47Z</time>
      </trkpt>
      <trkpt lat="46.72381" lon="5.74116">
        <ele>565.7</ele>
        <time>2021-03-04T13:49:53Z</time>
      </trkpt>
      <trkpt lat="46.72386" lon="5.74116">
        <ele>565.5</ele>
        <time>2021-03-04T13:49:59Z</time>
      </trkpt>
      <trkpt lat="46.72391" lon="5.74116">
        <ele>565.2</ele>
        <time>2021-03-04T13:50:08Z</time>
      </trkpt>
      <trkpt lat="46.72396" lon="5.74119">
        <ele>565.9</ele>
        <time>2021-03-04T13:50:14Z</time>
      </trkpt>
      <trkpt lat="46.724" lon="5.74121">
        <ele>566.8</ele>
        <time>2021-03-04T13:50:19Z</time>
      </trkpt>
      <trkpt lat="46.72404" lon="5.74126">
        <ele>568</ele>
        <time>2021-03-04T13:50:25Z</time>
      </trkpt>
      <trkpt lat="46.72407" lon="5.74131">
        <ele>569</ele>
        <time>2021-03-04T13:50:30Z</time>
      </trkpt>
      <trkpt lat="46.72411" lon="5.74135">
        <ele>569.9</ele>
        <time>2021-03-04T13:50:35Z</time>
      </trkpt>
      <trkpt lat="46.72415" lon="5.74139">
        <ele>570.7</ele>
        <time>2021-03-04T13:50:41Z</time>
      </trkpt>
      <trkpt lat="46.72419" lon="5.74144">
        <ele>571.6</ele>
        <time>2021-03-04T13:50:47Z</time>
      </trkpt>
      <trkpt lat="46.72424" lon="5.74148">
        <ele>572.3</ele>
        <time>2021-03-04T13:50:52Z</time>
      </trkpt>
      <trkpt lat="46.72428" lon="5.74152">
        <ele>573</ele>
        <time>2021-03-04T13:50:56Z</time>
      </trkpt>
      <trkpt lat="46.72432" lon="5.74157">
        <ele>573.8</ele>
        <time>2021-03-04T13:51:00Z</time>
      </trkpt>
      <trkpt lat="46.72436" lon="5.74162">
        <ele>574.6</ele>
        <time>2021-03-04T13:51:05Z</time>
      </trkpt>
      <trkpt lat="46.72439" lon="5.74168">
        <ele>575.2</ele>
        <time>2021-03-04T13:51:11Z</time>
      </trkpt>
      <trkpt lat="46.72443" lon="5.74173">
        <ele>575.5</ele>
        <time>2021-03-04T13:51:16Z</time>
      </trkpt>
      <trkpt lat="46.72447" lon="5.74178">
        <ele>575.8</ele>
        <time>2021-03-04T13:51:21Z</time>
      </trkpt>
      <trkpt lat="46.72451" lon="5.74182">
        <ele>576.2</ele>
        <time>2021-03-04T13:51:26Z</time>
      </trkpt>
      <trkpt lat="46.72455" lon="5.74185">
        <ele>576.4</ele>
        <time>2021-03-04T13:51:31Z</time>
      </trkpt>
      <trkpt lat="46.72459" lon="5.7419">
        <ele>576.7</ele>
        <time>2021-03-04T13:51:36Z</time>
      </trkpt>
      <trkpt lat="46.72461" lon="5.74197">
        <ele>577</ele>
        <time>2021-03-04T13:51:42Z</time>
      </trkpt>
      <trkpt lat="46.72464" lon="5.74203">
        <ele>577.2</ele>
        <time>2021-03-04T13:51:47Z</time>
      </trkpt>
      <trkpt lat="46.72467" lon="5.74208">
        <ele>577.4</ele>
        <time>2021-03-04T13:51:52Z</time>
      </trkpt>
      <trkpt lat="46.72471" lon="5.74214">
        <ele>577.5</ele>
        <time>2021-03-04T13:51:57Z</time>
      </trkpt>
      <trkpt lat="46.72475" lon="5.74219">
        <ele>577.6</ele>
        <time>2021-03-04T13:52:02Z</time>
      </trkpt>
      <trkpt lat="46.7248" lon="5.74223">
        <ele>577.6</ele>
        <time>2021-03-04T13:52:06Z</time>
      </trkpt>
      <trkpt lat="46.72484" lon="5.74228">
        <ele>577</ele>
        <time>2021-03-04T13:52:11Z</time>
      </trkpt>
      <trkpt lat="46.72489" lon="5.74233">
        <ele>576.4</ele>
        <time>2021-03-04T13:52:15Z</time>
      </trkpt>
      <trkpt lat="46.72493" lon="5.74238">
        <ele>576</ele>
        <time>2021-03-04T13:52:19Z</time>
      </trkpt>
      <trkpt lat="46.72496" lon="5.74243">
        <ele>575.6</ele>
        <time>2021-03-04T13:52:23Z</time>
      </trkpt>
      <trkpt lat="46.725" lon="5.74248">
        <ele>574.9</ele>
        <time>2021-03-04T13:52:27Z</time>
      </trkpt>
      <trkpt lat="46.72504" lon="5.74252">
        <ele>574.4</ele>
        <time>2021-03-04T13:52:31Z</time>
      </trkpt>
      <trkpt lat="46.72509" lon="5.74255">
        <ele>574.2</ele>
        <time>2021-03-04T13:52:35Z</time>
      </trkpt>
      <trkpt lat="46.72513" lon="5.74259">
        <ele>574</ele>
        <time>2021-03-04T13:52:40Z</time>
      </trkpt>
      <trkpt lat="46.72516" lon="5.74265">
        <ele>574.1</ele>
        <time>2021-03-04T13:52:44Z</time>
      </trkpt>
      <trkpt lat="46.72519" lon="5.74272">
        <ele>574.4</ele>
        <time>2021-03-04T13:52:48Z</time>
      </trkpt>
      <trkpt lat="46.72521" lon="5.74278">
        <ele>574.8</ele>
        <time>2021-03-04T13:52:52Z</time>
      </trkpt>
      <trkpt lat="46.72524" lon="5.74283">
        <ele>575.1</ele>
        <time>2021-03-04T13:52:57Z</time>
      </trkpt>
      <trkpt lat="46.72527" lon="5.74289">
        <ele>575.2</ele>
        <time>2021-03-04T13:53:02Z</time>
      </trkpt>
      <trkpt lat="46.72531" lon="5.74294">
        <ele>575.3</ele>
        <time>2021-03-04T13:53:06Z</time>
      </trkpt>
      <trkpt lat="46.72535" lon="5.74298">
        <ele>575.3</ele>
        <time>2021-03-04T13:53:11Z</time>
      </trkpt>
      <trkpt lat="46.72539" lon="5.74303">
        <ele>574.8</ele>
        <time>2021-03-04T13:53:16Z</time>
      </trkpt>
      <trkpt lat="46.72544" lon="5.74307">
        <ele>574.4</ele>
        <time>2021-03-04T13:53:20Z</time>
      </trkpt>
      <trkpt lat="46.72548" lon="5.74311">
        <ele>573.9</ele>
        <time>2021-03-04T13:53:25Z</time>
      </trkpt>
      <trkpt lat="46.72551" lon="5.74316">
        <ele>573.2</ele>
        <time>2021-03-04T13:53:29Z</time>
      </trkpt>
      <trkpt lat="46.72556" lon="5.74319">
        <ele>572.6</ele>
        <time>2021-03-04T13:53:34Z</time>
      </trkpt>
      <trkpt lat="46.72562" lon="5.74322">
        <ele>572.6</ele>
        <time>2021-03-04T13:53:38Z</time>
      </trkpt>
      <trkpt lat="46.72567" lon="5.74326">
        <ele>572.5</ele>
        <time>2021-03-04T13:53:42Z</time>
      </trkpt>
      <trkpt lat="46.72571" lon="5.74329">
        <ele>572.7</ele>
        <time>2021-03-04T13:53:46Z</time>
      </trkpt>
      <trkpt lat="46.72573" lon="5.74335">
        <ele>572.6</ele>
        <time>2021-03-04T13:53:51Z</time>
      </trkpt>
      <trkpt lat="46.72575" lon="5.74342">
        <ele>572.5</ele>
        <time>2021-03-04T13:53:57Z</time>
      </trkpt>
      <trkpt lat="46.72578" lon="5.74347">
        <ele>572.8</ele>
        <time>2021-03-04T13:54:03Z</time>
      </trkpt>
      <trkpt lat="46.7258" lon="5.74353">
        <ele>573.2</ele>
        <time>2021-03-04T13:54:09Z</time>
      </trkpt>
      <trkpt lat="46.72583" lon="5.74359">
        <ele>573.6</ele>
        <time>2021-03-04T13:54:15Z</time>
      </trkpt>
      <trkpt lat="46.72587" lon="5.74364">
        <ele>573.8</ele>
        <time>2021-03-04T13:54:20Z</time>
      </trkpt>
      <trkpt lat="46.72591" lon="5.74367">
        <ele>573.8</ele>
        <time>2021-03-04T13:54:24Z</time>
      </trkpt>
      <trkpt lat="46.72598" lon="5.74371">
        <ele>573.9</ele>
        <time>2021-03-04T13:54:28Z</time>
      </trkpt>
      <trkpt lat="46.72602" lon="5.74375">
        <ele>573.5</ele>
        <time>2021-03-04T13:54:32Z</time>
      </trkpt>
      <trkpt lat="46.72607" lon="5.74377">
        <ele>573</ele>
        <time>2021-03-04T13:54:37Z</time>
      </trkpt>
      <trkpt lat="46.72612" lon="5.74379">
        <ele>572.6</ele>
        <time>2021-03-04T13:54:41Z</time>
      </trkpt>
      <trkpt lat="46.72618" lon="5.7438">
        <ele>572.3</ele>
        <time>2021-03-04T13:54:45Z</time>
      </trkpt>
      <trkpt lat="46.72625" lon="5.7438">
        <ele>571.9</ele>
        <time>2021-03-04T13:54:49Z</time>
      </trkpt>
      <trkpt lat="46.7263" lon="5.7438">
        <ele>571.5</ele>
        <time>2021-03-04T13:54:53Z</time>
      </trkpt>
      <trkpt lat="46.72634" lon="5.7438">
        <ele>571.1</ele>
        <time>2021-03-04T13:54:57Z</time>
      </trkpt>
      <trkpt lat="46.72639" lon="5.74382">
        <ele>570.7</ele>
        <time>2021-03-04T13:55:02Z</time>
      </trkpt>
      <trkpt lat="46.72644" lon="5.74383">
        <ele>570.6</ele>
        <time>2021-03-04T13:55:07Z</time>
      </trkpt>
      <trkpt lat="46.7265" lon="5.74385">
        <ele>570.7</ele>
        <time>2021-03-04T13:55:12Z</time>
      </trkpt>
      <trkpt lat="46.72655" lon="5.74388">
        <ele>570.7</ele>
        <time>2021-03-04T13:55:17Z</time>
      </trkpt>
      <trkpt lat="46.72659" lon="5.74393">
        <ele>570.6</ele>
        <time>2021-03-04T13:55:22Z</time>
      </trkpt>
      <trkpt lat="46.72663" lon="5.74396">
        <ele>570.5</ele>
        <time>2021-03-04T13:55:27Z</time>
      </trkpt>
      <trkpt lat="46.72668" lon="5.74399">
        <ele>570.4</ele>
        <time>2021-03-04T13:55:33Z</time>
      </trkpt>
      <trkpt lat="46.72672" lon="5.74402">
        <ele>570.1</ele>
        <time>2021-03-04T13:55:39Z</time>
      </trkpt>
      <trkpt lat="46.72678" lon="5.74404">
        <ele>569.7</ele>
        <time>2021-03-04T13:55:44Z</time>
      </trkpt>
      <trkpt lat="46.72682" lon="5.74407">
        <ele>569.4</ele>
        <time>2021-03-04T13:55:48Z</time>
      </trkpt>
      <trkpt lat="46.72687" lon="5.74408">
        <ele>569.1</ele>
        <time>2021-03-04T13:55:52Z</time>
      </trkpt>
      <trkpt lat="46.72693" lon="5.74409">
        <ele>568.8</ele>
        <time>2021-03-04T13:55:56Z</time>
      </trkpt>
      <trkpt lat="46.72697" lon="5.7441">
        <ele>568.4</ele>
        <time>2021-03-04T13:56:00Z</time>
      </trkpt>
      <trkpt lat="46.72703" lon="5.74409">
        <ele>568.1</ele>
        <time>2021-03-04T13:56:05Z</time>
      </trkpt>
      <trkpt lat="46.72708" lon="5.74409">
        <ele>568</ele>
        <time>2021-03-04T13:56:09Z</time>
      </trkpt>
      <trkpt lat="46.72712" lon="5.74409">
        <ele>567.8</ele>
        <time>2021-03-04T13:56:13Z</time>
      </trkpt>
      <trkpt lat="46.72717" lon="5.74411">
        <ele>567.8</ele>
        <time>2021-03-04T13:56:18Z</time>
      </trkpt>
      <trkpt lat="46.72722" lon="5.74413">
        <ele>568</ele>
        <time>2021-03-04T13:56:22Z</time>
      </trkpt>
      <trkpt lat="46.72726" lon="5.74415">
        <ele>568.3</ele>
        <time>2021-03-04T13:56:26Z</time>
      </trkpt>
      <trkpt lat="46.72732" lon="5.74417">
        <ele>568.8</ele>
        <time>2021-03-04T13:56:30Z</time>
      </trkpt>
      <trkpt lat="46.72737" lon="5.74419">
        <ele>569.2</ele>
        <time>2021-03-04T13:56:35Z</time>
      </trkpt>
      <trkpt lat="46.72742" lon="5.7442">
        <ele>569.6</ele>
        <time>2021-03-04T13:56:39Z</time>
      </trkpt>
      <trkpt lat="46.72747" lon="5.74421">
        <ele>569.6</ele>
        <time>2021-03-04T13:56:43Z</time>
      </trkpt>
      <trkpt lat="46.72752" lon="5.74423">
        <ele>569.4</ele>
        <time>2021-03-04T13:56:47Z</time>
      </trkpt>
      <trkpt lat="46.72757" lon="5.74425">
        <ele>569.5</ele>
        <time>2021-03-04T13:56:51Z</time>
      </trkpt>
      <trkpt lat="46.72762" lon="5.74427">
        <ele>569</ele>
        <time>2021-03-04T13:56:55Z</time>
      </trkpt>
      <trkpt lat="46.72766" lon="5.74429">
        <ele>568.5</ele>
        <time>2021-03-04T13:56:59Z</time>
      </trkpt>
      <trkpt lat="46.72771" lon="5.7443">
        <ele>568.9</ele>
        <time>2021-03-04T13:57:03Z</time>
      </trkpt>
      <trkpt lat="46.72776" lon="5.74431">
        <ele>569.9</ele>
        <time>2021-03-04T13:57:07Z</time>
      </trkpt>
      <trkpt lat="46.72781" lon="5.74435">
        <ele>570.8</ele>
        <time>2021-03-04T13:57:11Z</time>
      </trkpt>
      <trkpt lat="46.72785" lon="5.74437">
        <ele>571.9</ele>
        <time>2021-03-04T13:57:15Z</time>
      </trkpt>
      <trkpt lat="46.72789" lon="5.74442">
        <ele>573.2</ele>
        <time>2021-03-04T13:57:23Z</time>
      </trkpt>
      <trkpt lat="46.7279" lon="5.74448">
        <ele>573.8</ele>
        <time>2021-03-04T13:57:27Z</time>
      </trkpt>
      <trkpt lat="46.72791" lon="5.74456">
        <ele>574.3</ele>
        <time>2021-03-04T13:57:32Z</time>
      </trkpt>
      <trkpt lat="46.7279" lon="5.74463">
        <ele>574.7</ele>
        <time>2021-03-04T13:57:37Z</time>
      </trkpt>
      <trkpt lat="46.72788" lon="5.74471">
        <ele>574.9</ele>
        <time>2021-03-04T13:57:41Z</time>
      </trkpt>
      <trkpt lat="46.72787" lon="5.74478">
        <ele>575.2</ele>
        <time>2021-03-04T13:57:45Z</time>
      </trkpt>
      <trkpt lat="46.72786" lon="5.74485">
        <ele>575.7</ele>
        <time>2021-03-04T13:57:49Z</time>
      </trkpt>
      <trkpt lat="46.72785" lon="5.74492">
        <ele>576</ele>
        <time>2021-03-04T13:57:54Z</time>
      </trkpt>
      <trkpt lat="46.72784" lon="5.74498">
        <ele>576</ele>
        <time>2021-03-04T13:57:58Z</time>
      </trkpt>
      <trkpt lat="46.72783" lon="5.74504">
        <ele>575.9</ele>
        <time>2021-03-04T13:58:02Z</time>
      </trkpt>
      <trkpt lat="46.72781" lon="5.74512">
        <ele>576.5</ele>
        <time>2021-03-04T13:58:06Z</time>
      </trkpt>
      <trkpt lat="46.7278" lon="5.74519">
        <ele>577.7</ele>
        <time>2021-03-04T13:58:10Z</time>
      </trkpt>
      <trkpt lat="46.72779" lon="5.74525">
        <ele>579.2</ele>
        <time>2021-03-04T13:58:14Z</time>
      </trkpt>
      <trkpt lat="46.72777" lon="5.74531">
        <ele>580.9</ele>
        <time>2021-03-04T13:58:19Z</time>
      </trkpt>
      <trkpt lat="46.72775" lon="5.74537">
        <ele>582</ele>
        <time>2021-03-04T13:58:23Z</time>
      </trkpt>
      <trkpt lat="46.72774" lon="5.74544">
        <ele>582.9</ele>
        <time>2021-03-04T13:58:27Z</time>
      </trkpt>
      <trkpt lat="46.72774" lon="5.74551">
        <ele>584</ele>
        <time>2021-03-04T13:58:31Z</time>
      </trkpt>
      <trkpt lat="46.72774" lon="5.74558">
        <ele>584.8</ele>
        <time>2021-03-04T13:58:35Z</time>
      </trkpt>
      <trkpt lat="46.72775" lon="5.74565">
        <ele>585.5</ele>
        <time>2021-03-04T13:58:39Z</time>
      </trkpt>
      <trkpt lat="46.72775" lon="5.74572">
        <ele>586</ele>
        <time>2021-03-04T13:58:43Z</time>
      </trkpt>
      <trkpt lat="46.72773" lon="5.74578">
        <ele>585.8</ele>
        <time>2021-03-04T13:58:47Z</time>
      </trkpt>
      <trkpt lat="46.72772" lon="5.74586">
        <ele>585.5</ele>
        <time>2021-03-04T13:58:52Z</time>
      </trkpt>
      <trkpt lat="46.72771" lon="5.74592">
        <ele>585.1</ele>
        <time>2021-03-04T13:58:56Z</time>
      </trkpt>
      <trkpt lat="46.7277" lon="5.74599">
        <ele>584.3</ele>
        <time>2021-03-04T13:59:00Z</time>
      </trkpt>
      <trkpt lat="46.7277" lon="5.74607">
        <ele>583</ele>
        <time>2021-03-04T13:59:05Z</time>
      </trkpt>
      <trkpt lat="46.72768" lon="5.74613">
        <ele>581.8</ele>
        <time>2021-03-04T13:59:09Z</time>
      </trkpt>
      <trkpt lat="46.72767" lon="5.7462">
        <ele>580</ele>
        <time>2021-03-04T13:59:13Z</time>
      </trkpt>
      <trkpt lat="46.72766" lon="5.74627">
        <ele>578</ele>
        <time>2021-03-04T13:59:18Z</time>
      </trkpt>
      <trkpt lat="46.72766" lon="5.74634">
        <ele>576.8</ele>
        <time>2021-03-04T13:59:22Z</time>
      </trkpt>
      <trkpt lat="46.72767" lon="5.74642">
        <ele>576.3</ele>
        <time>2021-03-04T13:59:27Z</time>
      </trkpt>
      <trkpt lat="46.72768" lon="5.7465">
        <ele>575.7</ele>
        <time>2021-03-04T13:59:32Z</time>
      </trkpt>
      <trkpt lat="46.72768" lon="5.74658">
        <ele>575.3</ele>
        <time>2021-03-04T13:59:36Z</time>
      </trkpt>
      <trkpt lat="46.72765" lon="5.74665">
        <ele>574.5</ele>
        <time>2021-03-04T13:59:40Z</time>
      </trkpt>
      <trkpt lat="46.72765" lon="5.74673">
        <ele>574</ele>
        <time>2021-03-04T13:59:44Z</time>
      </trkpt>
      <trkpt lat="46.72765" lon="5.7468">
        <ele>574</ele>
        <time>2021-03-04T13:59:48Z</time>
      </trkpt>
      <trkpt lat="46.72765" lon="5.74687">
        <ele>573.8</ele>
        <time>2021-03-04T13:59:52Z</time>
      </trkpt>
      <trkpt lat="46.72763" lon="5.74694">
        <ele>573.7</ele>
        <time>2021-03-04T13:59:56Z</time>
      </trkpt>
      <trkpt lat="46.72761" lon="5.747">
        <ele>573.8</ele>
        <time>2021-03-04T14:00:00Z</time>
      </trkpt>
      <trkpt lat="46.72759" lon="5.74707">
        <ele>574.2</ele>
        <time>2021-03-04T14:00:05Z</time>
      </trkpt>
      <trkpt lat="46.72756" lon="5.74713">
        <ele>573.7</ele>
        <time>2021-03-04T14:00:12Z</time>
      </trkpt>
      <trkpt lat="46.72754" lon="5.74719">
        <ele>573.6</ele>
        <time>2021-03-04T14:00:16Z</time>
      </trkpt>
      <trkpt lat="46.72752" lon="5.74725">
        <ele>573.4</ele>
        <time>2021-03-04T14:00:20Z</time>
      </trkpt>
      <trkpt lat="46.72748" lon="5.7473">
        <ele>573.6</ele>
        <time>2021-03-04T14:00:24Z</time>
      </trkpt>
      <trkpt lat="46.72745" lon="5.74735">
        <ele>573.5</ele>
        <time>2021-03-04T14:00:28Z</time>
      </trkpt>
      <trkpt lat="46.72742" lon="5.74741">
        <ele>573.3</ele>
        <time>2021-03-04T14:00:32Z</time>
      </trkpt>
      <trkpt lat="46.72739" lon="5.74748">
        <ele>573.2</ele>
        <time>2021-03-04T14:00:36Z</time>
      </trkpt>
      <trkpt lat="46.72736" lon="5.74753">
        <ele>572.7</ele>
        <time>2021-03-04T14:00:40Z</time>
      </trkpt>
      <trkpt lat="46.72733" lon="5.74758">
        <ele>572.2</ele>
        <time>2021-03-04T14:00:44Z</time>
      </trkpt>
      <trkpt lat="46.72729" lon="5.74764">
        <ele>572.1</ele>
        <time>2021-03-04T14:00:49Z</time>
      </trkpt>
      <trkpt lat="46.72727" lon="5.7477">
        <ele>572.8</ele>
        <time>2021-03-04T14:00:54Z</time>
      </trkpt>
      <trkpt lat="46.72724" lon="5.74777">
        <ele>573.4</ele>
        <time>2021-03-04T14:00:59Z</time>
      </trkpt>
      <trkpt lat="46.72721" lon="5.74784">
        <ele>573.9</ele>
        <time>2021-03-04T14:01:03Z</time>
      </trkpt>
      <trkpt lat="46.72719" lon="5.74791">
        <ele>574.5</ele>
        <time>2021-03-04T14:01:08Z</time>
      </trkpt>
      <trkpt lat="46.72718" lon="5.74797">
        <ele>574.9</ele>
        <time>2021-03-04T14:01:13Z</time>
      </trkpt>
      <trkpt lat="46.72717" lon="5.74805">
        <ele>575.2</ele>
        <time>2021-03-04T14:01:17Z</time>
      </trkpt>
      <trkpt lat="46.72716" lon="5.74812">
        <ele>576</ele>
        <time>2021-03-04T14:01:21Z</time>
      </trkpt>
      <trkpt lat="46.72716" lon="5.74821">
        <ele>578.1</ele>
        <time>2021-03-04T14:01:26Z</time>
      </trkpt>
      <trkpt lat="46.72717" lon="5.74828">
        <ele>580.1</ele>
        <time>2021-03-04T14:01:31Z</time>
      </trkpt>
      <trkpt lat="46.72717" lon="5.74836">
        <ele>582.1</ele>
        <time>2021-03-04T14:01:36Z</time>
      </trkpt>
      <trkpt lat="46.72717" lon="5.74844">
        <ele>584.2</ele>
        <time>2021-03-04T14:01:41Z</time>
      </trkpt>
      <trkpt lat="46.72716" lon="5.74851">
        <ele>585.5</ele>
        <time>2021-03-04T14:01:45Z</time>
      </trkpt>
      <trkpt lat="46.72717" lon="5.74858">
        <ele>586.8</ele>
        <time>2021-03-04T14:01:49Z</time>
      </trkpt>
      <trkpt lat="46.72719" lon="5.74865">
        <ele>588.1</ele>
        <time>2021-03-04T14:01:53Z</time>
      </trkpt>
      <trkpt lat="46.72722" lon="5.74872">
        <ele>589.2</ele>
        <time>2021-03-04T14:01:57Z</time>
      </trkpt>
      <trkpt lat="46.72724" lon="5.74877">
        <ele>589.9</ele>
        <time>2021-03-04T14:02:01Z</time>
      </trkpt>
      <trkpt lat="46.72726" lon="5.74884">
        <ele>590.5</ele>
        <time>2021-03-04T14:02:07Z</time>
      </trkpt>
      <trkpt lat="46.72725" lon="5.74891">
        <ele>590.1</ele>
        <time>2021-03-04T14:02:15Z</time>
      </trkpt>
      <trkpt lat="46.72721" lon="5.74896">
        <ele>590.5</ele>
        <time>2021-03-04T14:02:21Z</time>
      </trkpt>
      <trkpt lat="46.72717" lon="5.749">
        <ele>591.1</ele>
        <time>2021-03-04T14:02:25Z</time>
      </trkpt>
      <trkpt lat="46.72713" lon="5.74904">
        <ele>592</ele>
        <time>2021-03-04T14:02:31Z</time>
      </trkpt>
      <trkpt lat="46.72708" lon="5.74907">
        <ele>592.7</ele>
        <time>2021-03-04T14:02:41Z</time>
      </trkpt>
      <trkpt lat="46.72705" lon="5.74912">
        <ele>593.1</ele>
        <time>2021-03-04T14:02:45Z</time>
      </trkpt>
      <trkpt lat="46.72702" lon="5.74917">
        <ele>593.4</ele>
        <time>2021-03-04T14:02:49Z</time>
      </trkpt>
      <trkpt lat="46.72699" lon="5.74921">
        <ele>593.5</ele>
        <time>2021-03-04T14:02:53Z</time>
      </trkpt>
      <trkpt lat="46.72695" lon="5.74927">
        <ele>593.4</ele>
        <time>2021-03-04T14:02:58Z</time>
      </trkpt>
      <trkpt lat="46.72691" lon="5.74931">
        <ele>593.3</ele>
        <time>2021-03-04T14:03:02Z</time>
      </trkpt>
      <trkpt lat="46.72687" lon="5.74936">
        <ele>593.3</ele>
        <time>2021-03-04T14:03:06Z</time>
      </trkpt>
      <trkpt lat="46.72683" lon="5.7494">
        <ele>593.4</ele>
        <time>2021-03-04T14:03:10Z</time>
      </trkpt>
      <trkpt lat="46.72679" lon="5.74944">
        <ele>593.6</ele>
        <time>2021-03-04T14:03:16Z</time>
      </trkpt>
      <trkpt lat="46.72675" lon="5.74948">
        <ele>593.7</ele>
        <time>2021-03-04T14:03:21Z</time>
      </trkpt>
      <trkpt lat="46.7267" lon="5.74953">
        <ele>593.6</ele>
        <time>2021-03-04T14:03:25Z</time>
      </trkpt>
      <trkpt lat="46.72665" lon="5.74957">
        <ele>593.6</ele>
        <time>2021-03-04T14:03:29Z</time>
      </trkpt>
      <trkpt lat="46.72661" lon="5.74961">
        <ele>593.5</ele>
        <time>2021-03-04T14:03:34Z</time>
      </trkpt>
      <trkpt lat="46.72657" lon="5.74967">
        <ele>593.5</ele>
        <time>2021-03-04T14:03:39Z</time>
      </trkpt>
      <trkpt lat="46.72653" lon="5.74972">
        <ele>593.7</ele>
        <time>2021-03-04T14:03:43Z</time>
      </trkpt>
      <trkpt lat="46.72649" lon="5.74977">
        <ele>593.8</ele>
        <time>2021-03-04T14:03:47Z</time>
      </trkpt>
      <trkpt lat="46.72645" lon="5.74983">
        <ele>594</ele>
        <time>2021-03-04T14:03:51Z</time>
      </trkpt>
      <trkpt lat="46.72642" lon="5.74988">
        <ele>594</ele>
        <time>2021-03-04T14:03:55Z</time>
      </trkpt>
      <trkpt lat="46.72639" lon="5.74993">
        <ele>593.8</ele>
        <time>2021-03-04T14:04:00Z</time>
      </trkpt>
      <trkpt lat="46.72635" lon="5.74999">
        <ele>593.5</ele>
        <time>2021-03-04T14:04:04Z</time>
      </trkpt>
      <trkpt lat="46.72632" lon="5.75005">
        <ele>593.1</ele>
        <time>2021-03-04T14:04:08Z</time>
      </trkpt>
      <trkpt lat="46.72629" lon="5.75011">
        <ele>592.8</ele>
        <time>2021-03-04T14:04:12Z</time>
      </trkpt>
      <trkpt lat="46.72625" lon="5.75017">
        <ele>592.3</ele>
        <time>2021-03-04T14:04:17Z</time>
      </trkpt>
      <trkpt lat="46.72622" lon="5.75023">
        <ele>591.8</ele>
        <time>2021-03-04T14:04:23Z</time>
      </trkpt>
      <trkpt lat="46.7262" lon="5.75029">
        <ele>591.7</ele>
        <time>2021-03-04T14:04:28Z</time>
      </trkpt>
      <trkpt lat="46.72616" lon="5.75035">
        <ele>591.6</ele>
        <time>2021-03-04T14:04:33Z</time>
      </trkpt>
      <trkpt lat="46.72613" lon="5.7504">
        <ele>591.5</ele>
        <time>2021-03-04T14:04:37Z</time>
      </trkpt>
      <trkpt lat="46.72609" lon="5.75046">
        <ele>591.7</ele>
        <time>2021-03-04T14:04:41Z</time>
      </trkpt>
      <trkpt lat="46.72606" lon="5.75052">
        <ele>591.9</ele>
        <time>2021-03-04T14:04:45Z</time>
      </trkpt>
      <trkpt lat="46.72604" lon="5.75057">
        <ele>592</ele>
        <time>2021-03-04T14:04:50Z</time>
      </trkpt>
      <trkpt lat="46.72601" lon="5.75063">
        <ele>592</ele>
        <time>2021-03-04T14:04:55Z</time>
      </trkpt>
      <trkpt lat="46.72598" lon="5.75069">
        <ele>592</ele>
        <time>2021-03-04T14:05:00Z</time>
      </trkpt>
      <trkpt lat="46.72595" lon="5.75074">
        <ele>591.6</ele>
        <time>2021-03-04T14:05:04Z</time>
      </trkpt>
      <trkpt lat="46.72592" lon="5.75079">
        <ele>591.1</ele>
        <time>2021-03-04T14:05:08Z</time>
      </trkpt>
      <trkpt lat="46.72588" lon="5.75086">
        <ele>590.6</ele>
        <time>2021-03-04T14:05:12Z</time>
      </trkpt>
      <trkpt lat="46.72584" lon="5.75092">
        <ele>590</ele>
        <time>2021-03-04T14:05:16Z</time>
      </trkpt>
      <trkpt lat="46.7258" lon="5.75097">
        <ele>588.9</ele>
        <time>2021-03-04T14:05:21Z</time>
      </trkpt>
      <trkpt lat="46.72576" lon="5.751">
        <ele>585.5</ele>
        <time>2021-03-04T14:05:46Z</time>
      </trkpt>
      <trkpt lat="46.72573" lon="5.75107">
        <ele>586.1</ele>
        <time>2021-03-04T14:05:51Z</time>
      </trkpt>
      <trkpt lat="46.72569" lon="5.75112">
        <ele>586.6</ele>
        <time>2021-03-04T14:05:55Z</time>
      </trkpt>
      <trkpt lat="46.72566" lon="5.75117">
        <ele>587.4</ele>
        <time>2021-03-04T14:06:05Z</time>
      </trkpt>
      <trkpt lat="46.72562" lon="5.75121">
        <ele>587.8</ele>
        <time>2021-03-04T14:06:11Z</time>
      </trkpt>
      <trkpt lat="46.72559" lon="5.75128">
        <ele>588</ele>
        <time>2021-03-04T14:06:16Z</time>
      </trkpt>
      <trkpt lat="46.72556" lon="5.75134">
        <ele>588</ele>
        <time>2021-03-04T14:06:20Z</time>
      </trkpt>
      <trkpt lat="46.72553" lon="5.7514">
        <ele>588</ele>
        <time>2021-03-04T14:06:24Z</time>
      </trkpt>
      <trkpt lat="46.7255" lon="5.75146">
        <ele>588.1</ele>
        <time>2021-03-04T14:06:28Z</time>
      </trkpt>
      <trkpt lat="46.72547" lon="5.7515">
        <ele>587.9</ele>
        <time>2021-03-04T14:06:32Z</time>
      </trkpt>
      <trkpt lat="46.72542" lon="5.75153">
        <ele>587.5</ele>
        <time>2021-03-04T14:06:42Z</time>
      </trkpt>
      <trkpt lat="46.72538" lon="5.75158">
        <ele>587.3</ele>
        <time>2021-03-04T14:06:47Z</time>
      </trkpt>
      <trkpt lat="46.72535" lon="5.75163">
        <ele>587.1</ele>
        <time>2021-03-04T14:06:51Z</time>
      </trkpt>
      <trkpt lat="46.72532" lon="5.75169">
        <ele>587</ele>
        <time>2021-03-04T14:06:55Z</time>
      </trkpt>
      <trkpt lat="46.7253" lon="5.75175">
        <ele>586.8</ele>
        <time>2021-03-04T14:07:00Z</time>
      </trkpt>
      <trkpt lat="46.72528" lon="5.75181">
        <ele>586.8</ele>
        <time>2021-03-04T14:07:05Z</time>
      </trkpt>
      <trkpt lat="46.72526" lon="5.75187">
        <ele>586.8</ele>
        <time>2021-03-04T14:07:10Z</time>
      </trkpt>
      <trkpt lat="46.72523" lon="5.75194">
        <ele>586.9</ele>
        <time>2021-03-04T14:07:15Z</time>
      </trkpt>
      <trkpt lat="46.72522" lon="5.752">
        <ele>587</ele>
        <time>2021-03-04T14:07:20Z</time>
      </trkpt>
      <trkpt lat="46.72521" lon="5.75208">
        <ele>587</ele>
        <time>2021-03-04T14:07:25Z</time>
      </trkpt>
      <trkpt lat="46.72521" lon="5.75215">
        <ele>587</ele>
        <time>2021-03-04T14:07:31Z</time>
      </trkpt>
      <trkpt lat="46.72522" lon="5.75222">
        <ele>587.4</ele>
        <time>2021-03-04T14:07:39Z</time>
      </trkpt>
      <trkpt lat="46.72524" lon="5.75229">
        <ele>588.1</ele>
        <time>2021-03-04T14:08:07Z</time>
      </trkpt>
      <trkpt lat="46.72529" lon="5.7523">
        <ele>588.3</ele>
        <time>2021-03-04T14:08:34Z</time>
      </trkpt>
      <trkpt lat="46.72533" lon="5.75227">
        <ele>589.5</ele>
        <time>2021-03-04T14:08:53Z</time>
      </trkpt>
      <trkpt lat="46.72536" lon="5.75231">
        <ele>590.4</ele>
        <time>2021-03-04T14:09:07Z</time>
      </trkpt>
      <trkpt lat="46.72539" lon="5.75238">
        <ele>591.1</ele>
        <time>2021-03-04T14:09:13Z</time>
      </trkpt>
      <trkpt lat="46.72541" lon="5.75244">
        <ele>591.6</ele>
        <time>2021-03-04T14:09:17Z</time>
      </trkpt>
      <trkpt lat="46.72544" lon="5.75249">
        <ele>592.1</ele>
        <time>2021-03-04T14:09:21Z</time>
      </trkpt>
      <trkpt lat="46.72548" lon="5.75255">
        <ele>592.7</ele>
        <time>2021-03-04T14:09:26Z</time>
      </trkpt>
      <trkpt lat="46.72551" lon="5.75261">
        <ele>593.6</ele>
        <time>2021-03-04T14:09:32Z</time>
      </trkpt>
      <trkpt lat="46.72553" lon="5.75267">
        <ele>594.6</ele>
        <time>2021-03-04T14:09:38Z</time>
      </trkpt>
      <trkpt lat="46.72557" lon="5.75272">
        <ele>595.6</ele>
        <time>2021-03-04T14:09:44Z</time>
      </trkpt>
      <trkpt lat="46.7256" lon="5.75277">
        <ele>596.4</ele>
        <time>2021-03-04T14:09:50Z</time>
      </trkpt>
      <trkpt lat="46.72564" lon="5.75282">
        <ele>597.3</ele>
        <time>2021-03-04T14:09:56Z</time>
      </trkpt>
      <trkpt lat="46.72567" lon="5.75287">
        <ele>598.9</ele>
        <time>2021-03-04T14:10:10Z</time>
      </trkpt>
      <trkpt lat="46.72571" lon="5.75291">
        <ele>598.9</ele>
        <time>2021-03-04T14:10:17Z</time>
      </trkpt>
      <trkpt lat="46.72574" lon="5.75296">
        <ele>599.2</ele>
        <time>2021-03-04T14:10:26Z</time>
      </trkpt>
      <trkpt lat="46.72578" lon="5.75301">
        <ele>599.1</ele>
        <time>2021-03-04T14:10:34Z</time>
      </trkpt>
      <trkpt lat="46.72582" lon="5.75305">
        <ele>598.8</ele>
        <time>2021-03-04T14:10:40Z</time>
      </trkpt>
      <trkpt lat="46.72587" lon="5.75308">
        <ele>598.6</ele>
        <time>2021-03-04T14:10:46Z</time>
      </trkpt>
      <trkpt lat="46.72591" lon="5.75311">
        <ele>598.3</ele>
        <time>2021-03-04T14:10:52Z</time>
      </trkpt>
      <trkpt lat="46.72596" lon="5.75314">
        <ele>597.9</ele>
        <time>2021-03-04T14:10:57Z</time>
      </trkpt>
      <trkpt lat="46.726" lon="5.75316">
        <ele>597.5</ele>
        <time>2021-03-04T14:11:01Z</time>
      </trkpt>
      <trkpt lat="46.72605" lon="5.75318">
        <ele>597.3</ele>
        <time>2021-03-04T14:11:05Z</time>
      </trkpt>
      <trkpt lat="46.7261" lon="5.75321">
        <ele>596.9</ele>
        <time>2021-03-04T14:11:10Z</time>
      </trkpt>
      <trkpt lat="46.72614" lon="5.75324">
        <ele>596.4</ele>
        <time>2021-03-04T14:11:15Z</time>
      </trkpt>
      <trkpt lat="46.72618" lon="5.75329">
        <ele>596</ele>
        <time>2021-03-04T14:11:20Z</time>
      </trkpt>
      <trkpt lat="46.72621" lon="5.75333">
        <ele>595.6</ele>
        <time>2021-03-04T14:11:25Z</time>
      </trkpt>
      <trkpt lat="46.72626" lon="5.75337">
        <ele>595.3</ele>
        <time>2021-03-04T14:11:30Z</time>
      </trkpt>
      <trkpt lat="46.72629" lon="5.75342">
        <ele>594.8</ele>
        <time>2021-03-04T14:11:36Z</time>
      </trkpt>
      <trkpt lat="46.72633" lon="5.75346">
        <ele>594.2</ele>
        <time>2021-03-04T14:11:42Z</time>
      </trkpt>
      <trkpt lat="46.72637" lon="5.75353">
        <ele>593.6</ele>
        <time>2021-03-04T14:11:49Z</time>
      </trkpt>
      <trkpt lat="46.72641" lon="5.75357">
        <ele>593.4</ele>
        <time>2021-03-04T14:11:53Z</time>
      </trkpt>
      <trkpt lat="46.72645" lon="5.75363">
        <ele>593.3</ele>
        <time>2021-03-04T14:11:57Z</time>
      </trkpt>
      <trkpt lat="46.72649" lon="5.75369">
        <ele>593.2</ele>
        <time>2021-03-04T14:12:01Z</time>
      </trkpt>
      <trkpt lat="46.72652" lon="5.75375">
        <ele>593</ele>
        <time>2021-03-04T14:12:05Z</time>
      </trkpt>
      <trkpt lat="46.72655" lon="5.7538">
        <ele>592.8</ele>
        <time>2021-03-04T14:12:09Z</time>
      </trkpt>
      <trkpt lat="46.72658" lon="5.75386">
        <ele>592.5</ele>
        <time>2021-03-04T14:12:14Z</time>
      </trkpt>
      <trkpt lat="46.72661" lon="5.75392">
        <ele>592.2</ele>
        <time>2021-03-04T14:12:19Z</time>
      </trkpt>
      <trkpt lat="46.72662" lon="5.75399">
        <ele>591.9</ele>
        <time>2021-03-04T14:12:24Z</time>
      </trkpt>
      <trkpt lat="46.72664" lon="5.75406">
        <ele>591.9</ele>
        <time>2021-03-04T14:12:30Z</time>
      </trkpt>
      <trkpt lat="46.72665" lon="5.75413">
        <ele>591.9</ele>
        <time>2021-03-04T14:12:36Z</time>
      </trkpt>
      <trkpt lat="46.72668" lon="5.7542">
        <ele>592.2</ele>
        <time>2021-03-04T14:12:44Z</time>
      </trkpt>
      <trkpt lat="46.72669" lon="5.75426">
        <ele>592.5</ele>
        <time>2021-03-04T14:12:51Z</time>
      </trkpt>
      <trkpt lat="46.72671" lon="5.75433">
        <ele>592.6</ele>
        <time>2021-03-04T14:12:57Z</time>
      </trkpt>
      <trkpt lat="46.72673" lon="5.75439">
        <ele>592.5</ele>
        <time>2021-03-04T14:13:04Z</time>
      </trkpt>
      <trkpt lat="46.72674" lon="5.75446">
        <ele>592.3</ele>
        <time>2021-03-04T14:13:14Z</time>
      </trkpt>
      <trkpt lat="46.7267" lon="5.7545">
        <ele>593</ele>
        <time>2021-03-04T14:13:23Z</time>
      </trkpt>
      <trkpt lat="46.72669" lon="5.75444">
        <ele>599.1</ele>
        <time>2021-03-04T14:14:07Z</time>
      </trkpt>
      <trkpt lat="46.72665" lon="5.75444">
        <ele>601</ele>
        <time>2021-03-04T14:14:14Z</time>
      </trkpt>
      <trkpt lat="46.7266" lon="5.75444">
        <ele>601.7</ele>
        <time>2021-03-04T14:14:20Z</time>
      </trkpt>
      <trkpt lat="46.72657" lon="5.7544">
        <ele>602.5</ele>
        <time>2021-03-04T14:14:26Z</time>
      </trkpt>
      <trkpt lat="46.72653" lon="5.75437">
        <ele>603.2</ele>
        <time>2021-03-04T14:14:30Z</time>
      </trkpt>
      <trkpt lat="46.72648" lon="5.75435">
        <ele>604.1</ele>
        <time>2021-03-04T14:14:34Z</time>
      </trkpt>
      <trkpt lat="46.72643" lon="5.75433">
        <ele>605.1</ele>
        <time>2021-03-04T14:14:38Z</time>
      </trkpt>
      <trkpt lat="46.72637" lon="5.75432">
        <ele>606.1</ele>
        <time>2021-03-04T14:14:43Z</time>
      </trkpt>
      <trkpt lat="46.72632" lon="5.75432">
        <ele>606.8</ele>
        <time>2021-03-04T14:14:47Z</time>
      </trkpt>
      <trkpt lat="46.72627" lon="5.7543">
        <ele>607.4</ele>
        <time>2021-03-04T14:14:51Z</time>
      </trkpt>
      <trkpt lat="46.72623" lon="5.75427">
        <ele>607.9</ele>
        <time>2021-03-04T14:14:55Z</time>
      </trkpt>
      <trkpt lat="46.72618" lon="5.75423">
        <ele>608.7</ele>
        <time>2021-03-04T14:15:00Z</time>
      </trkpt>
      <trkpt lat="46.72615" lon="5.75419">
        <ele>609.4</ele>
        <time>2021-03-04T14:15:04Z</time>
      </trkpt>
      <trkpt lat="46.7261" lon="5.75416">
        <ele>610.3</ele>
        <time>2021-03-04T14:15:09Z</time>
      </trkpt>
      <trkpt lat="46.72606" lon="5.75413">
        <ele>611.1</ele>
        <time>2021-03-04T14:15:15Z</time>
      </trkpt>
      <trkpt lat="46.72601" lon="5.75411">
        <ele>611.7</ele>
        <time>2021-03-04T14:15:20Z</time>
      </trkpt>
      <trkpt lat="46.72596" lon="5.75408">
        <ele>612.4</ele>
        <time>2021-03-04T14:15:24Z</time>
      </trkpt>
      <trkpt lat="46.72593" lon="5.75404">
        <ele>613.4</ele>
        <time>2021-03-04T14:15:30Z</time>
      </trkpt>
      <trkpt lat="46.72597" lon="5.75403">
        <ele>614.8</ele>
        <time>2021-03-04T14:15:45Z</time>
      </trkpt>
      <trkpt lat="46.72599" lon="5.75396">
        <ele>615.1</ele>
        <time>2021-03-04T14:16:12Z</time>
      </trkpt>
      <trkpt lat="46.72597" lon="5.7539">
        <ele>615.3</ele>
        <time>2021-03-04T14:16:17Z</time>
      </trkpt>
      <trkpt lat="46.72593" lon="5.75386">
        <ele>615.8</ele>
        <time>2021-03-04T14:16:22Z</time>
      </trkpt>
      <trkpt lat="46.72589" lon="5.75383">
        <ele>616.4</ele>
        <time>2021-03-04T14:16:27Z</time>
      </trkpt>
      <trkpt lat="46.72584" lon="5.75381">
        <ele>617.1</ele>
        <time>2021-03-04T14:16:32Z</time>
      </trkpt>
      <trkpt lat="46.72579" lon="5.75383">
        <ele>617.4</ele>
        <time>2021-03-04T14:16:38Z</time>
      </trkpt>
      <trkpt lat="46.72574" lon="5.75383">
        <ele>617.6</ele>
        <time>2021-03-04T14:16:42Z</time>
      </trkpt>
      <trkpt lat="46.72569" lon="5.75382">
        <ele>617.6</ele>
        <time>2021-03-04T14:16:46Z</time>
      </trkpt>
      <trkpt lat="46.72564" lon="5.7538">
        <ele>617.6</ele>
        <time>2021-03-04T14:16:50Z</time>
      </trkpt>
      <trkpt lat="46.72559" lon="5.75378">
        <ele>617.6</ele>
        <time>2021-03-04T14:16:54Z</time>
      </trkpt>
      <trkpt lat="46.72554" lon="5.75375">
        <ele>617.6</ele>
        <time>2021-03-04T14:16:58Z</time>
      </trkpt>
      <trkpt lat="46.7255" lon="5.7537">
        <ele>617.7</ele>
        <time>2021-03-04T14:17:03Z</time>
      </trkpt>
      <trkpt lat="46.72546" lon="5.75367">
        <ele>617.6</ele>
        <time>2021-03-04T14:17:07Z</time>
      </trkpt>
      <trkpt lat="46.72541" lon="5.75364">
        <ele>617.5</ele>
        <time>2021-03-04T14:17:11Z</time>
      </trkpt>
      <trkpt lat="46.72536" lon="5.7536">
        <ele>617.2</ele>
        <time>2021-03-04T14:17:15Z</time>
      </trkpt>
      <trkpt lat="46.72531" lon="5.75357">
        <ele>616.9</ele>
        <time>2021-03-04T14:17:19Z</time>
      </trkpt>
      <trkpt lat="46.72527" lon="5.75353">
        <ele>616.7</ele>
        <time>2021-03-04T14:17:23Z</time>
      </trkpt>
      <trkpt lat="46.72522" lon="5.75349">
        <ele>616.5</ele>
        <time>2021-03-04T14:17:27Z</time>
      </trkpt>
      <trkpt lat="46.72518" lon="5.75345">
        <ele>616.6</ele>
        <time>2021-03-04T14:17:32Z</time>
      </trkpt>
      <trkpt lat="46.72514" lon="5.75342">
        <ele>616.9</ele>
        <time>2021-03-04T14:17:38Z</time>
      </trkpt>
      <trkpt lat="46.7251" lon="5.75338">
        <ele>617.2</ele>
        <time>2021-03-04T14:17:43Z</time>
      </trkpt>
      <trkpt lat="46.72506" lon="5.75332">
        <ele>617.4</ele>
        <time>2021-03-04T14:17:48Z</time>
      </trkpt>
      <trkpt lat="46.72501" lon="5.75329">
        <ele>617.4</ele>
        <time>2021-03-04T14:17:53Z</time>
      </trkpt>
      <trkpt lat="46.72496" lon="5.75326">
        <ele>617.2</ele>
        <time>2021-03-04T14:17:58Z</time>
      </trkpt>
      <trkpt lat="46.72493" lon="5.7532">
        <ele>617.4</ele>
        <time>2021-03-04T14:18:11Z</time>
      </trkpt>
      <trkpt lat="46.72488" lon="5.7532">
        <ele>617.5</ele>
        <time>2021-03-04T14:18:19Z</time>
      </trkpt>
      <trkpt lat="46.72483" lon="5.75317">
        <ele>617.6</ele>
        <time>2021-03-04T14:18:24Z</time>
      </trkpt>
      <trkpt lat="46.72479" lon="5.75314">
        <ele>617.7</ele>
        <time>2021-03-04T14:18:28Z</time>
      </trkpt>
      <trkpt lat="46.72474" lon="5.75312">
        <ele>617.8</ele>
        <time>2021-03-04T14:18:33Z</time>
      </trkpt>
      <trkpt lat="46.7247" lon="5.75309">
        <ele>618</ele>
        <time>2021-03-04T14:18:39Z</time>
      </trkpt>
      <trkpt lat="46.72466" lon="5.75306">
        <ele>618.3</ele>
        <time>2021-03-04T14:18:43Z</time>
      </trkpt>
      <trkpt lat="46.72462" lon="5.75304">
        <ele>618.7</ele>
        <time>2021-03-04T14:18:49Z</time>
      </trkpt>
      <trkpt lat="46.72457" lon="5.75302">
        <ele>619.2</ele>
        <time>2021-03-04T14:19:07Z</time>
      </trkpt>
      <trkpt lat="46.72452" lon="5.75302">
        <ele>618.9</ele>
        <time>2021-03-04T14:19:13Z</time>
      </trkpt>
      <trkpt lat="46.72448" lon="5.753">
        <ele>618.9</ele>
        <time>2021-03-04T14:19:18Z</time>
      </trkpt>
      <trkpt lat="46.72443" lon="5.75299">
        <ele>618.9</ele>
        <time>2021-03-04T14:19:23Z</time>
      </trkpt>
      <trkpt lat="46.7244" lon="5.75294">
        <ele>619.1</ele>
        <time>2021-03-04T14:19:36Z</time>
      </trkpt>
      <trkpt lat="46.72436" lon="5.75289">
        <ele>619.5</ele>
        <time>2021-03-04T14:19:41Z</time>
      </trkpt>
      <trkpt lat="46.72432" lon="5.75285">
        <ele>620.1</ele>
        <time>2021-03-04T14:19:46Z</time>
      </trkpt>
      <trkpt lat="46.72427" lon="5.75281">
        <ele>620.7</ele>
        <time>2021-03-04T14:19:51Z</time>
      </trkpt>
      <trkpt lat="46.72423" lon="5.75278">
        <ele>621.2</ele>
        <time>2021-03-04T14:19:56Z</time>
      </trkpt>
      <trkpt lat="46.72419" lon="5.75274">
        <ele>621.5</ele>
        <time>2021-03-04T14:20:03Z</time>
      </trkpt>
      <trkpt lat="46.72414" lon="5.7527">
        <ele>621.9</ele>
        <time>2021-03-04T14:20:10Z</time>
      </trkpt>
      <trkpt lat="46.7241" lon="5.75271">
        <ele>622.5</ele>
        <time>2021-03-04T14:20:18Z</time>
      </trkpt>
      <trkpt lat="46.72405" lon="5.75272">
        <ele>623.2</ele>
        <time>2021-03-04T14:20:25Z</time>
      </trkpt>
      <trkpt lat="46.724" lon="5.75274">
        <ele>624.1</ele>
        <time>2021-03-04T14:20:31Z</time>
      </trkpt>
      <trkpt lat="46.72395" lon="5.75276">
        <ele>624.9</ele>
        <time>2021-03-04T14:20:38Z</time>
      </trkpt>
      <trkpt lat="46.7239" lon="5.75276">
        <ele>625.8</ele>
        <time>2021-03-04T14:20:45Z</time>
      </trkpt>
      <trkpt lat="46.72385" lon="5.75276">
        <ele>627</ele>
        <time>2021-03-04T14:20:52Z</time>
      </trkpt>
      <trkpt lat="46.72381" lon="5.75276">
        <ele>628.1</ele>
        <time>2021-03-04T14:20:59Z</time>
      </trkpt>
      <trkpt lat="46.72376" lon="5.75277">
        <ele>629.5</ele>
        <time>2021-03-04T14:21:06Z</time>
      </trkpt>
      <trkpt lat="46.72371" lon="5.75277">
        <ele>631.1</ele>
        <time>2021-03-04T14:21:13Z</time>
      </trkpt>
      <trkpt lat="46.72364" lon="5.75276">
        <ele>633.7</ele>
        <time>2021-03-04T14:21:52Z</time>
      </trkpt>
      <trkpt lat="46.72359" lon="5.75278">
        <ele>633.9</ele>
        <time>2021-03-04T14:21:59Z</time>
      </trkpt>
      <trkpt lat="46.72355" lon="5.75283">
        <ele>635.1</ele>
        <time>2021-03-04T14:22:23Z</time>
      </trkpt>
      <trkpt lat="46.72351" lon="5.75285">
        <ele>636</ele>
        <time>2021-03-04T14:22:29Z</time>
      </trkpt>
      <trkpt lat="46.72346" lon="5.75284">
        <ele>636.7</ele>
        <time>2021-03-04T14:22:34Z</time>
      </trkpt>
      <trkpt lat="46.72342" lon="5.75281">
        <ele>637.8</ele>
        <time>2021-03-04T14:22:41Z</time>
      </trkpt>
      <trkpt lat="46.72338" lon="5.75277">
        <ele>638.3</ele>
        <time>2021-03-04T14:22:46Z</time>
      </trkpt>
      <trkpt lat="46.72332" lon="5.75277">
        <ele>638.8</ele>
        <time>2021-03-04T14:22:51Z</time>
      </trkpt>
      <trkpt lat="46.72327" lon="5.75276">
        <ele>639.3</ele>
        <time>2021-03-04T14:22:55Z</time>
      </trkpt>
      <trkpt lat="46.72321" lon="5.75277">
        <ele>639.2</ele>
        <time>2021-03-04T14:22:59Z</time>
      </trkpt>
      <trkpt lat="46.72316" lon="5.75276">
        <ele>639.1</ele>
        <time>2021-03-04T14:23:05Z</time>
      </trkpt>
      <trkpt lat="46.72311" lon="5.75275">
        <ele>639.3</ele>
        <time>2021-03-04T14:23:10Z</time>
      </trkpt>
      <trkpt lat="46.72306" lon="5.75274">
        <ele>639.6</ele>
        <time>2021-03-04T14:23:15Z</time>
      </trkpt>
      <trkpt lat="46.72301" lon="5.75272">
        <ele>639.8</ele>
        <time>2021-03-04T14:23:20Z</time>
      </trkpt>
      <trkpt lat="46.72296" lon="5.7527">
        <ele>640</ele>
        <time>2021-03-04T14:23:25Z</time>
      </trkpt>
      <trkpt lat="46.72291" lon="5.7527">
        <ele>640.4</ele>
        <time>2021-03-04T14:23:30Z</time>
      </trkpt>
      <trkpt lat="46.72287" lon="5.75266">
        <ele>640.6</ele>
        <time>2021-03-04T14:23:37Z</time>
      </trkpt>
      <trkpt lat="46.72284" lon="5.75262">
        <ele>640.2</ele>
        <time>2021-03-04T14:23:42Z</time>
      </trkpt>
      <trkpt lat="46.72279" lon="5.75258">
        <ele>639.5</ele>
        <time>2021-03-04T14:23:47Z</time>
      </trkpt>
      <trkpt lat="46.72273" lon="5.75247">
        <ele>644.7</ele>
        <time>2021-03-04T14:23:52Z</time>
      </trkpt>
      <trkpt lat="46.72269" lon="5.75238">
        <ele>650.2</ele>
        <time>2021-03-04T14:23:56Z</time>
      </trkpt>
      <trkpt lat="46.72266" lon="5.75232">
        <ele>654.6</ele>
        <time>2021-03-04T14:24:02Z</time>
      </trkpt>
      <trkpt lat="46.72261" lon="5.75228">
        <ele>656.1</ele>
        <time>2021-03-04T14:24:08Z</time>
      </trkpt>
      <trkpt lat="46.72256" lon="5.75225">
        <ele>656.1</ele>
        <time>2021-03-04T14:24:14Z</time>
      </trkpt>
      <trkpt lat="46.72249" lon="5.75225">
        <ele>655</ele>
        <time>2021-03-04T14:24:18Z</time>
      </trkpt>
      <trkpt lat="46.72244" lon="5.75222">
        <ele>654.1</ele>
        <time>2021-03-04T14:24:22Z</time>
      </trkpt>
      <trkpt lat="46.7224" lon="5.75217">
        <ele>653.4</ele>
        <time>2021-03-04T14:24:27Z</time>
      </trkpt>
      <trkpt lat="46.72236" lon="5.75212">
        <ele>653</ele>
        <time>2021-03-04T14:24:33Z</time>
      </trkpt>
      <trkpt lat="46.72232" lon="5.75208">
        <ele>653.1</ele>
        <time>2021-03-04T14:24:38Z</time>
      </trkpt>
      <trkpt lat="46.72228" lon="5.75205">
        <ele>653.2</ele>
        <time>2021-03-04T14:24:43Z</time>
      </trkpt>
      <trkpt lat="46.72223" lon="5.75201">
        <ele>653.1</ele>
        <time>2021-03-04T14:24:49Z</time>
      </trkpt>
      <trkpt lat="46.72219" lon="5.75198">
        <ele>652.8</ele>
        <time>2021-03-04T14:24:53Z</time>
      </trkpt>
      <trkpt lat="46.72214" lon="5.75194">
        <ele>652.5</ele>
        <time>2021-03-04T14:24:58Z</time>
      </trkpt>
      <trkpt lat="46.7221" lon="5.75191">
        <ele>652.3</ele>
        <time>2021-03-04T14:25:02Z</time>
      </trkpt>
      <trkpt lat="46.72206" lon="5.75188">
        <ele>651.7</ele>
        <time>2021-03-04T14:25:06Z</time>
      </trkpt>
      <trkpt lat="46.72201" lon="5.75183">
        <ele>650.9</ele>
        <time>2021-03-04T14:25:10Z</time>
      </trkpt>
      <trkpt lat="46.72198" lon="5.75179">
        <ele>650.4</ele>
        <time>2021-03-04T14:25:14Z</time>
      </trkpt>
      <trkpt lat="46.72194" lon="5.75175">
        <ele>649.3</ele>
        <time>2021-03-04T14:25:20Z</time>
      </trkpt>
      <trkpt lat="46.7219" lon="5.75173">
        <ele>648.2</ele>
        <time>2021-03-04T14:25:25Z</time>
      </trkpt>
      <trkpt lat="46.72185" lon="5.75171">
        <ele>647.3</ele>
        <time>2021-03-04T14:25:29Z</time>
      </trkpt>
      <trkpt lat="46.7218" lon="5.75169">
        <ele>646.5</ele>
        <time>2021-03-04T14:25:33Z</time>
      </trkpt>
      <trkpt lat="46.72175" lon="5.75164">
        <ele>645.4</ele>
        <time>2021-03-04T14:25:37Z</time>
      </trkpt>
      <trkpt lat="46.72171" lon="5.75159">
        <ele>644.2</ele>
        <time>2021-03-04T14:25:41Z</time>
      </trkpt>
      <trkpt lat="46.72166" lon="5.75157">
        <ele>643.3</ele>
        <time>2021-03-04T14:25:45Z</time>
      </trkpt>
      <trkpt lat="46.72162" lon="5.75154">
        <ele>643</ele>
        <time>2021-03-04T14:25:51Z</time>
      </trkpt>
      <trkpt lat="46.72157" lon="5.75152">
        <ele>643.7</ele>
        <time>2021-03-04T14:25:56Z</time>
      </trkpt>
      <trkpt lat="46.72153" lon="5.75149">
        <ele>644.1</ele>
        <time>2021-03-04T14:26:01Z</time>
      </trkpt>
      <trkpt lat="46.72148" lon="5.75145">
        <ele>644.3</ele>
        <time>2021-03-04T14:26:06Z</time>
      </trkpt>
      <trkpt lat="46.72144" lon="5.7514">
        <ele>644.7</ele>
        <time>2021-03-04T14:26:11Z</time>
      </trkpt>
      <trkpt lat="46.7214" lon="5.75137">
        <ele>645</ele>
        <time>2021-03-04T14:26:16Z</time>
      </trkpt>
      <trkpt lat="46.72135" lon="5.75134">
        <ele>645.1</ele>
        <time>2021-03-04T14:26:20Z</time>
      </trkpt>
      <trkpt lat="46.7213" lon="5.75129">
        <ele>645.4</ele>
        <time>2021-03-04T14:26:24Z</time>
      </trkpt>
      <trkpt lat="46.72125" lon="5.75125">
        <ele>645.5</ele>
        <time>2021-03-04T14:26:28Z</time>
      </trkpt>
      <trkpt lat="46.72122" lon="5.7512">
        <ele>645.8</ele>
        <time>2021-03-04T14:26:32Z</time>
      </trkpt>
      <trkpt lat="46.72117" lon="5.75117">
        <ele>645.9</ele>
        <time>2021-03-04T14:26:38Z</time>
      </trkpt>
      <trkpt lat="46.72113" lon="5.75115">
        <ele>645.7</ele>
        <time>2021-03-04T14:26:43Z</time>
      </trkpt>
      <trkpt lat="46.72107" lon="5.75113">
        <ele>645.3</ele>
        <time>2021-03-04T14:26:49Z</time>
      </trkpt>
      <trkpt lat="46.72103" lon="5.7511">
        <ele>644.9</ele>
        <time>2021-03-04T14:26:54Z</time>
      </trkpt>
      <trkpt lat="46.72098" lon="5.75108">
        <ele>644.3</ele>
        <time>2021-03-04T14:26:59Z</time>
      </trkpt>
      <trkpt lat="46.72094" lon="5.75103">
        <ele>643.4</ele>
        <time>2021-03-04T14:27:05Z</time>
      </trkpt>
      <trkpt lat="46.7209" lon="5.75099">
        <ele>642.9</ele>
        <time>2021-03-04T14:27:09Z</time>
      </trkpt>
      <trkpt lat="46.72087" lon="5.75095">
        <ele>642</ele>
        <time>2021-03-04T14:27:14Z</time>
      </trkpt>
      <trkpt lat="46.72083" lon="5.7509">
        <ele>641.1</ele>
        <time>2021-03-04T14:27:19Z</time>
      </trkpt>
      <trkpt lat="46.72079" lon="5.75086">
        <ele>640.3</ele>
        <time>2021-03-04T14:27:23Z</time>
      </trkpt>
      <trkpt lat="46.72074" lon="5.75083">
        <ele>640</ele>
        <time>2021-03-04T14:27:27Z</time>
      </trkpt>
      <trkpt lat="46.72069" lon="5.75081">
        <ele>639.9</ele>
        <time>2021-03-04T14:27:31Z</time>
      </trkpt>
      <trkpt lat="46.72064" lon="5.75079">
        <ele>639.8</ele>
        <time>2021-03-04T14:27:39Z</time>
      </trkpt>
      <trkpt lat="46.7206" lon="5.75075">
        <ele>639.9</ele>
        <time>2021-03-04T14:27:45Z</time>
      </trkpt>
      <trkpt lat="46.72055" lon="5.75072">
        <ele>640.1</ele>
        <time>2021-03-04T14:27:49Z</time>
      </trkpt>
      <trkpt lat="46.7205" lon="5.75068">
        <ele>639.9</ele>
        <time>2021-03-04T14:27:53Z</time>
      </trkpt>
      <trkpt lat="46.72044" lon="5.75065">
        <ele>639.4</ele>
        <time>2021-03-04T14:27:57Z</time>
      </trkpt>
      <trkpt lat="46.7204" lon="5.75062">
        <ele>638.9</ele>
        <time>2021-03-04T14:28:01Z</time>
      </trkpt>
      <trkpt lat="46.72038" lon="5.75054">
        <ele>638.8</ele>
        <time>2021-03-04T14:28:05Z</time>
      </trkpt>
      <trkpt lat="46.72035" lon="5.75049">
        <ele>638.4</ele>
        <time>2021-03-04T14:28:10Z</time>
      </trkpt>
      <trkpt lat="46.7203" lon="5.75044">
        <ele>637.7</ele>
        <time>2021-03-04T14:28:15Z</time>
      </trkpt>
      <trkpt lat="46.72025" lon="5.7504">
        <ele>636.8</ele>
        <time>2021-03-04T14:28:20Z</time>
      </trkpt>
      <trkpt lat="46.7202" lon="5.75037">
        <ele>635.5</ele>
        <time>2021-03-04T14:28:25Z</time>
      </trkpt>
      <trkpt lat="46.72016" lon="5.75034">
        <ele>634.1</ele>
        <time>2021-03-04T14:28:30Z</time>
      </trkpt>
      <trkpt lat="46.72011" lon="5.75032">
        <ele>631.9</ele>
        <time>2021-03-04T14:28:37Z</time>
      </trkpt>
      <trkpt lat="46.72008" lon="5.75027">
        <ele>631.1</ele>
        <time>2021-03-04T14:28:41Z</time>
      </trkpt>
      <trkpt lat="46.72004" lon="5.75024">
        <ele>629.8</ele>
        <time>2021-03-04T14:28:45Z</time>
      </trkpt>
      <trkpt lat="46.71998" lon="5.75023">
        <ele>628.8</ele>
        <time>2021-03-04T14:28:49Z</time>
      </trkpt>
      <trkpt lat="46.71994" lon="5.7502">
        <ele>628.4</ele>
        <time>2021-03-04T14:28:53Z</time>
      </trkpt>
      <trkpt lat="46.71992" lon="5.75011">
        <ele>630.9</ele>
        <time>2021-03-04T14:28:57Z</time>
      </trkpt>
      <trkpt lat="46.71989" lon="5.75005">
        <ele>634.2</ele>
        <time>2021-03-04T14:29:07Z</time>
      </trkpt>
      <trkpt lat="46.71986" lon="5.75001">
        <ele>635.6</ele>
        <time>2021-03-04T14:29:11Z</time>
      </trkpt>
      <trkpt lat="46.7198" lon="5.7499">
        <ele>639.1</ele>
        <time>2021-03-04T14:29:15Z</time>
      </trkpt>
      <trkpt lat="46.71977" lon="5.74981">
        <ele>643</ele>
        <time>2021-03-04T14:29:19Z</time>
      </trkpt>
      <trkpt lat="46.71973" lon="5.74975">
        <ele>646.7</ele>
        <time>2021-03-04T14:29:24Z</time>
      </trkpt>
      <trkpt lat="46.71967" lon="5.7497">
        <ele>649.4</ele>
        <time>2021-03-04T14:29:28Z</time>
      </trkpt>
      <trkpt lat="46.71959" lon="5.74964">
        <ele>651.5</ele>
        <time>2021-03-04T14:29:32Z</time>
      </trkpt>
      <trkpt lat="46.71953" lon="5.7496">
        <ele>652.8</ele>
        <time>2021-03-04T14:29:36Z</time>
      </trkpt>
      <trkpt lat="46.71948" lon="5.74956">
        <ele>653.8</ele>
        <time>2021-03-04T14:29:40Z</time>
      </trkpt>
      <trkpt lat="46.71944" lon="5.74952">
        <ele>655</ele>
        <time>2021-03-04T14:29:44Z</time>
      </trkpt>
      <trkpt lat="46.71939" lon="5.7495">
        <ele>655.2</ele>
        <time>2021-03-04T14:29:49Z</time>
      </trkpt>
      <trkpt lat="46.71934" lon="5.74948">
        <ele>655.2</ele>
        <time>2021-03-04T14:29:53Z</time>
      </trkpt>
      <trkpt lat="46.71929" lon="5.74947">
        <ele>654.5</ele>
        <time>2021-03-04T14:29:57Z</time>
      </trkpt>
      <trkpt lat="46.71926" lon="5.74943">
        <ele>653.4</ele>
        <time>2021-03-04T14:30:03Z</time>
      </trkpt>
      <trkpt lat="46.71921" lon="5.74941">
        <ele>652.2</ele>
        <time>2021-03-04T14:30:08Z</time>
      </trkpt>
      <trkpt lat="46.71918" lon="5.74927">
        <ele>653.7</ele>
        <time>2021-03-04T14:30:16Z</time>
      </trkpt>
      <trkpt lat="46.71914" lon="5.74918">
        <ele>655.7</ele>
        <time>2021-03-04T14:30:23Z</time>
      </trkpt>
      <trkpt lat="46.7191" lon="5.74903">
        <ele>658.2</ele>
        <time>2021-03-04T14:30:27Z</time>
      </trkpt>
      <trkpt lat="46.71907" lon="5.74898">
        <ele>662.8</ele>
        <time>2021-03-04T14:30:34Z</time>
      </trkpt>
      <trkpt lat="46.71902" lon="5.74896">
        <ele>666</ele>
        <time>2021-03-04T14:30:40Z</time>
      </trkpt>
      <trkpt lat="46.71898" lon="5.74891">
        <ele>667.5</ele>
        <time>2021-03-04T14:30:45Z</time>
      </trkpt>
      <trkpt lat="46.71893" lon="5.74888">
        <ele>668.4</ele>
        <time>2021-03-04T14:30:50Z</time>
      </trkpt>
      <trkpt lat="46.71889" lon="5.74884">
        <ele>669.2</ele>
        <time>2021-03-04T14:30:56Z</time>
      </trkpt>
      <trkpt lat="46.71884" lon="5.7488">
        <ele>668.2</ele>
        <time>2021-03-04T14:31:01Z</time>
      </trkpt>
      <trkpt lat="46.7188" lon="5.74876">
        <ele>666.3</ele>
        <time>2021-03-04T14:31:06Z</time>
      </trkpt>
      <trkpt lat="46.71875" lon="5.74873">
        <ele>665</ele>
        <time>2021-03-04T14:31:12Z</time>
      </trkpt>
      <trkpt lat="46.71873" lon="5.74866">
        <ele>663.9</ele>
        <time>2021-03-04T14:31:39Z</time>
      </trkpt>
      <trkpt lat="46.71872" lon="5.7486">
        <ele>664</ele>
        <time>2021-03-04T14:31:43Z</time>
      </trkpt>
      <trkpt lat="46.71871" lon="5.74853">
        <ele>663.9</ele>
        <time>2021-03-04T14:31:49Z</time>
      </trkpt>
      <trkpt lat="46.71875" lon="5.74851">
        <ele>663.5</ele>
        <time>2021-03-04T14:32:05Z</time>
      </trkpt>
      <trkpt lat="46.71871" lon="5.74849">
        <ele>662.7</ele>
        <time>2021-03-04T14:32:13Z</time>
      </trkpt>
      <trkpt lat="46.71866" lon="5.74845">
        <ele>661.6</ele>
        <time>2021-03-04T14:32:18Z</time>
      </trkpt>
      <trkpt lat="46.71861" lon="5.74843">
        <ele>660.2</ele>
        <time>2021-03-04T14:32:23Z</time>
      </trkpt>
      <trkpt lat="46.71856" lon="5.74843">
        <ele>658</ele>
        <time>2021-03-04T14:32:28Z</time>
      </trkpt>
      <trkpt lat="46.71852" lon="5.74842">
        <ele>654.8</ele>
        <time>2021-03-04T14:32:34Z</time>
      </trkpt>
      <trkpt lat="46.71848" lon="5.74847">
        <ele>647.6</ele>
        <time>2021-03-04T14:35:31Z</time>
      </trkpt>
      <trkpt lat="46.71844" lon="5.74851">
        <ele>643.4</ele>
        <time>2021-03-04T14:37:15Z</time>
      </trkpt>
      <trkpt lat="46.71842" lon="5.74859">
        <ele>642</ele>
        <time>2021-03-04T14:37:19Z</time>
      </trkpt>
      <trkpt lat="46.71845" lon="5.74852">
        <ele>639.6</ele>
        <time>2021-03-04T14:37:43Z</time>
      </trkpt>
      <trkpt lat="46.71842" lon="5.74848">
        <ele>637.7</ele>
        <time>2021-03-04T14:38:08Z</time>
      </trkpt>
      <trkpt lat="46.71838" lon="5.74845">
        <ele>636.4</ele>
        <time>2021-03-04T14:38:15Z</time>
      </trkpt>
      <trkpt lat="46.71833" lon="5.74844">
        <ele>635.5</ele>
        <time>2021-03-04T14:38:21Z</time>
      </trkpt>
      <trkpt lat="46.71827" lon="5.74844">
        <ele>634.8</ele>
        <time>2021-03-04T14:38:25Z</time>
      </trkpt>
      <trkpt lat="46.71822" lon="5.74842">
        <ele>634.2</ele>
        <time>2021-03-04T14:38:31Z</time>
      </trkpt>
      <trkpt lat="46.71817" lon="5.74838">
        <ele>633.9</ele>
        <time>2021-03-04T14:38:35Z</time>
      </trkpt>
      <trkpt lat="46.71812" lon="5.74835">
        <ele>633.8</ele>
        <time>2021-03-04T14:38:39Z</time>
      </trkpt>
      <trkpt lat="46.71807" lon="5.74829">
        <ele>634.1</ele>
        <time>2021-03-04T14:38:43Z</time>
      </trkpt>
      <trkpt lat="46.71803" lon="5.74824">
        <ele>633.9</ele>
        <time>2021-03-04T14:38:47Z</time>
      </trkpt>
      <trkpt lat="46.71798" lon="5.74819">
        <ele>633</ele>
        <time>2021-03-04T14:38:52Z</time>
      </trkpt>
      <trkpt lat="46.71795" lon="5.74814">
        <ele>631.7</ele>
        <time>2021-03-04T14:38:57Z</time>
      </trkpt>
      <trkpt lat="46.71793" lon="5.74808">
        <ele>630.4</ele>
        <time>2021-03-04T14:39:02Z</time>
      </trkpt>
      <trkpt lat="46.71789" lon="5.74804">
        <ele>628.6</ele>
        <time>2021-03-04T14:39:07Z</time>
      </trkpt>
      <trkpt lat="46.71785" lon="5.74799">
        <ele>627</ele>
        <time>2021-03-04T14:39:12Z</time>
      </trkpt>
      <trkpt lat="46.7178" lon="5.74797">
        <ele>625.6</ele>
        <time>2021-03-04T14:39:16Z</time>
      </trkpt>
      <trkpt lat="46.71775" lon="5.74794">
        <ele>624.2</ele>
        <time>2021-03-04T14:39:21Z</time>
      </trkpt>
      <trkpt lat="46.71771" lon="5.74791">
        <ele>623.4</ele>
        <time>2021-03-04T14:39:25Z</time>
      </trkpt>
      <trkpt lat="46.71767" lon="5.74788">
        <ele>622.9</ele>
        <time>2021-03-04T14:39:30Z</time>
      </trkpt>
      <trkpt lat="46.71763" lon="5.74786">
        <ele>622.6</ele>
        <time>2021-03-04T14:39:35Z</time>
      </trkpt>
      <trkpt lat="46.71759" lon="5.74783">
        <ele>622.8</ele>
        <time>2021-03-04T14:39:39Z</time>
      </trkpt>
      <trkpt lat="46.71754" lon="5.7478">
        <ele>622.9</ele>
        <time>2021-03-04T14:39:43Z</time>
      </trkpt>
      <trkpt lat="46.71749" lon="5.74779">
        <ele>623</ele>
        <time>2021-03-04T14:39:47Z</time>
      </trkpt>
      <trkpt lat="46.71744" lon="5.74777">
        <ele>622.6</ele>
        <time>2021-03-04T14:39:51Z</time>
      </trkpt>
      <trkpt lat="46.71738" lon="5.74776">
        <ele>622.7</ele>
        <time>2021-03-04T14:39:55Z</time>
      </trkpt>
      <trkpt lat="46.71734" lon="5.74773">
        <ele>623.8</ele>
        <time>2021-03-04T14:39:59Z</time>
      </trkpt>
      <trkpt lat="46.71731" lon="5.74767">
        <ele>626.3</ele>
        <time>2021-03-04T14:40:04Z</time>
      </trkpt>
      <trkpt lat="46.71728" lon="5.74763">
        <ele>629.3</ele>
        <time>2021-03-04T14:40:11Z</time>
      </trkpt>
      <trkpt lat="46.71723" lon="5.7476">
        <ele>630.9</ele>
        <time>2021-03-04T14:40:18Z</time>
      </trkpt>
      <trkpt lat="46.71718" lon="5.74759">
        <ele>632</ele>
        <time>2021-03-04T14:40:25Z</time>
      </trkpt>
      <trkpt lat="46.71713" lon="5.74758">
        <ele>632.4</ele>
        <time>2021-03-04T14:40:29Z</time>
      </trkpt>
      <trkpt lat="46.71709" lon="5.74757">
        <ele>632.5</ele>
        <time>2021-03-04T14:40:33Z</time>
      </trkpt>
      <trkpt lat="46.71703" lon="5.74758">
        <ele>632.3</ele>
        <time>2021-03-04T14:40:37Z</time>
      </trkpt>
      <trkpt lat="46.71698" lon="5.74756">
        <ele>632</ele>
        <time>2021-03-04T14:40:41Z</time>
      </trkpt>
      <trkpt lat="46.71693" lon="5.74755">
        <ele>631.6</ele>
        <time>2021-03-04T14:40:45Z</time>
      </trkpt>
      <trkpt lat="46.71687" lon="5.74753">
        <ele>631.2</ele>
        <time>2021-03-04T14:40:50Z</time>
      </trkpt>
      <trkpt lat="46.71683" lon="5.7475">
        <ele>631.7</ele>
        <time>2021-03-04T14:40:54Z</time>
      </trkpt>
      <trkpt lat="46.71678" lon="5.74747">
        <ele>632.7</ele>
        <time>2021-03-04T14:40:58Z</time>
      </trkpt>
      <trkpt lat="46.71674" lon="5.74746">
        <ele>633.9</ele>
        <time>2021-03-04T14:41:03Z</time>
      </trkpt>
      <trkpt lat="46.71669" lon="5.74744">
        <ele>634.4</ele>
        <time>2021-03-04T14:41:08Z</time>
      </trkpt>
      <trkpt lat="46.71665" lon="5.74743">
        <ele>634.9</ele>
        <time>2021-03-04T14:41:13Z</time>
      </trkpt>
      <trkpt lat="46.71659" lon="5.74742">
        <ele>635.3</ele>
        <time>2021-03-04T14:41:18Z</time>
      </trkpt>
      <trkpt lat="46.71654" lon="5.74741">
        <ele>636.2</ele>
        <time>2021-03-04T14:41:22Z</time>
      </trkpt>
      <trkpt lat="46.71648" lon="5.74742">
        <ele>637.1</ele>
        <time>2021-03-04T14:41:26Z</time>
      </trkpt>
      <trkpt lat="46.71643" lon="5.74742">
        <ele>637.7</ele>
        <time>2021-03-04T14:41:30Z</time>
      </trkpt>
      <trkpt lat="46.71638" lon="5.74741">
        <ele>637.9</ele>
        <time>2021-03-04T14:41:35Z</time>
      </trkpt>
      <trkpt lat="46.71633" lon="5.7474">
        <ele>638.1</ele>
        <time>2021-03-04T14:41:39Z</time>
      </trkpt>
      <trkpt lat="46.71628" lon="5.74739">
        <ele>638.1</ele>
        <time>2021-03-04T14:41:43Z</time>
      </trkpt>
      <trkpt lat="46.71623" lon="5.74739">
        <ele>637.9</ele>
        <time>2021-03-04T14:41:47Z</time>
      </trkpt>
      <trkpt lat="46.71618" lon="5.74739">
        <ele>637.5</ele>
        <time>2021-03-04T14:41:53Z</time>
      </trkpt>
      <trkpt lat="46.71613" lon="5.74737">
        <ele>636.7</ele>
        <time>2021-03-04T14:41:57Z</time>
      </trkpt>
      <trkpt lat="46.71609" lon="5.74735">
        <ele>635.5</ele>
        <time>2021-03-04T14:42:01Z</time>
      </trkpt>
      <trkpt lat="46.71603" lon="5.74734">
        <ele>634.2</ele>
        <time>2021-03-04T14:42:05Z</time>
      </trkpt>
      <trkpt lat="46.71599" lon="5.7473">
        <ele>632.8</ele>
        <time>2021-03-04T14:42:10Z</time>
      </trkpt>
      <trkpt lat="46.71595" lon="5.74725">
        <ele>631.2</ele>
        <time>2021-03-04T14:42:15Z</time>
      </trkpt>
      <trkpt lat="46.71591" lon="5.74722">
        <ele>630.5</ele>
        <time>2021-03-04T14:42:19Z</time>
      </trkpt>
      <trkpt lat="46.71586" lon="5.7472">
        <ele>630.1</ele>
        <time>2021-03-04T14:42:23Z</time>
      </trkpt>
      <trkpt lat="46.7158" lon="5.74717">
        <ele>630</ele>
        <time>2021-03-04T14:42:27Z</time>
      </trkpt>
      <trkpt lat="46.71574" lon="5.74714">
        <ele>633.4</ele>
        <time>2021-03-04T14:42:31Z</time>
      </trkpt>
      <trkpt lat="46.71569" lon="5.74712">
        <ele>635.9</ele>
        <time>2021-03-04T14:42:36Z</time>
      </trkpt>
      <trkpt lat="46.71564" lon="5.74708">
        <ele>636.8</ele>
        <time>2021-03-04T14:42:42Z</time>
      </trkpt>
      <trkpt lat="46.7156" lon="5.74706">
        <ele>637</ele>
        <time>2021-03-04T14:42:47Z</time>
      </trkpt>
      <trkpt lat="46.71556" lon="5.74702">
        <ele>637</ele>
        <time>2021-03-04T14:42:52Z</time>
      </trkpt>
      <trkpt lat="46.71551" lon="5.747">
        <ele>636.3</ele>
        <time>2021-03-04T14:42:57Z</time>
      </trkpt>
      <trkpt lat="46.71546" lon="5.74697">
        <ele>635.1</ele>
        <time>2021-03-04T14:43:02Z</time>
      </trkpt>
      <trkpt lat="46.71541" lon="5.74696">
        <ele>633.6</ele>
        <time>2021-03-04T14:43:06Z</time>
      </trkpt>
      <trkpt lat="46.71536" lon="5.74692">
        <ele>632.1</ele>
        <time>2021-03-04T14:43:10Z</time>
      </trkpt>
      <trkpt lat="46.7153" lon="5.74691">
        <ele>629.4</ele>
        <time>2021-03-04T14:43:14Z</time>
      </trkpt>
      <trkpt lat="46.71525" lon="5.7469">
        <ele>626.4</ele>
        <time>2021-03-04T14:43:18Z</time>
      </trkpt>
      <trkpt lat="46.71521" lon="5.74688">
        <ele>623.8</ele>
        <time>2021-03-04T14:43:22Z</time>
      </trkpt>
      <trkpt lat="46.71515" lon="5.74686">
        <ele>621</ele>
        <time>2021-03-04T14:43:26Z</time>
      </trkpt>
      <trkpt lat="46.71511" lon="5.74685">
        <ele>618.7</ele>
        <time>2021-03-04T14:43:30Z</time>
      </trkpt>
      <trkpt lat="46.71506" lon="5.74684">
        <ele>616</ele>
        <time>2021-03-04T14:43:35Z</time>
      </trkpt>
      <trkpt lat="46.71502" lon="5.74683">
        <ele>614.2</ele>
        <time>2021-03-04T14:43:40Z</time>
      </trkpt>
      <trkpt lat="46.71497" lon="5.74681">
        <ele>613</ele>
        <time>2021-03-04T14:43:44Z</time>
      </trkpt>
      <trkpt lat="46.71492" lon="5.74678">
        <ele>612.2</ele>
        <time>2021-03-04T14:43:48Z</time>
      </trkpt>
      <trkpt lat="46.71487" lon="5.74675">
        <ele>611.1</ele>
        <time>2021-03-04T14:43:53Z</time>
      </trkpt>
      <trkpt lat="46.71483" lon="5.74671">
        <ele>609.6</ele>
        <time>2021-03-04T14:43:58Z</time>
      </trkpt>
      <trkpt lat="46.71479" lon="5.74665">
        <ele>608.9</ele>
        <time>2021-03-04T14:44:03Z</time>
      </trkpt>
      <trkpt lat="46.71474" lon="5.74663">
        <ele>608.3</ele>
        <time>2021-03-04T14:44:08Z</time>
      </trkpt>
      <trkpt lat="46.7147" lon="5.74661">
        <ele>607.5</ele>
        <time>2021-03-04T14:44:13Z</time>
      </trkpt>
      <trkpt lat="46.71465" lon="5.74658">
        <ele>606.7</ele>
        <time>2021-03-04T14:44:19Z</time>
      </trkpt>
      <trkpt lat="46.71462" lon="5.74652">
        <ele>606.6</ele>
        <time>2021-03-04T14:44:24Z</time>
      </trkpt>
      <trkpt lat="46.71457" lon="5.74649">
        <ele>606.2</ele>
        <time>2021-03-04T14:44:29Z</time>
      </trkpt>
      <trkpt lat="46.71454" lon="5.74643">
        <ele>606</ele>
        <time>2021-03-04T14:44:35Z</time>
      </trkpt>
      <trkpt lat="46.7145" lon="5.74639">
        <ele>606.7</ele>
        <time>2021-03-04T14:44:39Z</time>
      </trkpt>
      <trkpt lat="46.71445" lon="5.74636">
        <ele>607.4</ele>
        <time>2021-03-04T14:44:43Z</time>
      </trkpt>
      <trkpt lat="46.7144" lon="5.74632">
        <ele>608.5</ele>
        <time>2021-03-04T14:44:47Z</time>
      </trkpt>
      <trkpt lat="46.71435" lon="5.7463">
        <ele>609.1</ele>
        <time>2021-03-04T14:44:51Z</time>
      </trkpt>
      <trkpt lat="46.71431" lon="5.74627">
        <ele>609.2</ele>
        <time>2021-03-04T14:44:55Z</time>
      </trkpt>
      <trkpt lat="46.71427" lon="5.74622">
        <ele>609.1</ele>
        <time>2021-03-04T14:45:00Z</time>
      </trkpt>
      <trkpt lat="46.71424" lon="5.74617">
        <ele>608.9</ele>
        <time>2021-03-04T14:45:04Z</time>
      </trkpt>
      <trkpt lat="46.7142" lon="5.74613">
        <ele>608.8</ele>
        <time>2021-03-04T14:45:09Z</time>
      </trkpt>
      <trkpt lat="46.71417" lon="5.74609">
        <ele>609.5</ele>
        <time>2021-03-04T14:45:13Z</time>
      </trkpt>
      <trkpt lat="46.71413" lon="5.74604">
        <ele>610.6</ele>
        <time>2021-03-04T14:45:18Z</time>
      </trkpt>
      <trkpt lat="46.71409" lon="5.74598">
        <ele>611.2</ele>
        <time>2021-03-04T14:45:23Z</time>
      </trkpt>
      <trkpt lat="46.71407" lon="5.74592">
        <ele>611.8</ele>
        <time>2021-03-04T14:45:28Z</time>
      </trkpt>
      <trkpt lat="46.71403" lon="5.74585">
        <ele>613</ele>
        <time>2021-03-04T14:45:33Z</time>
      </trkpt>
      <trkpt lat="46.714" lon="5.7458">
        <ele>614.2</ele>
        <time>2021-03-04T14:45:37Z</time>
      </trkpt>
      <trkpt lat="46.71397" lon="5.74576">
        <ele>614.9</ele>
        <time>2021-03-04T14:45:41Z</time>
      </trkpt>
      <trkpt lat="46.71391" lon="5.74573">
        <ele>615.4</ele>
        <time>2021-03-04T14:45:46Z</time>
      </trkpt>
      <trkpt lat="46.71386" lon="5.74571">
        <ele>615.5</ele>
        <time>2021-03-04T14:45:51Z</time>
      </trkpt>
      <trkpt lat="46.71381" lon="5.74569">
        <ele>615.4</ele>
        <time>2021-03-04T14:45:56Z</time>
      </trkpt>
      <trkpt lat="46.71377" lon="5.74564">
        <ele>615.3</ele>
        <time>2021-03-04T14:46:01Z</time>
      </trkpt>
      <trkpt lat="46.71373" lon="5.7456">
        <ele>615.1</ele>
        <time>2021-03-04T14:46:07Z</time>
      </trkpt>
      <trkpt lat="46.71373" lon="5.74553">
        <ele>615.1</ele>
        <time>2021-03-04T14:46:13Z</time>
      </trkpt>
      <trkpt lat="46.71375" lon="5.74545">
        <ele>615.1</ele>
        <time>2021-03-04T14:46:17Z</time>
      </trkpt>
      <trkpt lat="46.71377" lon="5.74526">
        <ele>617.5</ele>
        <time>2021-03-04T14:46:21Z</time>
      </trkpt>
      <trkpt lat="46.71377" lon="5.74515">
        <ele>619.4</ele>
        <time>2021-03-04T14:46:25Z</time>
      </trkpt>
      <trkpt lat="46.71375" lon="5.74508">
        <ele>620.8</ele>
        <time>2021-03-04T14:46:31Z</time>
      </trkpt>
      <trkpt lat="46.71371" lon="5.74504">
        <ele>621.5</ele>
        <time>2021-03-04T14:46:36Z</time>
      </trkpt>
      <trkpt lat="46.71367" lon="5.745">
        <ele>621.5</ele>
        <time>2021-03-04T14:46:40Z</time>
      </trkpt>
      <trkpt lat="46.71363" lon="5.74498">
        <ele>621.5</ele>
        <time>2021-03-04T14:46:45Z</time>
      </trkpt>
      <trkpt lat="46.7136" lon="5.74491">
        <ele>620.1</ele>
        <time>2021-03-04T14:46:50Z</time>
      </trkpt>
      <trkpt lat="46.71357" lon="5.74486">
        <ele>618.1</ele>
        <time>2021-03-04T14:46:54Z</time>
      </trkpt>
      <trkpt lat="46.71353" lon="5.74486">
        <ele>615.3</ele>
        <time>2021-03-04T14:46:58Z</time>
      </trkpt>
      <trkpt lat="46.71347" lon="5.74485">
        <ele>613.8</ele>
        <time>2021-03-04T14:47:02Z</time>
      </trkpt>
      <trkpt lat="46.71344" lon="5.74481">
        <ele>614.5</ele>
        <time>2021-03-04T14:47:06Z</time>
      </trkpt>
      <trkpt lat="46.71339" lon="5.74479">
        <ele>617.5</ele>
        <time>2021-03-04T14:47:16Z</time>
      </trkpt>
      <trkpt lat="46.71336" lon="5.74474">
        <ele>618.9</ele>
        <time>2021-03-04T14:47:24Z</time>
      </trkpt>
      <trkpt lat="46.71332" lon="5.74474">
        <ele>618.2</ele>
        <time>2021-03-04T14:47:29Z</time>
      </trkpt>
      <trkpt lat="46.71327" lon="5.74472">
        <ele>617.5</ele>
        <time>2021-03-04T14:47:35Z</time>
      </trkpt>
      <trkpt lat="46.71322" lon="5.74469">
        <ele>617.4</ele>
        <time>2021-03-04T14:47:41Z</time>
      </trkpt>
      <trkpt lat="46.71318" lon="5.74466">
        <ele>616.8</ele>
        <time>2021-03-04T14:47:47Z</time>
      </trkpt>
      <trkpt lat="46.71313" lon="5.74464">
        <ele>616</ele>
        <time>2021-03-04T14:47:52Z</time>
      </trkpt>
      <trkpt lat="46.71309" lon="5.7446">
        <ele>615.3</ele>
        <time>2021-03-04T14:47:57Z</time>
      </trkpt>
      <trkpt lat="46.71305" lon="5.74458">
        <ele>614.3</ele>
        <time>2021-03-04T14:48:01Z</time>
      </trkpt>
      <trkpt lat="46.713" lon="5.74457">
        <ele>613.4</ele>
        <time>2021-03-04T14:48:05Z</time>
      </trkpt>
      <trkpt lat="46.71294" lon="5.74456">
        <ele>612.6</ele>
        <time>2021-03-04T14:48:09Z</time>
      </trkpt>
      <trkpt lat="46.7129" lon="5.74453">
        <ele>611.9</ele>
        <time>2021-03-04T14:48:13Z</time>
      </trkpt>
      <trkpt lat="46.71286" lon="5.7445">
        <ele>610.9</ele>
        <time>2021-03-04T14:48:18Z</time>
      </trkpt>
      <trkpt lat="46.71281" lon="5.74448">
        <ele>610.4</ele>
        <time>2021-03-04T14:48:22Z</time>
      </trkpt>
      <trkpt lat="46.71276" lon="5.74446">
        <ele>610</ele>
        <time>2021-03-04T14:48:26Z</time>
      </trkpt>
      <trkpt lat="46.71274" lon="5.74439">
        <ele>610.3</ele>
        <time>2021-03-04T14:48:32Z</time>
      </trkpt>
      <trkpt lat="46.71272" lon="5.74433">
        <ele>610.5</ele>
        <time>2021-03-04T14:48:37Z</time>
      </trkpt>
      <trkpt lat="46.71269" lon="5.74427">
        <ele>610.7</ele>
        <time>2021-03-04T14:48:42Z</time>
      </trkpt>
      <trkpt lat="46.71265" lon="5.74421">
        <ele>611.1</ele>
        <time>2021-03-04T14:48:46Z</time>
      </trkpt>
      <trkpt lat="46.71262" lon="5.74414">
        <ele>611.4</ele>
        <time>2021-03-04T14:48:50Z</time>
      </trkpt>
      <trkpt lat="46.71258" lon="5.7441">
        <ele>611.7</ele>
        <time>2021-03-04T14:48:55Z</time>
      </trkpt>
      <trkpt lat="46.71257" lon="5.74402">
        <ele>611.8</ele>
        <time>2021-03-04T14:49:01Z</time>
      </trkpt>
      <trkpt lat="46.71255" lon="5.74396">
        <ele>612.2</ele>
        <time>2021-03-04T14:49:06Z</time>
      </trkpt>
      <trkpt lat="46.71252" lon="5.74391">
        <ele>613.2</ele>
        <time>2021-03-04T14:49:10Z</time>
      </trkpt>
      <trkpt lat="46.71247" lon="5.74389">
        <ele>614.1</ele>
        <time>2021-03-04T14:49:15Z</time>
      </trkpt>
      <trkpt lat="46.71242" lon="5.74385">
        <ele>614.4</ele>
        <time>2021-03-04T14:49:19Z</time>
      </trkpt>
      <trkpt lat="46.71238" lon="5.74381">
        <ele>614.3</ele>
        <time>2021-03-04T14:49:24Z</time>
      </trkpt>
      <trkpt lat="46.71235" lon="5.74375">
        <ele>613.7</ele>
        <time>2021-03-04T14:49:28Z</time>
      </trkpt>
      <trkpt lat="46.71232" lon="5.74369">
        <ele>612.8</ele>
        <time>2021-03-04T14:49:33Z</time>
      </trkpt>
      <trkpt lat="46.71228" lon="5.74365">
        <ele>612.3</ele>
        <time>2021-03-04T14:49:38Z</time>
      </trkpt>
      <trkpt lat="46.71224" lon="5.74363">
        <ele>612.2</ele>
        <time>2021-03-04T14:49:43Z</time>
      </trkpt>
      <trkpt lat="46.71219" lon="5.74361">
        <ele>612.3</ele>
        <time>2021-03-04T14:49:48Z</time>
      </trkpt>
      <trkpt lat="46.71215" lon="5.74357">
        <ele>612.8</ele>
        <time>2021-03-04T14:49:52Z</time>
      </trkpt>
      <trkpt lat="46.71211" lon="5.74353">
        <ele>613.5</ele>
        <time>2021-03-04T14:49:57Z</time>
      </trkpt>
      <trkpt lat="46.71207" lon="5.74349">
        <ele>614.2</ele>
        <time>2021-03-04T14:50:03Z</time>
      </trkpt>
      <trkpt lat="46.71203" lon="5.74346">
        <ele>615.8</ele>
        <time>2021-03-04T14:50:10Z</time>
      </trkpt>
      <trkpt lat="46.71198" lon="5.74343">
        <ele>617</ele>
        <time>2021-03-04T14:50:16Z</time>
      </trkpt>
      <trkpt lat="46.71192" lon="5.74343">
        <ele>618.2</ele>
        <time>2021-03-04T14:50:22Z</time>
      </trkpt>
      <trkpt lat="46.71188" lon="5.74342">
        <ele>618.8</ele>
        <time>2021-03-04T14:50:27Z</time>
      </trkpt>
      <trkpt lat="46.71183" lon="5.74342">
        <ele>619.5</ele>
        <time>2021-03-04T14:50:32Z</time>
      </trkpt>
      <trkpt lat="46.71178" lon="5.7434">
        <ele>620.1</ele>
        <time>2021-03-04T14:50:38Z</time>
      </trkpt>
      <trkpt lat="46.71173" lon="5.74337">
        <ele>620.4</ele>
        <time>2021-03-04T14:50:44Z</time>
      </trkpt>
      <trkpt lat="46.71169" lon="5.74334">
        <ele>620.5</ele>
        <time>2021-03-04T14:50:49Z</time>
      </trkpt>
      <trkpt lat="46.71159" lon="5.74332">
        <ele>621.8</ele>
        <time>2021-03-04T14:50:53Z</time>
      </trkpt>
      <trkpt lat="46.71153" lon="5.7433">
        <ele>622.9</ele>
        <time>2021-03-04T14:50:57Z</time>
      </trkpt>
      <trkpt lat="46.71149" lon="5.74329">
        <ele>623.2</ele>
        <time>2021-03-04T14:51:05Z</time>
      </trkpt>
      <trkpt lat="46.71144" lon="5.74329">
        <ele>622.9</ele>
        <time>2021-03-04T14:51:11Z</time>
      </trkpt>
      <trkpt lat="46.71139" lon="5.74329">
        <ele>622.6</ele>
        <time>2021-03-04T14:51:17Z</time>
      </trkpt>
      <trkpt lat="46.71134" lon="5.74327">
        <ele>622.6</ele>
        <time>2021-03-04T14:51:24Z</time>
      </trkpt>
      <trkpt lat="46.71129" lon="5.74325">
        <ele>622.4</ele>
        <time>2021-03-04T14:51:34Z</time>
      </trkpt>
      <trkpt lat="46.71124" lon="5.74324">
        <ele>622.2</ele>
        <time>2021-03-04T14:51:38Z</time>
      </trkpt>
      <trkpt lat="46.71116" lon="5.74326">
        <ele>621.9</ele>
        <time>2021-03-04T14:51:42Z</time>
      </trkpt>
      <trkpt lat="46.71111" lon="5.74326">
        <ele>621.8</ele>
        <time>2021-03-04T14:51:46Z</time>
      </trkpt>
      <trkpt lat="46.71106" lon="5.74324">
        <ele>621.9</ele>
        <time>2021-03-04T14:51:54Z</time>
      </trkpt>
      <trkpt lat="46.71095" lon="5.7433">
        <ele>621.3</ele>
        <time>2021-03-04T14:51:58Z</time>
      </trkpt>
      <trkpt lat="46.71088" lon="5.74332">
        <ele>620.1</ele>
        <time>2021-03-04T14:52:02Z</time>
      </trkpt>
      <trkpt lat="46.71084" lon="5.74331">
        <ele>619.5</ele>
        <time>2021-03-04T14:52:06Z</time>
      </trkpt>
      <trkpt lat="46.71078" lon="5.7433">
        <ele>618.7</ele>
        <time>2021-03-04T14:52:11Z</time>
      </trkpt>
      <trkpt lat="46.71073" lon="5.7433">
        <ele>618.4</ele>
        <time>2021-03-04T14:52:16Z</time>
      </trkpt>
      <trkpt lat="46.71068" lon="5.74326">
        <ele>618.4</ele>
        <time>2021-03-04T14:52:24Z</time>
      </trkpt>
      <trkpt lat="46.71063" lon="5.74325">
        <ele>618.3</ele>
        <time>2021-03-04T14:52:29Z</time>
      </trkpt>
      <trkpt lat="46.71056" lon="5.74326">
        <ele>617.7</ele>
        <time>2021-03-04T14:52:33Z</time>
      </trkpt>
      <trkpt lat="46.71051" lon="5.74325">
        <ele>617.2</ele>
        <time>2021-03-04T14:52:38Z</time>
      </trkpt>
      <trkpt lat="46.71046" lon="5.74327">
        <ele>617.2</ele>
        <time>2021-03-04T14:52:44Z</time>
      </trkpt>
      <trkpt lat="46.71041" lon="5.74328">
        <ele>617.4</ele>
        <time>2021-03-04T14:52:49Z</time>
      </trkpt>
      <trkpt lat="46.71036" lon="5.74326">
        <ele>617.8</ele>
        <time>2021-03-04T14:52:53Z</time>
      </trkpt>
      <trkpt lat="46.71031" lon="5.74326">
        <ele>617.8</ele>
        <time>2021-03-04T14:52:58Z</time>
      </trkpt>
      <trkpt lat="46.71026" lon="5.74325">
        <ele>617.6</ele>
        <time>2021-03-04T14:53:02Z</time>
      </trkpt>
      <trkpt lat="46.71021" lon="5.74325">
        <ele>617.5</ele>
        <time>2021-03-04T14:53:07Z</time>
      </trkpt>
      <trkpt lat="46.71016" lon="5.74324">
        <ele>617.3</ele>
        <time>2021-03-04T14:53:12Z</time>
      </trkpt>
      <trkpt lat="46.71011" lon="5.74324">
        <ele>617.2</ele>
        <time>2021-03-04T14:53:18Z</time>
      </trkpt>
      <trkpt lat="46.71006" lon="5.74323">
        <ele>616.9</ele>
        <time>2021-03-04T14:53:24Z</time>
      </trkpt>
      <trkpt lat="46.71002" lon="5.74319">
        <ele>616.7</ele>
        <time>2021-03-04T14:53:32Z</time>
      </trkpt>
      <trkpt lat="46.70998" lon="5.74318">
        <ele>616.6</ele>
        <time>2021-03-04T14:53:36Z</time>
      </trkpt>
      <trkpt lat="46.70993" lon="5.74318">
        <ele>617</ele>
        <time>2021-03-04T14:53:40Z</time>
      </trkpt>
      <trkpt lat="46.70987" lon="5.74316">
        <ele>617.2</ele>
        <time>2021-03-04T14:53:45Z</time>
      </trkpt>
      <trkpt lat="46.70981" lon="5.74313">
        <ele>617.7</ele>
        <time>2021-03-04T14:53:49Z</time>
      </trkpt>
      <trkpt lat="46.70977" lon="5.74311">
        <ele>618.2</ele>
        <time>2021-03-04T14:53:54Z</time>
      </trkpt>
      <trkpt lat="46.70971" lon="5.7431">
        <ele>618.5</ele>
        <time>2021-03-04T14:53:59Z</time>
      </trkpt>
      <trkpt lat="46.70967" lon="5.74308">
        <ele>618.8</ele>
        <time>2021-03-04T14:54:04Z</time>
      </trkpt>
      <trkpt lat="46.70962" lon="5.74306">
        <ele>618.7</ele>
        <time>2021-03-04T14:54:09Z</time>
      </trkpt>
      <trkpt lat="46.70954" lon="5.74305">
        <ele>618.6</ele>
        <time>2021-03-04T14:54:13Z</time>
      </trkpt>
      <trkpt lat="46.70949" lon="5.74302">
        <ele>618.5</ele>
        <time>2021-03-04T14:54:17Z</time>
      </trkpt>
      <trkpt lat="46.70944" lon="5.743">
        <ele>618.3</ele>
        <time>2021-03-04T14:54:21Z</time>
      </trkpt>
      <trkpt lat="46.70939" lon="5.74296">
        <ele>617.9</ele>
        <time>2021-03-04T14:54:25Z</time>
      </trkpt>
      <trkpt lat="46.70935" lon="5.74293">
        <ele>617.2</ele>
        <time>2021-03-04T14:54:30Z</time>
      </trkpt>
      <trkpt lat="46.7093" lon="5.74289">
        <ele>616.9</ele>
        <time>2021-03-04T14:54:35Z</time>
      </trkpt>
      <trkpt lat="46.70926" lon="5.74285">
        <ele>617</ele>
        <time>2021-03-04T14:54:41Z</time>
      </trkpt>
      <trkpt lat="46.70922" lon="5.74281">
        <ele>617.9</ele>
        <time>2021-03-04T14:54:47Z</time>
      </trkpt>
      <trkpt lat="46.70918" lon="5.74278">
        <ele>619.3</ele>
        <time>2021-03-04T14:54:52Z</time>
      </trkpt>
      <trkpt lat="46.70915" lon="5.74273">
        <ele>620.6</ele>
        <time>2021-03-04T14:54:57Z</time>
      </trkpt>
      <trkpt lat="46.70912" lon="5.74267">
        <ele>621.4</ele>
        <time>2021-03-04T14:55:02Z</time>
      </trkpt>
      <trkpt lat="46.70908" lon="5.74263">
        <ele>622</ele>
        <time>2021-03-04T14:55:07Z</time>
      </trkpt>
      <trkpt lat="46.70905" lon="5.74257">
        <ele>623</ele>
        <time>2021-03-04T14:55:13Z</time>
      </trkpt>
      <trkpt lat="46.70902" lon="5.74252">
        <ele>623.9</ele>
        <time>2021-03-04T14:55:19Z</time>
      </trkpt>
      <trkpt lat="46.70899" lon="5.74247">
        <ele>624.8</ele>
        <time>2021-03-04T14:55:26Z</time>
      </trkpt>
      <trkpt lat="46.70895" lon="5.74242">
        <ele>625.5</ele>
        <time>2021-03-04T14:55:32Z</time>
      </trkpt>
      <trkpt lat="46.70891" lon="5.74238">
        <ele>625.9</ele>
        <time>2021-03-04T14:55:36Z</time>
      </trkpt>
      <trkpt lat="46.70887" lon="5.74234">
        <ele>626.3</ele>
        <time>2021-03-04T14:55:40Z</time>
      </trkpt>
      <trkpt lat="46.70882" lon="5.74229">
        <ele>626.7</ele>
        <time>2021-03-04T14:55:44Z</time>
      </trkpt>
      <trkpt lat="46.70878" lon="5.74224">
        <ele>627.5</ele>
        <time>2021-03-04T14:55:48Z</time>
      </trkpt>
      <trkpt lat="46.70873" lon="5.7422">
        <ele>628.5</ele>
        <time>2021-03-04T14:55:53Z</time>
      </trkpt>
      <trkpt lat="46.70868" lon="5.74216">
        <ele>629.2</ele>
        <time>2021-03-04T14:55:57Z</time>
      </trkpt>
      <trkpt lat="46.70864" lon="5.74213">
        <ele>630.2</ele>
        <time>2021-03-04T14:56:01Z</time>
      </trkpt>
      <trkpt lat="46.70859" lon="5.7421">
        <ele>631.2</ele>
        <time>2021-03-04T14:56:06Z</time>
      </trkpt>
      <trkpt lat="46.70856" lon="5.74204">
        <ele>631.9</ele>
        <time>2021-03-04T14:56:11Z</time>
      </trkpt>
      <trkpt lat="46.70852" lon="5.74199">
        <ele>632.1</ele>
        <time>2021-03-04T14:56:15Z</time>
      </trkpt>
      <trkpt lat="46.70847" lon="5.74196">
        <ele>632.3</ele>
        <time>2021-03-04T14:56:21Z</time>
      </trkpt>
      <trkpt lat="46.70844" lon="5.74191">
        <ele>632.7</ele>
        <time>2021-03-04T14:56:26Z</time>
      </trkpt>
      <trkpt lat="46.7084" lon="5.74186">
        <ele>633.1</ele>
        <time>2021-03-04T14:56:31Z</time>
      </trkpt>
      <trkpt lat="46.70837" lon="5.74182">
        <ele>633.4</ele>
        <time>2021-03-04T14:56:35Z</time>
      </trkpt>
      <trkpt lat="46.70832" lon="5.74178">
        <ele>633.8</ele>
        <time>2021-03-04T14:56:39Z</time>
      </trkpt>
      <trkpt lat="46.70827" lon="5.74174">
        <ele>633.6</ele>
        <time>2021-03-04T14:56:43Z</time>
      </trkpt>
      <trkpt lat="46.70823" lon="5.74169">
        <ele>633.4</ele>
        <time>2021-03-04T14:56:48Z</time>
      </trkpt>
      <trkpt lat="46.7082" lon="5.74164">
        <ele>633.4</ele>
        <time>2021-03-04T14:56:53Z</time>
      </trkpt>
      <trkpt lat="46.70816" lon="5.74161">
        <ele>633.4</ele>
        <time>2021-03-04T14:56:57Z</time>
      </trkpt>
      <trkpt lat="46.70811" lon="5.74158">
        <ele>633</ele>
        <time>2021-03-04T14:57:01Z</time>
      </trkpt>
      <trkpt lat="46.70806" lon="5.74156">
        <ele>632.2</ele>
        <time>2021-03-04T14:57:05Z</time>
      </trkpt>
      <trkpt lat="46.70802" lon="5.74153">
        <ele>631.4</ele>
        <time>2021-03-04T14:57:09Z</time>
      </trkpt>
      <trkpt lat="46.70798" lon="5.7415">
        <ele>630.7</ele>
        <time>2021-03-04T14:57:14Z</time>
      </trkpt>
      <trkpt lat="46.70793" lon="5.74147">
        <ele>630.3</ele>
        <time>2021-03-04T14:57:19Z</time>
      </trkpt>
      <trkpt lat="46.70788" lon="5.74142">
        <ele>630.1</ele>
        <time>2021-03-04T14:57:25Z</time>
      </trkpt>
      <trkpt lat="46.70784" lon="5.74139">
        <ele>630.2</ele>
        <time>2021-03-04T14:57:30Z</time>
      </trkpt>
      <trkpt lat="46.70779" lon="5.74136">
        <ele>629.8</ele>
        <time>2021-03-04T14:57:36Z</time>
      </trkpt>
      <trkpt lat="46.70776" lon="5.74131">
        <ele>630.2</ele>
        <time>2021-03-04T14:57:41Z</time>
      </trkpt>
      <trkpt lat="46.70773" lon="5.74126">
        <ele>630.8</ele>
        <time>2021-03-04T14:57:48Z</time>
      </trkpt>
      <trkpt lat="46.70768" lon="5.74124">
        <ele>630.8</ele>
        <time>2021-03-04T14:57:53Z</time>
      </trkpt>
      <trkpt lat="46.70762" lon="5.7412">
        <ele>630.9</ele>
        <time>2021-03-04T14:57:58Z</time>
      </trkpt>
      <trkpt lat="46.70758" lon="5.74117">
        <ele>629.6</ele>
        <time>2021-03-04T14:58:02Z</time>
      </trkpt>
      <trkpt lat="46.70754" lon="5.74115">
        <ele>627.5</ele>
        <time>2021-03-04T14:58:07Z</time>
      </trkpt>
      <trkpt lat="46.7075" lon="5.74112">
        <ele>622.4</ele>
        <time>2021-03-04T14:58:16Z</time>
      </trkpt>
      <trkpt lat="46.70745" lon="5.74106">
        <ele>621.4</ele>
        <time>2021-03-04T14:58:20Z</time>
      </trkpt>
      <trkpt lat="46.70739" lon="5.74101">
        <ele>620.8</ele>
        <time>2021-03-04T14:58:24Z</time>
      </trkpt>
      <trkpt lat="46.70732" lon="5.74091">
        <ele>623.7</ele>
        <time>2021-03-04T14:58:28Z</time>
      </trkpt>
      <trkpt lat="46.70727" lon="5.74087">
        <ele>624.2</ele>
        <time>2021-03-04T14:58:32Z</time>
      </trkpt>
      <trkpt lat="46.70724" lon="5.74082">
        <ele>623.8</ele>
        <time>2021-03-04T14:58:36Z</time>
      </trkpt>
      <trkpt lat="46.70721" lon="5.74075">
        <ele>622.7</ele>
        <time>2021-03-04T14:58:41Z</time>
      </trkpt>
      <trkpt lat="46.70717" lon="5.7407">
        <ele>621.6</ele>
        <time>2021-03-04T14:58:45Z</time>
      </trkpt>
      <trkpt lat="46.70713" lon="5.74066">
        <ele>620</ele>
        <time>2021-03-04T14:58:50Z</time>
      </trkpt>
      <trkpt lat="46.70709" lon="5.74061">
        <ele>618.7</ele>
        <time>2021-03-04T14:58:55Z</time>
      </trkpt>
      <trkpt lat="46.70706" lon="5.74056">
        <ele>617</ele>
        <time>2021-03-04T14:59:02Z</time>
      </trkpt>
      <trkpt lat="46.70703" lon="5.74052">
        <ele>614.5</ele>
        <time>2021-03-04T14:59:14Z</time>
      </trkpt>
      <trkpt lat="46.70699" lon="5.74047">
        <ele>613.8</ele>
        <time>2021-03-04T14:59:19Z</time>
      </trkpt>
      <trkpt lat="46.70695" lon="5.74033">
        <ele>622.8</ele>
        <time>2021-03-04T14:59:24Z</time>
      </trkpt>
      <trkpt lat="46.70691" lon="5.74024">
        <ele>633</ele>
        <time>2021-03-04T14:59:28Z</time>
      </trkpt>
      <trkpt lat="46.70686" lon="5.74022">
        <ele>643.2</ele>
        <time>2021-03-04T14:59:34Z</time>
      </trkpt>
      <trkpt lat="46.70682" lon="5.74017">
        <ele>649.4</ele>
        <time>2021-03-04T14:59:40Z</time>
      </trkpt>
      <trkpt lat="46.70678" lon="5.74014">
        <ele>651.9</ele>
        <time>2021-03-04T14:59:44Z</time>
      </trkpt>
      <trkpt lat="46.70673" lon="5.74011">
        <ele>654.6</ele>
        <time>2021-03-04T14:59:50Z</time>
      </trkpt>
      <trkpt lat="46.70669" lon="5.74007">
        <ele>656.3</ele>
        <time>2021-03-04T14:59:56Z</time>
      </trkpt>
      <trkpt lat="46.70664" lon="5.74006">
        <ele>656.7</ele>
        <time>2021-03-04T15:00:00Z</time>
      </trkpt>
      <trkpt lat="46.70659" lon="5.74006">
        <ele>655.8</ele>
        <time>2021-03-04T15:00:04Z</time>
      </trkpt>
      <trkpt lat="46.70654" lon="5.74004">
        <ele>654.7</ele>
        <time>2021-03-04T15:00:08Z</time>
      </trkpt>
      <trkpt lat="46.7065" lon="5.74002">
        <ele>654</ele>
        <time>2021-03-04T15:00:13Z</time>
      </trkpt>
      <trkpt lat="46.70646" lon="5.73999">
        <ele>653.7</ele>
        <time>2021-03-04T15:00:19Z</time>
      </trkpt>
      <trkpt lat="46.70642" lon="5.73996">
        <ele>653.6</ele>
        <time>2021-03-04T15:00:23Z</time>
      </trkpt>
      <trkpt lat="46.70638" lon="5.73991">
        <ele>653</ele>
        <time>2021-03-04T15:00:27Z</time>
      </trkpt>
      <trkpt lat="46.70631" lon="5.73988">
        <ele>651.6</ele>
        <time>2021-03-04T15:00:31Z</time>
      </trkpt>
      <trkpt lat="46.70626" lon="5.73986">
        <ele>650.2</ele>
        <time>2021-03-04T15:00:35Z</time>
      </trkpt>
      <trkpt lat="46.70622" lon="5.73985">
        <ele>648.8</ele>
        <time>2021-03-04T15:00:40Z</time>
      </trkpt>
      <trkpt lat="46.70617" lon="5.73982">
        <ele>647.6</ele>
        <time>2021-03-04T15:00:45Z</time>
      </trkpt>
      <trkpt lat="46.70613" lon="5.73979">
        <ele>646.7</ele>
        <time>2021-03-04T15:00:50Z</time>
      </trkpt>
      <trkpt lat="46.70609" lon="5.73974">
        <ele>645.7</ele>
        <time>2021-03-04T15:00:54Z</time>
      </trkpt>
      <trkpt lat="46.70604" lon="5.73972">
        <ele>644.9</ele>
        <time>2021-03-04T15:01:00Z</time>
      </trkpt>
      <trkpt lat="46.70598" lon="5.73971">
        <ele>644.2</ele>
        <time>2021-03-04T15:01:05Z</time>
      </trkpt>
      <trkpt lat="46.70593" lon="5.73967">
        <ele>643.4</ele>
        <time>2021-03-04T15:01:10Z</time>
      </trkpt>
      <trkpt lat="46.70589" lon="5.73964">
        <ele>642.9</ele>
        <time>2021-03-04T15:01:15Z</time>
      </trkpt>
      <trkpt lat="46.70584" lon="5.73961">
        <ele>642.5</ele>
        <time>2021-03-04T15:01:19Z</time>
      </trkpt>
      <trkpt lat="46.7058" lon="5.73958">
        <ele>642.2</ele>
        <time>2021-03-04T15:01:23Z</time>
      </trkpt>
      <trkpt lat="46.70574" lon="5.73955">
        <ele>641.9</ele>
        <time>2021-03-04T15:01:28Z</time>
      </trkpt>
      <trkpt lat="46.7057" lon="5.73952">
        <ele>641.6</ele>
        <time>2021-03-04T15:01:32Z</time>
      </trkpt>
      <trkpt lat="46.70566" lon="5.73949">
        <ele>641.3</ele>
        <time>2021-03-04T15:01:36Z</time>
      </trkpt>
      <trkpt lat="46.70561" lon="5.73947">
        <ele>641.1</ele>
        <time>2021-03-04T15:01:40Z</time>
      </trkpt>
      <trkpt lat="46.70556" lon="5.73945">
        <ele>640.6</ele>
        <time>2021-03-04T15:01:44Z</time>
      </trkpt>
      <trkpt lat="46.70551" lon="5.73943">
        <ele>640.3</ele>
        <time>2021-03-04T15:01:49Z</time>
      </trkpt>
      <trkpt lat="46.70547" lon="5.73939">
        <ele>640.6</ele>
        <time>2021-03-04T15:01:55Z</time>
      </trkpt>
      <trkpt lat="46.70543" lon="5.73936">
        <ele>641</ele>
        <time>2021-03-04T15:02:01Z</time>
      </trkpt>
      <trkpt lat="46.70539" lon="5.73931">
        <ele>641.6</ele>
        <time>2021-03-04T15:02:07Z</time>
      </trkpt>
      <trkpt lat="46.70536" lon="5.73926">
        <ele>642</ele>
        <time>2021-03-04T15:02:12Z</time>
      </trkpt>
      <trkpt lat="46.70532" lon="5.73922">
        <ele>642.3</ele>
        <time>2021-03-04T15:02:16Z</time>
      </trkpt>
      <trkpt lat="46.70527" lon="5.73919">
        <ele>642.7</ele>
        <time>2021-03-04T15:02:20Z</time>
      </trkpt>
      <trkpt lat="46.70522" lon="5.73917">
        <ele>643.4</ele>
        <time>2021-03-04T15:02:25Z</time>
      </trkpt>
      <trkpt lat="46.70518" lon="5.73914">
        <ele>644</ele>
        <time>2021-03-04T15:02:30Z</time>
      </trkpt>
      <trkpt lat="46.70513" lon="5.73912">
        <ele>644.2</ele>
        <time>2021-03-04T15:02:35Z</time>
      </trkpt>
      <trkpt lat="46.70506" lon="5.7391">
        <ele>644.6</ele>
        <time>2021-03-04T15:02:40Z</time>
      </trkpt>
      <trkpt lat="46.705" lon="5.73908">
        <ele>645.2</ele>
        <time>2021-03-04T15:02:44Z</time>
      </trkpt>
      <trkpt lat="46.70495" lon="5.73906">
        <ele>645.7</ele>
        <time>2021-03-04T15:02:48Z</time>
      </trkpt>
      <trkpt lat="46.7049" lon="5.73904">
        <ele>645.6</ele>
        <time>2021-03-04T15:02:52Z</time>
      </trkpt>
      <trkpt lat="46.70484" lon="5.73901">
        <ele>645.6</ele>
        <time>2021-03-04T15:02:57Z</time>
      </trkpt>
      <trkpt lat="46.7048" lon="5.73899">
        <ele>645.8</ele>
        <time>2021-03-04T15:03:01Z</time>
      </trkpt>
      <trkpt lat="46.70475" lon="5.73896">
        <ele>646.1</ele>
        <time>2021-03-04T15:03:05Z</time>
      </trkpt>
      <trkpt lat="46.70471" lon="5.73893">
        <ele>646.6</ele>
        <time>2021-03-04T15:03:10Z</time>
      </trkpt>
      <trkpt lat="46.70468" lon="5.73887">
        <ele>647.5</ele>
        <time>2021-03-04T15:03:16Z</time>
      </trkpt>
      <trkpt lat="46.70464" lon="5.73885">
        <ele>647.8</ele>
        <time>2021-03-04T15:03:21Z</time>
      </trkpt>
      <trkpt lat="46.70459" lon="5.73882">
        <ele>647.9</ele>
        <time>2021-03-04T15:03:25Z</time>
      </trkpt>
      <trkpt lat="46.70454" lon="5.7388">
        <ele>647.8</ele>
        <time>2021-03-04T15:03:30Z</time>
      </trkpt>
      <trkpt lat="46.7045" lon="5.73875">
        <ele>648</ele>
        <time>2021-03-04T15:03:35Z</time>
      </trkpt>
      <trkpt lat="46.70446" lon="5.73873">
        <ele>648</ele>
        <time>2021-03-04T15:03:39Z</time>
      </trkpt>
      <trkpt lat="46.70441" lon="5.7387">
        <ele>648.2</ele>
        <time>2021-03-04T15:03:44Z</time>
      </trkpt>
      <trkpt lat="46.70436" lon="5.73867">
        <ele>648.6</ele>
        <time>2021-03-04T15:03:50Z</time>
      </trkpt>
      <trkpt lat="46.70432" lon="5.73864">
        <ele>648.8</ele>
        <time>2021-03-04T15:03:56Z</time>
      </trkpt>
      <trkpt lat="46.70428" lon="5.73866">
        <ele>648.7</ele>
        <time>2021-03-04T15:04:04Z</time>
      </trkpt>
      <trkpt lat="46.70425" lon="5.73861">
        <ele>645.9</ele>
        <time>2021-03-04T15:04:12Z</time>
      </trkpt>
      <trkpt lat="46.70421" lon="5.73856">
        <ele>647.3</ele>
        <time>2021-03-04T15:04:19Z</time>
      </trkpt>
      <trkpt lat="46.70416" lon="5.73853">
        <ele>648.4</ele>
        <time>2021-03-04T15:04:25Z</time>
      </trkpt>
      <trkpt lat="46.70411" lon="5.73852">
        <ele>648.6</ele>
        <time>2021-03-04T15:04:30Z</time>
      </trkpt>
      <trkpt lat="46.70406" lon="5.7385">
        <ele>649.9</ele>
        <time>2021-03-04T15:04:36Z</time>
      </trkpt>
      <trkpt lat="46.70402" lon="5.73847">
        <ele>651.3</ele>
        <time>2021-03-04T15:04:41Z</time>
      </trkpt>
      <trkpt lat="46.70397" lon="5.73846">
        <ele>650.5</ele>
        <time>2021-03-04T15:04:46Z</time>
      </trkpt>
      <trkpt lat="46.70394" lon="5.7384">
        <ele>647.1</ele>
        <time>2021-03-04T15:04:53Z</time>
      </trkpt>
      <trkpt lat="46.70389" lon="5.73839">
        <ele>643.8</ele>
        <time>2021-03-04T15:05:00Z</time>
      </trkpt>
      <trkpt lat="46.70383" lon="5.73842">
        <ele>643.3</ele>
        <time>2021-03-04T15:05:05Z</time>
      </trkpt>
      <trkpt lat="46.70377" lon="5.73846">
        <ele>643</ele>
        <time>2021-03-04T15:05:09Z</time>
      </trkpt>
      <trkpt lat="46.70372" lon="5.73846">
        <ele>642.9</ele>
        <time>2021-03-04T15:05:13Z</time>
      </trkpt>
      <trkpt lat="46.7037" lon="5.7384">
        <ele>642.9</ele>
        <time>2021-03-04T15:05:20Z</time>
      </trkpt>
      <trkpt lat="46.70366" lon="5.73837">
        <ele>644</ele>
        <time>2021-03-04T15:05:25Z</time>
      </trkpt>
      <trkpt lat="46.70361" lon="5.73835">
        <ele>647.3</ele>
        <time>2021-03-04T15:05:31Z</time>
      </trkpt>
      <trkpt lat="46.70356" lon="5.73836">
        <ele>650.2</ele>
        <time>2021-03-04T15:05:47Z</time>
      </trkpt>
      <trkpt lat="46.70352" lon="5.7384">
        <ele>649.7</ele>
        <time>2021-03-04T15:05:51Z</time>
      </trkpt>
      <trkpt lat="46.70347" lon="5.73842">
        <ele>649.4</ele>
        <time>2021-03-04T15:05:55Z</time>
      </trkpt>
      <trkpt lat="46.70341" lon="5.73844">
        <ele>649.1</ele>
        <time>2021-03-04T15:05:59Z</time>
      </trkpt>
      <trkpt lat="46.70344" lon="5.73835">
        <ele>654.1</ele>
        <time>2021-03-04T15:06:32Z</time>
      </trkpt>
      <trkpt lat="46.70341" lon="5.7383">
        <ele>663.8</ele>
        <time>2021-03-04T15:06:45Z</time>
      </trkpt>
      <trkpt lat="46.70339" lon="5.73824">
        <ele>663.6</ele>
        <time>2021-03-04T15:06:51Z</time>
      </trkpt>
      <trkpt lat="46.70338" lon="5.73817">
        <ele>663.1</ele>
        <time>2021-03-04T15:06:55Z</time>
      </trkpt>
      <trkpt lat="46.70336" lon="5.73811">
        <ele>661.8</ele>
        <time>2021-03-04T15:07:00Z</time>
      </trkpt>
      <trkpt lat="46.70332" lon="5.73807">
        <ele>659.6</ele>
        <time>2021-03-04T15:07:05Z</time>
      </trkpt>
      <trkpt lat="46.70327" lon="5.73802">
        <ele>656</ele>
        <time>2021-03-04T15:07:11Z</time>
      </trkpt>
      <trkpt lat="46.70324" lon="5.73797">
        <ele>652.3</ele>
        <time>2021-03-04T15:07:16Z</time>
      </trkpt>
      <trkpt lat="46.70318" lon="5.73795">
        <ele>648.9</ele>
        <time>2021-03-04T15:07:22Z</time>
      </trkpt>
      <trkpt lat="46.70314" lon="5.73791">
        <ele>646.3</ele>
        <time>2021-03-04T15:07:28Z</time>
      </trkpt>
      <trkpt lat="46.70309" lon="5.73788">
        <ele>644.7</ele>
        <time>2021-03-04T15:07:33Z</time>
      </trkpt>
      <trkpt lat="46.70305" lon="5.73783">
        <ele>643.3</ele>
        <time>2021-03-04T15:07:37Z</time>
      </trkpt>
      <trkpt lat="46.70302" lon="5.73778">
        <ele>642.1</ele>
        <time>2021-03-04T15:07:42Z</time>
      </trkpt>
      <trkpt lat="46.70299" lon="5.73772">
        <ele>640.8</ele>
        <time>2021-03-04T15:07:48Z</time>
      </trkpt>
      <trkpt lat="46.70296" lon="5.73766">
        <ele>639.7</ele>
        <time>2021-03-04T15:07:54Z</time>
      </trkpt>
      <trkpt lat="46.70292" lon="5.73762">
        <ele>638.8</ele>
        <time>2021-03-04T15:07:59Z</time>
      </trkpt>
      <trkpt lat="46.70288" lon="5.73759">
        <ele>637.6</ele>
        <time>2021-03-04T15:08:05Z</time>
      </trkpt>
      <trkpt lat="46.70285" lon="5.73753">
        <ele>636.4</ele>
        <time>2021-03-04T15:08:11Z</time>
      </trkpt>
      <trkpt lat="46.7028" lon="5.73751">
        <ele>635.7</ele>
        <time>2021-03-04T15:08:17Z</time>
      </trkpt>
      <trkpt lat="46.70276" lon="5.73748">
        <ele>635.5</ele>
        <time>2021-03-04T15:08:22Z</time>
      </trkpt>
      <trkpt lat="46.70272" lon="5.73745">
        <ele>635.4</ele>
        <time>2021-03-04T15:08:27Z</time>
      </trkpt>
      <trkpt lat="46.70269" lon="5.73739">
        <ele>635.2</ele>
        <time>2021-03-04T15:08:36Z</time>
      </trkpt>
      <trkpt lat="46.70271" lon="5.73733">
        <ele>636.3</ele>
        <time>2021-03-04T15:08:46Z</time>
      </trkpt>
      <trkpt lat="46.70275" lon="5.73728">
        <ele>637.6</ele>
        <time>2021-03-04T15:08:53Z</time>
      </trkpt>
      <trkpt lat="46.70278" lon="5.73722">
        <ele>640.1</ele>
        <time>2021-03-04T15:09:04Z</time>
      </trkpt>
      <trkpt lat="46.70282" lon="5.73717">
        <ele>642.1</ele>
        <time>2021-03-04T15:09:10Z</time>
      </trkpt>
      <trkpt lat="46.70285" lon="5.73712">
        <ele>643.5</ele>
        <time>2021-03-04T15:09:16Z</time>
      </trkpt>
      <trkpt lat="46.70282" lon="5.73706">
        <ele>646.4</ele>
        <time>2021-03-04T15:09:58Z</time>
      </trkpt>
      <trkpt lat="46.70286" lon="5.73702">
        <ele>647.1</ele>
        <time>2021-03-04T15:10:31Z</time>
      </trkpt>
      <trkpt lat="46.70283" lon="5.73697">
        <ele>646.9</ele>
        <time>2021-03-04T15:10:49Z</time>
      </trkpt>
      <trkpt lat="46.70278" lon="5.73694">
        <ele>647.8</ele>
        <time>2021-03-04T15:10:57Z</time>
      </trkpt>
      <trkpt lat="46.70275" lon="5.73689">
        <ele>648.8</ele>
        <time>2021-03-04T15:11:04Z</time>
      </trkpt>
      <trkpt lat="46.70271" lon="5.73685">
        <ele>649.4</ele>
        <time>2021-03-04T15:11:13Z</time>
      </trkpt>
      <trkpt lat="46.70267" lon="5.7368">
        <ele>649.3</ele>
        <time>2021-03-04T15:11:20Z</time>
      </trkpt>
      <trkpt lat="46.70264" lon="5.73675">
        <ele>649.3</ele>
        <time>2021-03-04T15:11:26Z</time>
      </trkpt>
      <trkpt lat="46.70261" lon="5.7367">
        <ele>649.3</ele>
        <time>2021-03-04T15:11:32Z</time>
      </trkpt>
      <trkpt lat="46.70258" lon="5.73664">
        <ele>649.4</ele>
        <time>2021-03-04T15:11:39Z</time>
      </trkpt>
      <trkpt lat="46.70256" lon="5.73657">
        <ele>649.6</ele>
        <time>2021-03-04T15:11:45Z</time>
      </trkpt>
      <trkpt lat="46.70253" lon="5.73653">
        <ele>650.5</ele>
        <time>2021-03-04T15:11:52Z</time>
      </trkpt>
      <trkpt lat="46.7025" lon="5.73647">
        <ele>651.7</ele>
        <time>2021-03-04T15:11:59Z</time>
      </trkpt>
      <trkpt lat="46.70247" lon="5.73641">
        <ele>653.2</ele>
        <time>2021-03-04T15:12:06Z</time>
      </trkpt>
      <trkpt lat="46.70244" lon="5.73637">
        <ele>655.1</ele>
        <time>2021-03-04T15:12:13Z</time>
      </trkpt>
      <trkpt lat="46.70241" lon="5.73632">
        <ele>656.8</ele>
        <time>2021-03-04T15:12:20Z</time>
      </trkpt>
      <trkpt lat="46.70237" lon="5.73627">
        <ele>658.5</ele>
        <time>2021-03-04T15:12:28Z</time>
      </trkpt>
      <trkpt lat="46.70236" lon="5.73621">
        <ele>660.1</ele>
        <time>2021-03-04T15:12:45Z</time>
      </trkpt>
      <trkpt lat="46.70235" lon="5.73615">
        <ele>660.8</ele>
        <time>2021-03-04T15:12:56Z</time>
      </trkpt>
      <trkpt lat="46.70236" lon="5.73622">
        <ele>659.7</ele>
        <time>2021-03-04T15:13:29Z</time>
      </trkpt>
      <trkpt lat="46.70236" lon="5.73629">
        <ele>659.7</ele>
        <time>2021-03-04T15:13:33Z</time>
      </trkpt>
      <trkpt lat="46.70233" lon="5.73636">
        <ele>661.3</ele>
        <time>2021-03-04T15:13:39Z</time>
      </trkpt>
      <trkpt lat="46.70235" lon="5.73629">
        <ele>662.2</ele>
        <time>2021-03-04T15:13:44Z</time>
      </trkpt>
      <trkpt lat="46.70235" lon="5.73622">
        <ele>663.2</ele>
        <time>2021-03-04T15:13:50Z</time>
      </trkpt>
      <trkpt lat="46.7023" lon="5.7362">
        <ele>664.2</ele>
        <time>2021-03-04T15:14:04Z</time>
      </trkpt>
      <trkpt lat="46.70225" lon="5.73621">
        <ele>678.8</ele>
        <time>2021-03-04T15:14:37Z</time>
      </trkpt>
      <trkpt lat="46.7023" lon="5.73622">
        <ele>682.7</ele>
        <time>2021-03-04T15:14:58Z</time>
      </trkpt>
      <trkpt lat="46.70235" lon="5.73625">
        <ele>678.6</ele>
        <time>2021-03-04T15:15:14Z</time>
      </trkpt>
      <trkpt lat="46.70234" lon="5.73618">
        <ele>672.2</ele>
        <time>2021-03-04T15:16:01Z</time>
      </trkpt>
      <trkpt lat="46.70229" lon="5.73619">
        <ele>667.9</ele>
        <time>2021-03-04T15:16:19Z</time>
      </trkpt>
      <trkpt lat="46.70226" lon="5.73615">
        <ele>671.8</ele>
        <time>2021-03-04T15:16:32Z</time>
      </trkpt>
      <trkpt lat="46.70222" lon="5.7361">
        <ele>673.2</ele>
        <time>2021-03-04T15:16:43Z</time>
      </trkpt>
      <trkpt lat="46.70227" lon="5.73612">
        <ele>672.6</ele>
        <time>2021-03-04T15:16:55Z</time>
      </trkpt>
      <trkpt lat="46.70231" lon="5.73614">
        <ele>672.7</ele>
        <time>2021-03-04T15:17:02Z</time>
      </trkpt>
      <trkpt lat="46.70236" lon="5.73616">
        <ele>673.4</ele>
        <time>2021-03-04T15:17:07Z</time>
      </trkpt>
      <trkpt lat="46.7024" lon="5.73617">
        <ele>674.6</ele>
        <time>2021-03-04T15:17:13Z</time>
      </trkpt>
      <trkpt lat="46.70244" lon="5.73621">
        <ele>676</ele>
        <time>2021-03-04T15:17:20Z</time>
      </trkpt>
      <trkpt lat="46.70248" lon="5.73625">
        <ele>679.2</ele>
        <time>2021-03-04T15:17:31Z</time>
      </trkpt>
      <trkpt lat="46.70251" lon="5.7363">
        <ele>681</ele>
        <time>2021-03-04T15:17:38Z</time>
      </trkpt>
      <trkpt lat="46.70255" lon="5.73634">
        <ele>683.5</ele>
        <time>2021-03-04T15:17:49Z</time>
      </trkpt>
      <trkpt lat="46.7026" lon="5.73633">
        <ele>684.7</ele>
        <time>2021-03-04T15:18:02Z</time>
      </trkpt>
      <trkpt lat="46.70265" lon="5.73634">
        <ele>685.2</ele>
        <time>2021-03-04T15:18:30Z</time>
      </trkpt>
      <trkpt lat="46.70262" lon="5.73628">
        <ele>681.9</ele>
        <time>2021-03-04T15:19:16Z</time>
      </trkpt>
      <trkpt lat="46.70263" lon="5.73621">
        <ele>681</ele>
        <time>2021-03-04T15:19:44Z</time>
      </trkpt>
      <trkpt lat="46.70259" lon="5.73624">
        <ele>677.2</ele>
        <time>2021-03-04T15:20:46Z</time>
      </trkpt>
      <trkpt lat="46.70257" lon="5.7363">
        <ele>676.3</ele>
        <time>2021-03-04T15:21:04Z</time>
      </trkpt>
      <trkpt lat="46.70252" lon="5.73629">
        <ele>675.2</ele>
        <time>2021-03-04T15:21:12Z</time>
      </trkpt>
      <trkpt lat="46.70248" lon="5.7363">
        <ele>673.8</ele>
        <time>2021-03-04T15:21:25Z</time>
      </trkpt>
      <trkpt lat="46.70245" lon="5.73625">
        <ele>674.5</ele>
        <time>2021-03-04T15:21:51Z</time>
      </trkpt>
      <trkpt lat="46.7024" lon="5.73623">
        <ele>674.4</ele>
        <time>2021-03-04T15:21:59Z</time>
      </trkpt>
      <trkpt lat="46.70235" lon="5.73622">
        <ele>674.5</ele>
        <time>2021-03-04T15:22:04Z</time>
      </trkpt>
      <trkpt lat="46.70232" lon="5.73617">
        <ele>675</ele>
        <time>2021-03-04T15:22:31Z</time>
      </trkpt>
      <trkpt lat="46.70228" lon="5.73613">
        <ele>674.8</ele>
        <time>2021-03-04T15:22:39Z</time>
      </trkpt>
      <trkpt lat="46.70219" lon="5.7362">
        <ele>676.5</ele>
        <time>2021-03-04T15:22:43Z</time>
      </trkpt>
      <trkpt lat="46.70215" lon="5.73616">
        <ele>678</ele>
        <time>2021-03-04T15:22:50Z</time>
      </trkpt>
      <trkpt lat="46.70212" lon="5.73611">
        <ele>679.1</ele>
        <time>2021-03-04T15:22:56Z</time>
      </trkpt>
      <trkpt lat="46.70209" lon="5.73605">
        <ele>680</ele>
        <time>2021-03-04T15:23:03Z</time>
      </trkpt>
      <trkpt lat="46.70208" lon="5.73598">
        <ele>680.4</ele>
        <time>2021-03-04T15:23:09Z</time>
      </trkpt>
      <trkpt lat="46.70204" lon="5.73594">
        <ele>680.7</ele>
        <time>2021-03-04T15:23:15Z</time>
      </trkpt>
      <trkpt lat="46.70199" lon="5.73591">
        <ele>680.8</ele>
        <time>2021-03-04T15:23:21Z</time>
      </trkpt>
      <trkpt lat="46.70195" lon="5.73587">
        <ele>680.8</ele>
        <time>2021-03-04T15:23:26Z</time>
      </trkpt>
      <trkpt lat="46.70191" lon="5.73583">
        <ele>680.7</ele>
        <time>2021-03-04T15:23:32Z</time>
      </trkpt>
      <trkpt lat="46.70188" lon="5.73578">
        <ele>680.7</ele>
        <time>2021-03-04T15:23:38Z</time>
      </trkpt>
      <trkpt lat="46.70184" lon="5.73574">
        <ele>680.8</ele>
        <time>2021-03-04T15:23:44Z</time>
      </trkpt>
      <trkpt lat="46.70181" lon="5.73569">
        <ele>680.9</ele>
        <time>2021-03-04T15:23:51Z</time>
      </trkpt>
      <trkpt lat="46.70176" lon="5.73568">
        <ele>679.6</ele>
        <time>2021-03-04T15:23:56Z</time>
      </trkpt>
      <trkpt lat="46.70171" lon="5.73566">
        <ele>678.1</ele>
        <time>2021-03-04T15:24:07Z</time>
      </trkpt>
      <trkpt lat="46.70168" lon="5.73562">
        <ele>677.4</ele>
        <time>2021-03-04T15:24:12Z</time>
      </trkpt>
      <trkpt lat="46.70163" lon="5.73559">
        <ele>676</ele>
        <time>2021-03-04T15:24:16Z</time>
      </trkpt>
      <trkpt lat="46.70159" lon="5.73555">
        <ele>674.1</ele>
        <time>2021-03-04T15:24:22Z</time>
      </trkpt>
      <trkpt lat="46.70156" lon="5.73551">
        <ele>673.1</ele>
        <time>2021-03-04T15:24:29Z</time>
      </trkpt>
      <trkpt lat="46.70154" lon="5.73545">
        <ele>672.8</ele>
        <time>2021-03-04T15:24:39Z</time>
      </trkpt>
      <trkpt lat="46.70152" lon="5.73538">
        <ele>673.2</ele>
        <time>2021-03-04T15:24:52Z</time>
      </trkpt>
      <trkpt lat="46.70149" lon="5.73533">
        <ele>675.2</ele>
        <time>2021-03-04T15:24:56Z</time>
      </trkpt>
      <trkpt lat="46.70146" lon="5.73527">
        <ele>676.6</ele>
        <time>2021-03-04T15:25:02Z</time>
      </trkpt>
      <trkpt lat="46.70142" lon="5.73524">
        <ele>677.4</ele>
        <time>2021-03-04T15:25:08Z</time>
      </trkpt>
      <trkpt lat="46.70137" lon="5.73521">
        <ele>678</ele>
        <time>2021-03-04T15:25:14Z</time>
      </trkpt>
      <trkpt lat="46.70132" lon="5.73518">
        <ele>678.5</ele>
        <time>2021-03-04T15:25:20Z</time>
      </trkpt>
      <trkpt lat="46.70129" lon="5.73513">
        <ele>679</ele>
        <time>2021-03-04T15:25:28Z</time>
      </trkpt>
      <trkpt lat="46.70124" lon="5.7351">
        <ele>679</ele>
        <time>2021-03-04T15:25:37Z</time>
      </trkpt>
      <trkpt lat="46.7012" lon="5.73508">
        <ele>678.7</ele>
        <time>2021-03-04T15:25:44Z</time>
      </trkpt>
      <trkpt lat="46.70114" lon="5.73509">
        <ele>685.4</ele>
        <time>2021-03-04T15:26:59Z</time>
      </trkpt>
      <trkpt lat="46.70111" lon="5.73505">
        <ele>683.2</ele>
        <time>2021-03-04T15:27:17Z</time>
      </trkpt>
      <trkpt lat="46.70106" lon="5.73506">
        <ele>677.3</ele>
        <time>2021-03-04T15:27:35Z</time>
      </trkpt>
      <trkpt lat="46.70103" lon="5.73501">
        <ele>680</ele>
        <time>2021-03-04T15:28:47Z</time>
      </trkpt>
      <trkpt lat="46.70098" lon="5.73496">
        <ele>680.2</ele>
        <time>2021-03-04T15:28:53Z</time>
      </trkpt>
      <trkpt lat="46.70095" lon="5.73492">
        <ele>679.9</ele>
        <time>2021-03-04T15:29:02Z</time>
      </trkpt>
      <trkpt lat="46.70096" lon="5.73486">
        <ele>677.8</ele>
        <time>2021-03-04T15:29:40Z</time>
      </trkpt>
      <trkpt lat="46.701" lon="5.73489">
        <ele>675.9</ele>
        <time>2021-03-04T15:30:01Z</time>
      </trkpt>
      <trkpt lat="46.70096" lon="5.73484">
        <ele>674.7</ele>
        <time>2021-03-04T15:30:11Z</time>
      </trkpt>
      <trkpt lat="46.70091" lon="5.73487">
        <ele>673.9</ele>
        <time>2021-03-04T15:30:29Z</time>
      </trkpt>
      <trkpt lat="46.70087" lon="5.73485">
        <ele>674.4</ele>
        <time>2021-03-04T15:30:33Z</time>
      </trkpt>
      <trkpt lat="46.70082" lon="5.73485">
        <ele>675.4</ele>
        <time>2021-03-04T15:30:38Z</time>
      </trkpt>
      <trkpt lat="46.70078" lon="5.73482">
        <ele>674.7</ele>
        <time>2021-03-04T15:31:43Z</time>
      </trkpt>
      <trkpt lat="46.70074" lon="5.73476">
        <ele>674.7</ele>
        <time>2021-03-04T15:32:06Z</time>
      </trkpt>
      <trkpt lat="46.7007" lon="5.73473">
        <ele>675.1</ele>
        <time>2021-03-04T15:32:13Z</time>
      </trkpt>
      <trkpt lat="46.70065" lon="5.7347">
        <ele>675.6</ele>
        <time>2021-03-04T15:32:21Z</time>
      </trkpt>
      <trkpt lat="46.7006" lon="5.73469">
        <ele>675.5</ele>
        <time>2021-03-04T15:32:29Z</time>
      </trkpt>
      <trkpt lat="46.70056" lon="5.73468">
        <ele>675.2</ele>
        <time>2021-03-04T15:32:36Z</time>
      </trkpt>
      <trkpt lat="46.70052" lon="5.73464">
        <ele>674.4</ele>
        <time>2021-03-04T15:32:46Z</time>
      </trkpt>
      <trkpt lat="46.70048" lon="5.7346">
        <ele>672.8</ele>
        <time>2021-03-04T15:33:33Z</time>
      </trkpt>
      <trkpt lat="46.70044" lon="5.73464">
        <ele>672.2</ele>
        <time>2021-03-04T15:34:49Z</time>
      </trkpt>
      <trkpt lat="46.70048" lon="5.73462">
        <ele>671.7</ele>
        <time>2021-03-04T15:35:14Z</time>
      </trkpt>
      <trkpt lat="46.70052" lon="5.73459">
        <ele>671.2</ele>
        <time>2021-03-04T15:35:29Z</time>
      </trkpt>
      <trkpt lat="46.70054" lon="5.73451">
        <ele>671.9</ele>
        <time>2021-03-04T15:35:33Z</time>
      </trkpt>
      <trkpt lat="46.70055" lon="5.73443">
        <ele>675.1</ele>
        <time>2021-03-04T15:35:38Z</time>
      </trkpt>
      <trkpt lat="46.70054" lon="5.73437">
        <ele>677.5</ele>
        <time>2021-03-04T15:35:42Z</time>
      </trkpt>
      <trkpt lat="46.70049" lon="5.73433">
        <ele>676.9</ele>
        <time>2021-03-04T15:35:47Z</time>
      </trkpt>
      <trkpt lat="46.70044" lon="5.73431">
        <ele>674.4</ele>
        <time>2021-03-04T15:35:52Z</time>
      </trkpt>
      <trkpt lat="46.7004" lon="5.73435">
        <ele>668.5</ele>
        <time>2021-03-04T15:36:05Z</time>
      </trkpt>
      <trkpt lat="46.70036" lon="5.73438">
        <ele>666.1</ele>
        <time>2021-03-04T15:36:11Z</time>
      </trkpt>
      <trkpt lat="46.70031" lon="5.7344">
        <ele>665</ele>
        <time>2021-03-04T15:36:16Z</time>
      </trkpt>
      <trkpt lat="46.70026" lon="5.73441">
        <ele>664.6</ele>
        <time>2021-03-04T15:36:20Z</time>
      </trkpt>
      <trkpt lat="46.70021" lon="5.73443">
        <ele>664.1</ele>
        <time>2021-03-04T15:36:26Z</time>
      </trkpt>
      <trkpt lat="46.70017" lon="5.7344">
        <ele>664.5</ele>
        <time>2021-03-04T15:36:33Z</time>
      </trkpt>
      <trkpt lat="46.70012" lon="5.73438">
        <ele>665.4</ele>
        <time>2021-03-04T15:36:42Z</time>
      </trkpt>
      <trkpt lat="46.70008" lon="5.73434">
        <ele>664.5</ele>
        <time>2021-03-04T15:36:50Z</time>
      </trkpt>
      <trkpt lat="46.70007" lon="5.73427">
        <ele>663.8</ele>
        <time>2021-03-04T15:36:55Z</time>
      </trkpt>
      <trkpt lat="46.70005" lon="5.73421">
        <ele>663</ele>
        <time>2021-03-04T15:37:01Z</time>
      </trkpt>
      <trkpt lat="46.70001" lon="5.73419">
        <ele>662</ele>
        <time>2021-03-04T15:37:08Z</time>
      </trkpt>
      <trkpt lat="46.69996" lon="5.73419">
        <ele>661.1</ele>
        <time>2021-03-04T15:37:15Z</time>
      </trkpt>
      <trkpt lat="46.69991" lon="5.73417">
        <ele>660.4</ele>
        <time>2021-03-04T15:37:22Z</time>
      </trkpt>
      <trkpt lat="46.69987" lon="5.73416">
        <ele>659.7</ele>
        <time>2021-03-04T15:37:28Z</time>
      </trkpt>
      <trkpt lat="46.69982" lon="5.73412">
        <ele>658.7</ele>
        <time>2021-03-04T15:37:37Z</time>
      </trkpt>
      <trkpt lat="46.69978" lon="5.73409">
        <ele>658.4</ele>
        <time>2021-03-04T15:37:43Z</time>
      </trkpt>
      <trkpt lat="46.69975" lon="5.73403">
        <ele>658.5</ele>
        <time>2021-03-04T15:38:33Z</time>
      </trkpt>
      <trkpt lat="46.6997" lon="5.73401">
        <ele>658.8</ele>
        <time>2021-03-04T15:38:38Z</time>
      </trkpt>
      <trkpt lat="46.69965" lon="5.73398">
        <ele>658.9</ele>
        <time>2021-03-04T15:38:42Z</time>
      </trkpt>
      <trkpt lat="46.6996" lon="5.73399">
        <ele>658.6</ele>
        <time>2021-03-04T15:38:47Z</time>
      </trkpt>
      <trkpt lat="46.69958" lon="5.73391">
        <ele>652.4</ele>
        <time>2021-03-04T15:39:00Z</time>
      </trkpt>
      <trkpt lat="46.69959" lon="5.73384">
        <ele>649.5</ele>
        <time>2021-03-04T15:39:06Z</time>
      </trkpt>
      <trkpt lat="46.69963" lon="5.73379">
        <ele>647.6</ele>
        <time>2021-03-04T15:39:18Z</time>
      </trkpt>
      <trkpt lat="46.69963" lon="5.73372">
        <ele>647.8</ele>
        <time>2021-03-04T15:39:48Z</time>
      </trkpt>
      <trkpt lat="46.69957" lon="5.7337">
        <ele>648.4</ele>
        <time>2021-03-04T15:39:54Z</time>
      </trkpt>
      <trkpt lat="46.69953" lon="5.73377">
        <ele>648.2</ele>
        <time>2021-03-04T15:39:58Z</time>
      </trkpt>
      <trkpt lat="46.69951" lon="5.73384">
        <ele>647.8</ele>
        <time>2021-03-04T15:40:02Z</time>
      </trkpt>
      <trkpt lat="46.69952" lon="5.73391">
        <ele>646.8</ele>
        <time>2021-03-04T15:40:08Z</time>
      </trkpt>
      <trkpt lat="46.69956" lon="5.73395">
        <ele>645.9</ele>
        <time>2021-03-04T15:40:14Z</time>
      </trkpt>
      <trkpt lat="46.69959" lon="5.73401">
        <ele>645.1</ele>
        <time>2021-03-04T15:40:19Z</time>
      </trkpt>
      <trkpt lat="46.6996" lon="5.73408">
        <ele>644.6</ele>
        <time>2021-03-04T15:40:24Z</time>
      </trkpt>
      <trkpt lat="46.69963" lon="5.73413">
        <ele>643.6</ele>
        <time>2021-03-04T15:40:39Z</time>
      </trkpt>
      <trkpt lat="46.69966" lon="5.73418">
        <ele>643</ele>
        <time>2021-03-04T15:40:45Z</time>
      </trkpt>
      <trkpt lat="46.69971" lon="5.73421">
        <ele>643.1</ele>
        <time>2021-03-04T15:40:49Z</time>
      </trkpt>
      <trkpt lat="46.69975" lon="5.73425">
        <ele>643.4</ele>
        <time>2021-03-04T15:40:54Z</time>
      </trkpt>
      <trkpt lat="46.69977" lon="5.73432">
        <ele>643.6</ele>
        <time>2021-03-04T15:40:59Z</time>
      </trkpt>
      <trkpt lat="46.69979" lon="5.73438">
        <ele>645.1</ele>
        <time>2021-03-04T15:41:04Z</time>
      </trkpt>
      <trkpt lat="46.69983" lon="5.73443">
        <ele>646.9</ele>
        <time>2021-03-04T15:41:10Z</time>
      </trkpt>
      <trkpt lat="46.69986" lon="5.73449">
        <ele>647.5</ele>
        <time>2021-03-04T15:41:14Z</time>
      </trkpt>
      <trkpt lat="46.69989" lon="5.73455">
        <ele>648</ele>
        <time>2021-03-04T15:41:19Z</time>
      </trkpt>
      <trkpt lat="46.69992" lon="5.73462">
        <ele>648.6</ele>
        <time>2021-03-04T15:41:24Z</time>
      </trkpt>
      <trkpt lat="46.69995" lon="5.73467">
        <ele>649</ele>
        <time>2021-03-04T15:41:29Z</time>
      </trkpt>
      <trkpt lat="46.69997" lon="5.73474">
        <ele>649.5</ele>
        <time>2021-03-04T15:41:34Z</time>
      </trkpt>
      <trkpt lat="46.70001" lon="5.73477">
        <ele>650.4</ele>
        <time>2021-03-04T15:41:40Z</time>
      </trkpt>
      <trkpt lat="46.70005" lon="5.73481">
        <ele>649.9</ele>
        <time>2021-03-04T15:41:46Z</time>
      </trkpt>
      <trkpt lat="46.70004" lon="5.73489">
        <ele>646.9</ele>
        <time>2021-03-04T15:41:54Z</time>
      </trkpt>
      <trkpt lat="46.70005" lon="5.73496">
        <ele>644.4</ele>
        <time>2021-03-04T15:42:01Z</time>
      </trkpt>
      <trkpt lat="46.70001" lon="5.735">
        <ele>640.8</ele>
        <time>2021-03-04T15:42:11Z</time>
      </trkpt>
      <trkpt lat="46.69997" lon="5.73502">
        <ele>638.4</ele>
        <time>2021-03-04T15:42:19Z</time>
      </trkpt>
      <trkpt lat="46.69992" lon="5.73498">
        <ele>637.4</ele>
        <time>2021-03-04T15:42:31Z</time>
      </trkpt>
      <trkpt lat="46.69988" lon="5.73498">
        <ele>637.2</ele>
        <time>2021-03-04T15:42:36Z</time>
      </trkpt>
      <trkpt lat="46.69983" lon="5.73495">
        <ele>637</ele>
        <time>2021-03-04T15:42:40Z</time>
      </trkpt>
      <trkpt lat="46.69978" lon="5.73492">
        <ele>636.6</ele>
        <time>2021-03-04T15:42:45Z</time>
      </trkpt>
      <trkpt lat="46.69975" lon="5.73487">
        <ele>636.1</ele>
        <time>2021-03-04T15:42:50Z</time>
      </trkpt>
      <trkpt lat="46.69971" lon="5.73482">
        <ele>635.9</ele>
        <time>2021-03-04T15:42:55Z</time>
      </trkpt>
      <trkpt lat="46.69968" lon="5.73477">
        <ele>635.7</ele>
        <time>2021-03-04T15:43:01Z</time>
      </trkpt>
      <trkpt lat="46.69964" lon="5.73472">
        <ele>635.1</ele>
        <time>2021-03-04T15:43:08Z</time>
      </trkpt>
      <trkpt lat="46.6996" lon="5.73469">
        <ele>634.5</ele>
        <time>2021-03-04T15:43:22Z</time>
      </trkpt>
      <trkpt lat="46.69956" lon="5.73465">
        <ele>633.9</ele>
        <time>2021-03-04T15:43:30Z</time>
      </trkpt>
      <trkpt lat="46.69952" lon="5.73462">
        <ele>633.4</ele>
        <time>2021-03-04T15:43:35Z</time>
      </trkpt>
      <trkpt lat="46.69948" lon="5.73456">
        <ele>632.9</ele>
        <time>2021-03-04T15:43:40Z</time>
      </trkpt>
      <trkpt lat="46.69944" lon="5.73452">
        <ele>632.5</ele>
        <time>2021-03-04T15:43:44Z</time>
      </trkpt>
      <trkpt lat="46.6994" lon="5.73447">
        <ele>632.3</ele>
        <time>2021-03-04T15:43:51Z</time>
      </trkpt>
      <trkpt lat="46.69937" lon="5.73442">
        <ele>632.2</ele>
        <time>2021-03-04T15:43:56Z</time>
      </trkpt>
      <trkpt lat="46.69933" lon="5.73437">
        <ele>632</ele>
        <time>2021-03-04T15:44:01Z</time>
      </trkpt>
      <trkpt lat="46.69929" lon="5.73432">
        <ele>631.5</ele>
        <time>2021-03-04T15:44:05Z</time>
      </trkpt>
      <trkpt lat="46.69925" lon="5.73428">
        <ele>630.6</ele>
        <time>2021-03-04T15:44:10Z</time>
      </trkpt>
      <trkpt lat="46.69921" lon="5.73422">
        <ele>629.1</ele>
        <time>2021-03-04T15:44:16Z</time>
      </trkpt>
      <trkpt lat="46.69918" lon="5.73417">
        <ele>627.4</ele>
        <time>2021-03-04T15:44:21Z</time>
      </trkpt>
      <trkpt lat="46.69914" lon="5.73415">
        <ele>625.3</ele>
        <time>2021-03-04T15:44:27Z</time>
      </trkpt>
      <trkpt lat="46.69911" lon="5.7341">
        <ele>623.8</ele>
        <time>2021-03-04T15:44:36Z</time>
      </trkpt>
      <trkpt lat="46.69908" lon="5.73404">
        <ele>623.3</ele>
        <time>2021-03-04T15:44:42Z</time>
      </trkpt>
      <trkpt lat="46.69897" lon="5.73407">
        <ele>624.5</ele>
        <time>2021-03-04T15:44:46Z</time>
      </trkpt>
      <trkpt lat="46.69892" lon="5.73404">
        <ele>624.9</ele>
        <time>2021-03-04T15:44:52Z</time>
      </trkpt>
      <trkpt lat="46.69887" lon="5.73402">
        <ele>624.6</ele>
        <time>2021-03-04T15:44:58Z</time>
      </trkpt>
      <trkpt lat="46.69884" lon="5.73397">
        <ele>624</ele>
        <time>2021-03-04T15:45:03Z</time>
      </trkpt>
      <trkpt lat="46.6988" lon="5.73392">
        <ele>623.5</ele>
        <time>2021-03-04T15:45:08Z</time>
      </trkpt>
      <trkpt lat="46.69877" lon="5.73388">
        <ele>623</ele>
        <time>2021-03-04T15:45:13Z</time>
      </trkpt>
      <trkpt lat="46.69874" lon="5.73381">
        <ele>622.4</ele>
        <time>2021-03-04T15:45:20Z</time>
      </trkpt>
      <trkpt lat="46.69871" lon="5.73376">
        <ele>621.8</ele>
        <time>2021-03-04T15:45:25Z</time>
      </trkpt>
      <trkpt lat="46.69868" lon="5.73371">
        <ele>621.4</ele>
        <time>2021-03-04T15:45:29Z</time>
      </trkpt>
      <trkpt lat="46.69866" lon="5.73364">
        <ele>620.5</ele>
        <time>2021-03-04T15:45:34Z</time>
      </trkpt>
      <trkpt lat="46.69864" lon="5.73357">
        <ele>619.4</ele>
        <time>2021-03-04T15:45:41Z</time>
      </trkpt>
      <trkpt lat="46.69863" lon="5.73351">
        <ele>619.3</ele>
        <time>2021-03-04T15:45:46Z</time>
      </trkpt>
      <trkpt lat="46.69862" lon="5.73343">
        <ele>619.1</ele>
        <time>2021-03-04T15:45:51Z</time>
      </trkpt>
      <trkpt lat="46.6986" lon="5.73337">
        <ele>618.8</ele>
        <time>2021-03-04T15:45:55Z</time>
      </trkpt>
      <trkpt lat="46.69858" lon="5.7333">
        <ele>618.2</ele>
        <time>2021-03-04T15:46:00Z</time>
      </trkpt>
      <trkpt lat="46.69856" lon="5.73323">
        <ele>617.7</ele>
        <time>2021-03-04T15:46:04Z</time>
      </trkpt>
      <trkpt lat="46.69855" lon="5.73316">
        <ele>616.9</ele>
        <time>2021-03-04T15:46:08Z</time>
      </trkpt>
      <trkpt lat="46.69855" lon="5.73308">
        <ele>615.8</ele>
        <time>2021-03-04T15:46:13Z</time>
      </trkpt>
      <trkpt lat="46.69854" lon="5.73301">
        <ele>614.8</ele>
        <time>2021-03-04T15:46:18Z</time>
      </trkpt>
      <trkpt lat="46.69855" lon="5.73293">
        <ele>613.9</ele>
        <time>2021-03-04T15:46:23Z</time>
      </trkpt>
      <trkpt lat="46.69856" lon="5.73285">
        <ele>613.1</ele>
        <time>2021-03-04T15:46:28Z</time>
      </trkpt>
      <trkpt lat="46.69855" lon="5.73278">
        <ele>612.8</ele>
        <time>2021-03-04T15:46:33Z</time>
      </trkpt>
      <trkpt lat="46.69857" lon="5.73271">
        <ele>612.6</ele>
        <time>2021-03-04T15:46:39Z</time>
      </trkpt>
      <trkpt lat="46.69861" lon="5.73266">
        <ele>612.2</ele>
        <time>2021-03-04T15:46:44Z</time>
      </trkpt>
      <trkpt lat="46.69865" lon="5.73261">
        <ele>611.7</ele>
        <time>2021-03-04T15:46:49Z</time>
      </trkpt>
      <trkpt lat="46.69868" lon="5.73256">
        <ele>610.7</ele>
        <time>2021-03-04T15:46:55Z</time>
      </trkpt>
      <trkpt lat="46.69872" lon="5.73254">
        <ele>609.7</ele>
        <time>2021-03-04T15:47:00Z</time>
      </trkpt>
      <trkpt lat="46.69877" lon="5.73252">
        <ele>608.8</ele>
        <time>2021-03-04T15:47:06Z</time>
      </trkpt>
      <trkpt lat="46.69882" lon="5.73249">
        <ele>607.9</ele>
        <time>2021-03-04T15:47:11Z</time>
      </trkpt>
      <trkpt lat="46.69887" lon="5.73248">
        <ele>606.8</ele>
        <time>2021-03-04T15:47:17Z</time>
      </trkpt>
      <trkpt lat="46.69892" lon="5.73248">
        <ele>606</ele>
        <time>2021-03-04T15:47:22Z</time>
      </trkpt>
      <trkpt lat="46.69897" lon="5.73246">
        <ele>605.2</ele>
        <time>2021-03-04T15:47:27Z</time>
      </trkpt>
      <trkpt lat="46.69902" lon="5.73245">
        <ele>604.5</ele>
        <time>2021-03-04T15:47:32Z</time>
      </trkpt>
      <trkpt lat="46.69907" lon="5.73243">
        <ele>604.1</ele>
        <time>2021-03-04T15:47:37Z</time>
      </trkpt>
      <trkpt lat="46.69911" lon="5.73246">
        <ele>603.7</ele>
        <time>2021-03-04T15:47:41Z</time>
      </trkpt>
      <trkpt lat="46.69916" lon="5.73247">
        <ele>603.6</ele>
        <time>2021-03-04T15:47:45Z</time>
      </trkpt>
      <trkpt lat="46.69922" lon="5.73247">
        <ele>603.5</ele>
        <time>2021-03-04T15:47:50Z</time>
      </trkpt>
      <trkpt lat="46.69926" lon="5.73246">
        <ele>604</ele>
        <time>2021-03-04T15:47:54Z</time>
      </trkpt>
      <trkpt lat="46.69931" lon="5.73245">
        <ele>604.7</ele>
        <time>2021-03-04T15:47:58Z</time>
      </trkpt>
      <trkpt lat="46.69935" lon="5.73241">
        <ele>605.7</ele>
        <time>2021-03-04T15:48:02Z</time>
      </trkpt>
      <trkpt lat="46.6994" lon="5.7324">
        <ele>606.3</ele>
        <time>2021-03-04T15:48:07Z</time>
      </trkpt>
      <trkpt lat="46.69946" lon="5.7324">
        <ele>606.3</ele>
        <time>2021-03-04T15:48:12Z</time>
      </trkpt>
      <trkpt lat="46.6995" lon="5.73241">
        <ele>605.3</ele>
        <time>2021-03-04T15:48:18Z</time>
      </trkpt>
      <trkpt lat="46.69955" lon="5.7324">
        <ele>604.2</ele>
        <time>2021-03-04T15:48:23Z</time>
      </trkpt>
      <trkpt lat="46.69959" lon="5.73235">
        <ele>603.2</ele>
        <time>2021-03-04T15:48:28Z</time>
      </trkpt>
      <trkpt lat="46.69961" lon="5.73228">
        <ele>602.1</ele>
        <time>2021-03-04T15:48:33Z</time>
      </trkpt>
      <trkpt lat="46.69961" lon="5.73221">
        <ele>600.5</ele>
        <time>2021-03-04T15:48:39Z</time>
      </trkpt>
      <trkpt lat="46.69959" lon="5.73215">
        <ele>599</ele>
        <time>2021-03-04T15:48:44Z</time>
      </trkpt>
      <trkpt lat="46.69956" lon="5.73209">
        <ele>597.9</ele>
        <time>2021-03-04T15:48:49Z</time>
      </trkpt>
      <trkpt lat="46.69952" lon="5.73203">
        <ele>597.2</ele>
        <time>2021-03-04T15:48:54Z</time>
      </trkpt>
      <trkpt lat="46.69948" lon="5.73197">
        <ele>596.7</ele>
        <time>2021-03-04T15:48:59Z</time>
      </trkpt>
      <trkpt lat="46.69947" lon="5.73191">
        <ele>595.7</ele>
        <time>2021-03-04T15:49:05Z</time>
      </trkpt>
      <trkpt lat="46.69943" lon="5.73186">
        <ele>594.4</ele>
        <time>2021-03-04T15:49:10Z</time>
      </trkpt>
      <trkpt lat="46.6994" lon="5.73179">
        <ele>593.3</ele>
        <time>2021-03-04T15:49:14Z</time>
      </trkpt>
      <trkpt lat="46.69938" lon="5.73173">
        <ele>592.5</ele>
        <time>2021-03-04T15:49:18Z</time>
      </trkpt>
      <trkpt lat="46.69937" lon="5.73166">
        <ele>592.1</ele>
        <time>2021-03-04T15:49:22Z</time>
      </trkpt>
      <trkpt lat="46.69935" lon="5.73158">
        <ele>591.8</ele>
        <time>2021-03-04T15:49:27Z</time>
      </trkpt>
      <trkpt lat="46.69934" lon="5.73151">
        <ele>589.9</ele>
        <time>2021-03-04T15:49:33Z</time>
      </trkpt>
      <trkpt lat="46.69934" lon="5.73143">
        <ele>588.3</ele>
        <time>2021-03-04T15:49:38Z</time>
      </trkpt>
      <trkpt lat="46.69933" lon="5.73136">
        <ele>586.9</ele>
        <time>2021-03-04T15:49:44Z</time>
      </trkpt>
      <trkpt lat="46.69934" lon="5.73128">
        <ele>586.4</ele>
        <time>2021-03-04T15:49:49Z</time>
      </trkpt>
      <trkpt lat="46.69936" lon="5.73121">
        <ele>586.4</ele>
        <time>2021-03-04T15:49:54Z</time>
      </trkpt>
      <trkpt lat="46.69937" lon="5.73114">
        <ele>586.6</ele>
        <time>2021-03-04T15:49:58Z</time>
      </trkpt>
      <trkpt lat="46.69938" lon="5.73108">
        <ele>587.2</ele>
        <time>2021-03-04T15:50:04Z</time>
      </trkpt>
      <trkpt lat="46.6994" lon="5.73101">
        <ele>588.3</ele>
        <time>2021-03-04T15:50:20Z</time>
      </trkpt>
      <trkpt lat="46.69942" lon="5.73094">
        <ele>588.4</ele>
        <time>2021-03-04T15:50:26Z</time>
      </trkpt>
      <trkpt lat="46.69943" lon="5.73088">
        <ele>588.3</ele>
        <time>2021-03-04T15:50:31Z</time>
      </trkpt>
      <trkpt lat="46.69944" lon="5.7308">
        <ele>588</ele>
        <time>2021-03-04T15:50:36Z</time>
      </trkpt>
      <trkpt lat="46.69945" lon="5.73073">
        <ele>587.7</ele>
        <time>2021-03-04T15:50:40Z</time>
      </trkpt>
      <trkpt lat="46.69946" lon="5.73066">
        <ele>587.3</ele>
        <time>2021-03-04T15:50:44Z</time>
      </trkpt>
      <trkpt lat="46.69947" lon="5.73059">
        <ele>586.9</ele>
        <time>2021-03-04T15:50:49Z</time>
      </trkpt>
      <trkpt lat="46.69949" lon="5.73053">
        <ele>586.4</ele>
        <time>2021-03-04T15:50:53Z</time>
      </trkpt>
      <trkpt lat="46.6995" lon="5.73045">
        <ele>585</ele>
        <time>2021-03-04T15:50:59Z</time>
      </trkpt>
      <trkpt lat="46.69952" lon="5.73038">
        <ele>583.6</ele>
        <time>2021-03-04T15:51:05Z</time>
      </trkpt>
      <trkpt lat="46.69953" lon="5.73031">
        <ele>582.5</ele>
        <time>2021-03-04T15:51:10Z</time>
      </trkpt>
      <trkpt lat="46.69955" lon="5.73025">
        <ele>581.7</ele>
        <time>2021-03-04T15:51:15Z</time>
      </trkpt>
      <trkpt lat="46.69958" lon="5.73019">
        <ele>580.9</ele>
        <time>2021-03-04T15:51:20Z</time>
      </trkpt>
      <trkpt lat="46.69959" lon="5.73012">
        <ele>580.5</ele>
        <time>2021-03-04T15:51:24Z</time>
      </trkpt>
      <trkpt lat="46.69959" lon="5.73004">
        <ele>580.3</ele>
        <time>2021-03-04T15:51:28Z</time>
      </trkpt>
      <trkpt lat="46.69959" lon="5.72997">
        <ele>580.1</ele>
        <time>2021-03-04T15:51:32Z</time>
      </trkpt>
      <trkpt lat="46.69958" lon="5.72989">
        <ele>579.9</ele>
        <time>2021-03-04T15:51:36Z</time>
      </trkpt>
      <trkpt lat="46.69957" lon="5.72982">
        <ele>579.1</ele>
        <time>2021-03-04T15:51:40Z</time>
      </trkpt>
      <trkpt lat="46.69956" lon="5.72974">
        <ele>577.3</ele>
        <time>2021-03-04T15:51:45Z</time>
      </trkpt>
      <trkpt lat="46.69956" lon="5.72966">
        <ele>576.3</ele>
        <time>2021-03-04T15:51:49Z</time>
      </trkpt>
      <trkpt lat="46.69957" lon="5.72959">
        <ele>575.4</ele>
        <time>2021-03-04T15:51:53Z</time>
      </trkpt>
      <trkpt lat="46.69958" lon="5.72952">
        <ele>575.3</ele>
        <time>2021-03-04T15:51:57Z</time>
      </trkpt>
      <trkpt lat="46.6996" lon="5.72944">
        <ele>576.3</ele>
        <time>2021-03-04T15:52:01Z</time>
      </trkpt>
      <trkpt lat="46.69962" lon="5.72938">
        <ele>577.4</ele>
        <time>2021-03-04T15:52:05Z</time>
      </trkpt>
      <trkpt lat="46.69963" lon="5.72931">
        <ele>578.6</ele>
        <time>2021-03-04T15:52:10Z</time>
      </trkpt>
      <trkpt lat="46.69962" lon="5.72924">
        <ele>579.5</ele>
        <time>2021-03-04T15:52:15Z</time>
      </trkpt>
      <trkpt lat="46.69959" lon="5.7292">
        <ele>579.9</ele>
        <time>2021-03-04T15:52:19Z</time>
      </trkpt>
      <trkpt lat="46.69955" lon="5.72916">
        <ele>580.2</ele>
        <time>2021-03-04T15:52:23Z</time>
      </trkpt>
      <trkpt lat="46.69952" lon="5.72911">
        <ele>580.4</ele>
        <time>2021-03-04T15:52:27Z</time>
      </trkpt>
      <trkpt lat="46.6995" lon="5.72904">
        <ele>580.6</ele>
        <time>2021-03-04T15:52:31Z</time>
      </trkpt>
      <trkpt lat="46.69948" lon="5.72898">
        <ele>580.4</ele>
        <time>2021-03-04T15:52:35Z</time>
      </trkpt>
      <trkpt lat="46.69946" lon="5.72892">
        <ele>580.5</ele>
        <time>2021-03-04T15:52:41Z</time>
      </trkpt>
      <trkpt lat="46.69944" lon="5.72886">
        <ele>579.9</ele>
        <time>2021-03-04T15:52:50Z</time>
      </trkpt>
      <trkpt lat="46.6994" lon="5.7288">
        <ele>580</ele>
        <time>2021-03-04T15:52:55Z</time>
      </trkpt>
      <trkpt lat="46.69936" lon="5.72875">
        <ele>580.2</ele>
        <time>2021-03-04T15:52:59Z</time>
      </trkpt>
      <trkpt lat="46.69932" lon="5.7287">
        <ele>580.9</ele>
        <time>2021-03-04T15:53:04Z</time>
      </trkpt>
      <trkpt lat="46.6993" lon="5.72864">
        <ele>581.3</ele>
        <time>2021-03-04T15:53:09Z</time>
      </trkpt>
      <trkpt lat="46.69926" lon="5.72859">
        <ele>581.7</ele>
        <time>2021-03-04T15:53:14Z</time>
      </trkpt>
      <trkpt lat="46.69923" lon="5.72854">
        <ele>583.1</ele>
        <time>2021-03-04T15:53:18Z</time>
      </trkpt>
      <trkpt lat="46.69917" lon="5.72852">
        <ele>585.5</ele>
        <time>2021-03-04T15:53:22Z</time>
      </trkpt>
      <trkpt lat="46.69909" lon="5.7285">
        <ele>587.8</ele>
        <time>2021-03-04T15:53:26Z</time>
      </trkpt>
      <trkpt lat="46.69904" lon="5.72845">
        <ele>589.6</ele>
        <time>2021-03-04T15:53:30Z</time>
      </trkpt>
      <trkpt lat="46.69899" lon="5.72843">
        <ele>591</ele>
        <time>2021-03-04T15:53:35Z</time>
      </trkpt>
      <trkpt lat="46.69894" lon="5.72843">
        <ele>591.7</ele>
        <time>2021-03-04T15:53:40Z</time>
      </trkpt>
      <trkpt lat="46.6989" lon="5.72839">
        <ele>592.8</ele>
        <time>2021-03-04T15:53:46Z</time>
      </trkpt>
      <trkpt lat="46.69885" lon="5.72837">
        <ele>593.5</ele>
        <time>2021-03-04T15:53:50Z</time>
      </trkpt>
      <trkpt lat="46.69879" lon="5.72837">
        <ele>593.6</ele>
        <time>2021-03-04T15:53:54Z</time>
      </trkpt>
      <trkpt lat="46.69874" lon="5.72833">
        <ele>593.8</ele>
        <time>2021-03-04T15:53:58Z</time>
      </trkpt>
      <trkpt lat="46.69869" lon="5.72831">
        <ele>593.4</ele>
        <time>2021-03-04T15:54:03Z</time>
      </trkpt>
      <trkpt lat="46.69864" lon="5.72829">
        <ele>592.3</ele>
        <time>2021-03-04T15:54:08Z</time>
      </trkpt>
      <trkpt lat="46.6986" lon="5.72827">
        <ele>591.6</ele>
        <time>2021-03-04T15:54:14Z</time>
      </trkpt>
      <trkpt lat="46.69855" lon="5.72825">
        <ele>590.9</ele>
        <time>2021-03-04T15:54:23Z</time>
      </trkpt>
      <trkpt lat="46.6985" lon="5.72823">
        <ele>590</ele>
        <time>2021-03-04T15:54:27Z</time>
      </trkpt>
      <trkpt lat="46.69845" lon="5.72823">
        <ele>589.1</ele>
        <time>2021-03-04T15:54:31Z</time>
      </trkpt>
      <trkpt lat="46.6984" lon="5.72823">
        <ele>588.6</ele>
        <time>2021-03-04T15:54:36Z</time>
      </trkpt>
      <trkpt lat="46.69836" lon="5.72821">
        <ele>588.2</ele>
        <time>2021-03-04T15:54:45Z</time>
      </trkpt>
      <trkpt lat="46.6983" lon="5.72819">
        <ele>587.8</ele>
        <time>2021-03-04T15:54:50Z</time>
      </trkpt>
      <trkpt lat="46.69825" lon="5.72818">
        <ele>587.3</ele>
        <time>2021-03-04T15:54:54Z</time>
      </trkpt>
      <trkpt lat="46.6982" lon="5.72816">
        <ele>587</ele>
        <time>2021-03-04T15:54:58Z</time>
      </trkpt>
      <trkpt lat="46.69816" lon="5.72814">
        <ele>586.4</ele>
        <time>2021-03-04T15:55:02Z</time>
      </trkpt>
      <trkpt lat="46.69811" lon="5.72813">
        <ele>586.3</ele>
        <time>2021-03-04T15:55:06Z</time>
      </trkpt>
      <trkpt lat="46.69806" lon="5.72811">
        <ele>586.3</ele>
        <time>2021-03-04T15:55:10Z</time>
      </trkpt>
      <trkpt lat="46.69802" lon="5.72809">
        <ele>586</ele>
        <time>2021-03-04T15:55:15Z</time>
      </trkpt>
      <trkpt lat="46.69797" lon="5.72807">
        <ele>585.8</ele>
        <time>2021-03-04T15:55:20Z</time>
      </trkpt>
      <trkpt lat="46.69793" lon="5.72804">
        <ele>585.1</ele>
        <time>2021-03-04T15:55:26Z</time>
      </trkpt>
      <trkpt lat="46.69788" lon="5.72803">
        <ele>584.4</ele>
        <time>2021-03-04T15:55:31Z</time>
      </trkpt>
      <trkpt lat="46.69784" lon="5.72801">
        <ele>583.8</ele>
        <time>2021-03-04T15:55:35Z</time>
      </trkpt>
      <trkpt lat="46.69778" lon="5.728">
        <ele>583.4</ele>
        <time>2021-03-04T15:55:39Z</time>
      </trkpt>
      <trkpt lat="46.69773" lon="5.72799">
        <ele>583.2</ele>
        <time>2021-03-04T15:55:43Z</time>
      </trkpt>
      <trkpt lat="46.69768" lon="5.72797">
        <ele>583.2</ele>
        <time>2021-03-04T15:55:48Z</time>
      </trkpt>
      <trkpt lat="46.69763" lon="5.72795">
        <ele>582.8</ele>
        <time>2021-03-04T15:55:53Z</time>
      </trkpt>
      <trkpt lat="46.69758" lon="5.72792">
        <ele>581.8</ele>
        <time>2021-03-04T15:55:58Z</time>
      </trkpt>
      <trkpt lat="46.69752" lon="5.7279">
        <ele>581.2</ele>
        <time>2021-03-04T15:56:02Z</time>
      </trkpt>
      <trkpt lat="46.69748" lon="5.72787">
        <ele>580.4</ele>
        <time>2021-03-04T15:56:07Z</time>
      </trkpt>
      <trkpt lat="46.69743" lon="5.72782">
        <ele>579.9</ele>
        <time>2021-03-04T15:56:12Z</time>
      </trkpt>
      <trkpt lat="46.69741" lon="5.72776">
        <ele>579.6</ele>
        <time>2021-03-04T15:56:17Z</time>
      </trkpt>
      <trkpt lat="46.6974" lon="5.72769">
        <ele>579.3</ele>
        <time>2021-03-04T15:56:21Z</time>
      </trkpt>
      <trkpt lat="46.6974" lon="5.72761">
        <ele>579.1</ele>
        <time>2021-03-04T15:56:25Z</time>
      </trkpt>
      <trkpt lat="46.69739" lon="5.72755">
        <ele>579.3</ele>
        <time>2021-03-04T15:56:30Z</time>
      </trkpt>
      <trkpt lat="46.69736" lon="5.7275">
        <ele>579.3</ele>
        <time>2021-03-04T15:56:34Z</time>
      </trkpt>
      <trkpt lat="46.69732" lon="5.72746">
        <ele>579.2</ele>
        <time>2021-03-04T15:56:38Z</time>
      </trkpt>
      <trkpt lat="46.69729" lon="5.7274">
        <ele>579</ele>
        <time>2021-03-04T15:56:43Z</time>
      </trkpt>
      <trkpt lat="46.69726" lon="5.72733">
        <ele>578.9</ele>
        <time>2021-03-04T15:56:47Z</time>
      </trkpt>
      <trkpt lat="46.69726" lon="5.72725">
        <ele>578.5</ele>
        <time>2021-03-04T15:56:52Z</time>
      </trkpt>
      <trkpt lat="46.69725" lon="5.72717">
        <ele>577.3</ele>
        <time>2021-03-04T15:56:57Z</time>
      </trkpt>
      <trkpt lat="46.69721" lon="5.72713">
        <ele>575.5</ele>
        <time>2021-03-04T15:57:02Z</time>
      </trkpt>
      <trkpt lat="46.69715" lon="5.72709">
        <ele>574.6</ele>
        <time>2021-03-04T15:57:06Z</time>
      </trkpt>
      <trkpt lat="46.6971" lon="5.72705">
        <ele>573.7</ele>
        <time>2021-03-04T15:57:10Z</time>
      </trkpt>
      <trkpt lat="46.69707" lon="5.72699">
        <ele>572.5</ele>
        <time>2021-03-04T15:57:15Z</time>
      </trkpt>
      <trkpt lat="46.69703" lon="5.72694">
        <ele>572.6</ele>
        <time>2021-03-04T15:57:19Z</time>
      </trkpt>
      <trkpt lat="46.697" lon="5.72689">
        <ele>573</ele>
        <time>2021-03-04T15:57:23Z</time>
      </trkpt>
      <trkpt lat="46.69695" lon="5.72687">
        <ele>574</ele>
        <time>2021-03-04T15:57:29Z</time>
      </trkpt>
      <trkpt lat="46.6969" lon="5.72688">
        <ele>575.2</ele>
        <time>2021-03-04T15:57:33Z</time>
      </trkpt>
      <trkpt lat="46.69685" lon="5.72689">
        <ele>576.1</ele>
        <time>2021-03-04T15:57:37Z</time>
      </trkpt>
      <trkpt lat="46.6968" lon="5.72696">
        <ele>576.7</ele>
        <time>2021-03-04T15:57:41Z</time>
      </trkpt>
      <trkpt lat="46.69675" lon="5.72697">
        <ele>577.2</ele>
        <time>2021-03-04T15:57:47Z</time>
      </trkpt>
      <trkpt lat="46.69671" lon="5.72693">
        <ele>576.8</ele>
        <time>2021-03-04T15:57:55Z</time>
      </trkpt>
      <trkpt lat="46.69667" lon="5.7269">
        <ele>576.1</ele>
        <time>2021-03-04T15:58:00Z</time>
      </trkpt>
      <trkpt lat="46.69662" lon="5.72689">
        <ele>575.8</ele>
        <time>2021-03-04T15:58:04Z</time>
      </trkpt>
      <trkpt lat="46.69657" lon="5.72687">
        <ele>576</ele>
        <time>2021-03-04T15:58:09Z</time>
      </trkpt>
      <trkpt lat="46.69652" lon="5.72688">
        <ele>576.1</ele>
        <time>2021-03-04T15:58:14Z</time>
      </trkpt>
      <trkpt lat="46.69648" lon="5.72692">
        <ele>575.9</ele>
        <time>2021-03-04T15:58:19Z</time>
      </trkpt>
      <trkpt lat="46.69645" lon="5.72697">
        <ele>575.6</ele>
        <time>2021-03-04T15:58:27Z</time>
      </trkpt>
      <trkpt lat="46.69641" lon="5.72703">
        <ele>575.8</ele>
        <time>2021-03-04T15:58:31Z</time>
      </trkpt>
      <trkpt lat="46.69638" lon="5.72709">
        <ele>575.9</ele>
        <time>2021-03-04T15:58:36Z</time>
      </trkpt>
      <trkpt lat="46.69635" lon="5.72713">
        <ele>577</ele>
        <time>2021-03-04T15:59:08Z</time>
      </trkpt>
    </trkseg>
  </trk>
</gpx>